GFSSGP_sfc_rhum_000.txt.gz
RH
43 26 27 22 23 27 30 21 28 39 43 45 43 54 62 61 62 84 79 80 86 93 88 86 92 91 91 91 90 89 88 85 82 82 82 81 79 77 78 80 81 76 72 68 68 69 71 76 80
31 22 24 23 29 31 30 28 43 42 38 39 41 48 61 81 74 90 89 82 85 88 89 86 93 92 92 92 91 89 86 84 84 84 83 81 78 77 78 79 81 73 69 67 68 71 75 79 82
31 22 18 24 30 30 37 28 26 34 34 35 45 45 47 65 70 78 80 80 83 92 89 90 94 94 93 93 93 93 92 92 90 85 80 79 77 77 76 76 73 69 67 66 66 68 74 81 84
21 18 16 20 25 19 29 30 27 37 38 38 42 48 40 45 56 80 80 89 90 94 96 95 95 95 94 95 94 94 94 93 88 84 81 79 77 76 76 75 71 67 66 65 66 67 69 76 80
29 20 21 25 21 30 28 25 27 29 45 44 39 50 51 60 71 81 92 89 86 85 94 97 97 96 95 94 94 94 94 93 90 89 85 80 78 77 77 76 72 70 68 68 68 69 69 72 75
22 18 23 25 33 20 19 25 27 46 45 42 44 48 49 54 80 83 89 93 85 84 88 93 97 98 97 96 95 95 94 94 93 91 86 80 80 79 77 75 73 71 70 68 68 69 69 71 71
22 23 22 29 34 22 15 17 27 35 47 50 42 52 48 52 68 78 90 97 98 97 95 98 97 96 97 96 95 95 96 94 93 93 89 88 86 86 79 74 72 70 69 68 68 69 71 71 71
20 21 22 24 28 16 13 12 19 24 37 41 39 57 50 40 53 66 83 93 96 97 97 98 98 97 98 97 95 94 92 91 91 91 88 88 86 84 83 81 76 74 72 71 70 74 74 73 77
17 20 21 17 17 13 11 13 13 20 29 37 39 46 35 39 42 53 64 74 84 82 92 95 95 96 97 96 92 92 90 88 88 88 88 92 94 88 84 86 80 81 80 79 79 80 80 78 78
18 18 16 12 14 11 11 9 10 20 44 54 53 43 40 35 39 45 48 59 65 75 80 78 85 91 94 71 95 96 89 93 93 92 93 96 96 95 82 86 86 84 83 84 85 86 86 85 90
18 14 9 10 10 8 10 9 12 19 42 49 51 46 40 37 37 39 40 44 51 59 64 72 80 84 82 76 93 97 97 97 97 94 94 95 92 92 96 95 95 96 91 97 94 95 97 94 93
13 12 8 9 9 9 9 9 11 19 18 41 40 38 38 40 40 37 38 39 50 56 58 63 71 75 73 83 92 91 92 96 97 93 85 86 89 81 81 88 91 92 92 94 96 98 94 91 89
11 10 8 10 12 11 8 8 9 16 19 40 39 40 42 40 40 37 32 35 48 55 58 65 68 68 66 65 73 76 77 82 87 83 78 78 79 74 76 74 72 71 71 78 77 84 76 70 70
12 9 9 9 14 14 11 15 14 13 19 44 42 45 44 42 39 40 39 34 46 52 66 76 77 75 59 64 73 71 75 77 77 79 72 66 73 77 76 73 73 75 78 76 71 69 68 70 72
12 11 12 13 16 16 14 20 17 14 16 43 45 45 44 42 42 38 38 33 41 54 66 75 78 77 72 61 66 69 66 62 68 65 64 60 66 71 73 72 71 75 76 74 75 72 76 77 72
14 18 18 17 17 18 14 19 16 14 12 20 36 42 42 44 39 39 41 40 52 67 65 80 70 79 75 64 62 56 59 64 63 68 64 60 60 65 68 65 65 72 72 73 72 75 74 74 78
22 21 26 21 18 19 20 25 18 16 13 14 20 35 42 49 50 51 44 44 72 67 73 76 87 81 77 66 72 67 68 66 59 59 54 58 58 57 58 58 60 63 68 70 71 70 79 77 70
23 24 30 22 20 22 22 27 25 24 35 48 54 53 54 53 55 55 61 67 65 77 82 81 84 82 75 56 66 67 71 64 60 52 52 52 53 55 57 58 64 67 66 65 66 66 67 72 78
20 24 26 25 18 18 28 35 35 46 49 49 51 56 55 53 49 54 56 55 56 58 61 73 71 67 49 65 67 79 62 58 54 55 58 58 58 59 63 67 70 70 66 68 66 70 73 68 74
27 27 30 24 19 19 31 35 40 43 46 45 49 54 55 54 49 50 55 64 70 63 66 67 63 59 61 72 77 69 64 63 59 61 54 60 67 57 54 67 68 72 69 69 72 76 75 77 76
38 33 34 30 27 24 29 35 40 36 37 37 43 50 53 53 55 52 57 62 56 52 54 50 50 52 61 65 59 63 62 62 65 60 62 60 60 59 60 64 70 72 73 75 75 77 79 85 85
44 35 31 30 32 27 29 50 40 45 44 44 50 56 55 56 54 53 57 59 57 56 52 47 45 45 48 52 57 62 69 68 72 72 69 60 61 61 58 61 70 74 76 75 79 76 88 86 92
38 36 36 37 39 41 37 48 44 42 47 49 53 55 61 59 58 59 59 56 56 55 54 51 47 47 48 49 55 66 61 64 70 72 63 60 63 62 61 67 72 72 75 78 81 87 87 91 91
31 40 42 44 50 66 46 53 54 53 46 46 49 52 54 58 60 58 57 54 54 55 52 48 43 44 50 52 54 60 58 62 69 63 62 63 67 66 69 65 73 74 81 82 86 84 89 90 92
34 51 73 65 76 72 48 61 64 45 41 47 53 53 53 56 61 60 58 57 57 61 51 51 50 47 46 54 59 61 64 65 60 58 56 55 63 64 72 74 78 79 81 80 81 83 84 87 89
41 46 69 70 82 57 43 61 52 43 43 44 44 49 49 50 56 60 59 57 55 59 59 58 53 50 57 59 59 61 62 61 55 52 58 61 72 73 79 78 75 73 75 77 79 84 87 88 92
43 45 38 61 76 70 60 49 41 36 37 34 35 41 52 54 56 56 58 58 59 58 63 54 47 45 51 55 59 56 57 58 61 60 65 72 74 68 75 76 72 71 71 75 81 86 87 90 91
28 33 55 70 66 70 58 61 59 49 45 39 50 55 57 58 56 57 58 61 63 61 55 56 53 51 53 56 59 54 56 59 69 71 75 71 71 71 70 69 68 68 71 75 83 86 88 90 92
43 47 50 54 72 77 84 60 47 51 47 53 56 56 59 61 62 61 60 61 57 52 54 59 62 61 61 61 61 63 64 66 70 73 68 68 69 66 65 62 62 61 62 68 75 82 87 91 86
39 47 52 75 69 89 89 61 43 48 46 50 52 53 53 59 59 60 60 56 54 54 54 52 59 60 60 64 67 70 71 66 66 66 64 67 66 67 64 60 57 56 58 62 67 77 73 70 70

GFSSGP_sfc_rhum_003.txt.gz
RH
57 30 28 21 25 30 31 20 42 45 59 54 61 57 76 80 73 84 87 85 91 94 92 90 93 91 91 91 90 89 87 81 81 80 80 79 77 77 79 79 76 70 65 64 65 67 69 72 77
27 25 23 26 31 28 28 28 50 48 50 43 46 53 69 86 88 94 92 90 90 92 92 91 94 94 92 91 91 89 84 82 82 82 82 79 77 77 76 76 76 69 66 64 64 66 70 75 80
31 25 19 24 33 32 29 38 46 45 44 40 46 42 55 84 86 88 90 89 90 95 93 94 96 95 94 93 92 91 91 90 87 85 81 78 77 75 73 73 70 66 65 64 64 66 70 75 79
24 22 17 22 24 23 24 29 40 40 39 38 45 51 44 67 80 88 86 89 96 99 97 96 96 96 95 95 94 94 95 92 88 86 80 77 75 73 72 72 68 66 65 65 64 66 69 72 75
29 23 21 23 19 20 19 29 40 44 48 45 42 50 60 88 80 88 92 89 95 98 98 97 98 97 95 94 94 95 94 90 90 88 83 79 76 75 74 72 69 68 66 66 65 67 69 70 72
23 23 24 22 21 19 16 32 49 49 46 48 54 54 62 87 91 91 88 80 76 90 93 97 97 96 96 95 95 96 95 94 93 91 85 80 79 78 75 71 69 69 68 68 68 70 70 71 70
26 23 23 20 31 19 18 21 48 46 47 49 42 59 66 92 96 91 85 79 78 80 85 92 91 98 98 97 96 95 93 94 94 92 90 87 86 84 77 70 69 68 68 69 70 72 73 72 72
23 22 25 26 25 19 11 17 35 48 55 42 40 59 84 68 90 97 89 86 86 87 88 94 100 99 98 98 96 95 94 93 94 93 90 88 85 84 83 82 76 73 72 72 73 76 76 75 78
21 25 25 17 14 9 9 19 23 34 48 45 48 48 59 69 87 96 98 96 98 98 99 99 99 98 98 97 94 93 91 90 91 90 88 91 94 92 89 87 84 80 81 79 79 80 82 81 81
24 27 20 13 11 9 11 30 29 44 54 58 49 44 57 64 80 88 91 95 96 96 96 97 97 97 97 83 96 96 92 95 95 94 93 95 94 95 89 88 86 87 86 85 86 86 87 89 96
21 15 11 11 10 8 10 16 22 51 64 56 49 49 57 67 68 68 68 71 75 78 82 85 91 95 95 86 98 99 98 98 97 93 94 95 94 97 96 98 96 96 92 97 95 95 97 94 96
16 11 10 10 9 8 10 11 24 30 47 49 39 42 47 51 53 54 58 61 67 75 72 74 85 89 90 92 92 92 95 98 98 97 94 96 95 92 90 93 90 88 89 87 95 98 95 94 92
11 11 12 13 10 10 9 10 13 19 37 45 38 37 41 42 43 44 45 48 56 65 66 72 84 80 78 87 92 93 94 94 94 95 90 89 88 79 80 78 78 77 79 79 77 78 75 71 71
11 13 11 15 14 12 10 16 17 20 56 49 41 38 38 37 38 43 42 44 54 56 61 71 76 78 72 76 87 88 88 91 93 91 86 77 80 80 80 77 74 76 82 82 80 78 77 79 80
12 12 14 14 18 16 17 21 18 21 53 50 45 43 47 43 44 40 42 41 50 55 60 75 81 84 78 74 77 81 86 78 86 74 65 66 75 76 71 70 68 71 77 73 74 76 78 73 70
17 19 19 16 19 21 15 17 20 22 56 58 58 59 55 53 54 49 52 41 48 67 69 80 84 90 90 86 90 88 83 75 74 73 75 68 62 63 68 62 62 68 74 74 70 75 64 70 76
23 23 25 22 18 22 20 26 22 20 43 39 55 61 56 61 63 71 74 66 74 78 76 86 91 92 95 90 83 86 78 70 66 65 67 60 57 56 62 63 70 74 71 72 72 67 71 74 72
21 24 44 22 21 24 26 38 45 51 53 66 73 63 63 66 72 66 78 77 79 80 82 89 89 92 85 77 80 74 82 79 79 66 58 58 59 63 66 71 74 73 68 68 68 67 71 73 78
23 26 24 28 22 39 49 56 63 61 64 68 64 62 61 62 62 64 66 69 57 74 76 84 80 77 75 85 81 84 84 77 75 63 67 66 62 58 67 70 70 70 67 70 71 75 74 68 79
27 30 34 28 33 42 50 52 52 51 60 67 62 61 59 58 56 60 62 64 68 68 67 72 72 66 69 79 82 88 84 78 70 60 58 60 63 61 57 68 70 72 71 71 74 77 78 81 88
41 39 34 31 38 40 42 49 45 42 48 53 60 64 60 61 65 65 59 55 52 52 54 51 55 59 62 75 79 70 67 68 64 65 67 61 64 61 64 70 74 76 77 79 82 86 87 90 89
43 38 33 33 43 52 42 70 53 54 59 60 64 63 66 60 59 56 55 54 52 54 51 48 47 48 50 54 58 58 61 62 72 76 65 62 67 66 66 70 74 78 82 84 86 85 94 94 97
41 38 36 35 40 42 47 59 59 51 63 63 64 61 59 64 58 58 56 54 58 56 52 51 48 46 49 52 59 67 65 67 78 70 62 62 70 72 68 70 68 75 83 84 83 87 86 89 91
32 42 47 54 54 68 50 58 61 60 56 57 56 58 58 64 67 61 57 54 53 57 56 52 49 50 52 54 58 66 62 72 64 60 61 62 68 72 70 67 75 81 82 81 82 81 79 86 89
39 51 71 64 75 75 52 61 64 46 47 52 55 58 62 63 62 60 55 60 61 64 62 56 56 62 62 63 65 67 66 59 56 58 63 59 64 70 75 79 82 82 79 78 78 79 82 87 88
44 48 72 66 82 58 49 68 56 48 48 48 52 54 60 62 62 64 67 67 66 60 56 51 51 53 54 55 57 62 58 61 62 57 59 69 73 78 83 82 74 73 73 75 78 80 84 82 85
46 49 45 70 76 72 68 55 44 48 54 50 51 54 63 65 65 62 64 64 63 63 64 57 48 47 50 54 58 58 58 61 68 69 75 78 81 73 82 75 70 76 72 74 79 79 81 85 86
34 38 55 71 64 71 66 68 66 52 53 45 54 67 67 63 63 65 62 57 55 56 60 63 60 57 58 61 66 63 68 68 72 77 78 79 74 68 71 71 83 68 65 67 76 79 81 85 91
44 47 55 62 75 76 85 71 50 50 46 56 68 65 66 68 65 62 58 53 51 52 50 61 60 53 53 58 66 72 70 68 74 77 78 75 71 73 73 69 63 62 61 61 65 71 76 85 81
43 50 50 68 68 89 87 60 47 52 55 60 63 65 68 66 65 58 55 52 50 47 46 48 50 46 50 54 62 63 68 68 74 71 74 72 66 69 67 68 68 62 56 60 65 72 74 71 70

GFSSGP_sfc_rhum_006.txt.gz
RH
67 55 39 29 18 30 30 23 35 49 66 61 59 69 86 91 71 82 89 91 93 96 94 90 92 91 91 89 88 88 85 81 80 80 79 77 76 76 76 75 74 68 64 63 64 65 69 73 78
29 28 27 31 34 30 25 22 52 54 58 49 54 63 74 78 87 96 94 91 90 93 95 91 93 92 92 90 90 88 83 81 81 82 79 77 76 73 72 74 75 67 63 62 61 63 66 70 74
32 26 24 30 40 27 27 48 48 51 46 44 51 51 70 82 87 89 89 91 92 96 96 94 95 93 92 92 91 89 88 88 86 84 78 76 74 71 70 72 69 65 63 61 60 61 65 69 73
26 25 21 26 29 24 26 41 47 49 44 44 47 60 57 76 83 89 88 93 96 99 98 98 96 94 92 92 92 93 93 92 90 86 78 75 72 71 70 70 65 63 61 59 60 62 66 70 72
28 24 25 34 24 21 20 33 41 49 51 44 43 59 68 94 91 90 93 90 90 97 98 97 97 96 94 93 93 94 93 90 90 87 82 77 74 73 71 68 66 64 63 63 65 67 69 70 70
26 25 25 29 23 24 34 42 47 49 49 52 59 63 79 92 89 88 89 93 88 91 94 97 96 95 95 94 95 95 92 91 92 89 84 78 77 76 70 67 67 66 66 67 70 72 71 71 71
27 25 28 26 33 28 26 43 46 47 50 54 51 75 89 97 87 89 84 80 87 81 94 96 98 96 96 96 96 95 94 93 93 91 88 85 85 82 73 70 70 69 69 71 73 76 76 74 76
26 24 38 34 28 35 15 29 47 46 56 43 48 93 94 92 89 83 78 77 78 80 78 83 85 91 99 98 96 94 93 93 92 91 89 87 85 82 80 79 74 75 74 74 76 77 78 79 80
25 27 26 25 35 30 17 28 25 44 49 49 49 66 79 94 86 88 91 90 91 89 88 93 90 97 99 98 96 93 92 92 91 90 88 90 93 90 88 86 84 81 81 81 81 82 83 84 86
27 30 22 16 21 32 24 32 37 49 56 56 61 78 91 94 90 88 87 88 87 90 93 95 99 99 98 90 97 97 94 96 96 95 94 96 94 93 89 88 86 86 87 88 89 88 89 91 96
27 24 14 11 13 11 22 24 38 52 63 57 66 88 91 98 97 97 97 96 96 96 98 98 97 97 97 95 98 99 98 98 97 94 94 94 94 96 96 97 96 95 89 96 92 94 96 94 96
20 15 11 12 13 12 23 17 44 38 41 47 60 74 78 89 87 86 85 88 89 92 93 94 95 96 96 96 98 97 98 97 98 97 94 96 97 95 93 95 86 82 82 80 87 92 89 88 85
16 12 13 11 10 11 10 21 33 25 50 46 56 66 69 73 74 68 64 69 79 83 84 86 91 93 93 93 96 95 96 97 96 96 94 95 94 86 85 81 81 80 83 83 81 80 78 78 78
15 13 14 15 11 11 12 17 18 26 60 49 53 61 62 63 59 63 60 64 68 74 77 81 88 90 83 87 91 97 97 96 95 96 90 82 85 83 82 75 73 74 82 80 81 81 81 80 76
13 11 13 13 18 16 17 20 21 44 56 52 48 53 51 50 53 53 50 51 60 68 71 83 92 91 94 93 94 96 95 90 94 88 73 83 78 76 73 68 67 71 78 76 73 74 70 70 65
17 20 17 16 20 22 14 18 23 55 59 65 64 61 61 62 58 54 55 45 58 73 82 92 89 95 96 95 96 97 93 92 93 94 91 75 64 65 67 69 74 77 76 72 72 77 65 74 73
22 24 24 22 22 22 19 35 46 43 63 63 67 63 65 70 73 77 82 80 83 86 94 95 94 94 96 97 97 91 85 79 83 83 74 65 64 64 70 74 77 73 70 73 69 72 73 76 73
21 23 46 24 34 48 47 74 70 69 61 74 76 75 77 73 76 78 84 86 95 96 95 95 94 93 90 91 92 89 85 86 88 85 78 63 57 61 64 66 71 69 68 72 72 70 73 75 80
21 22 25 29 34 56 69 71 68 75 78 77 77 75 72 70 77 77 78 84 81 88 84 86 89 89 85 86 85 83 81 88 85 71 66 64 58 62 67 71 72 72 72 75 77 78 77 73 89
29 32 40 42 43 55 60 59 56 57 67 77 73 72 70 69 66 66 64 73 81 88 89 86 81 76 74 79 84 86 90 80 72 64 63 68 66 64 64 74 76 74 73 80 85 86 83 84 94
43 34 37 45 49 52 54 59 57 52 61 64 66 69 67 68 69 60 56 59 62 71 71 62 64 64 70 80 81 74 72 72 65 72 65 68 68 68 68 73 75 77 79 85 91 89 88 93 92
42 40 39 50 53 60 50 79 61 64 70 68 71 71 75 66 58 54 52 50 52 56 54 53 53 54 55 58 59 58 65 68 80 72 65 69 70 67 67 70 75 78 83 87 89 83 88 90 89
42 36 38 40 43 47 53 68 64 64 70 69 70 69 74 77 61 54 55 56 61 55 56 59 54 53 55 59 67 73 72 79 76 67 62 60 68 67 67 70 75 80 84 84 82 81 79 85 86
37 45 50 58 56 65 52 59 68 71 63 66 64 64 67 70 72 64 60 54 55 61 60 58 60 65 65 65 69 68 70 69 61 63 65 66 67 74 74 72 81 83 83 82 82 80 82 86 87
45 51 70 64 75 76 58 60 57 52 56 57 60 63 68 72 74 71 59 59 64 61 60 59 60 60 62 63 64 65 63 56 59 63 71 72 75 77 82 83 85 85 79 76 77 76 78 79 79
47 51 71 65 84 68 55 68 57 49 48 52 56 62 68 71 68 68 72 69 67 63 57 54 54 55 58 62 63 64 65 72 74 76 77 75 81 82 86 84 77 78 74 80 77 75 82 81 82
48 54 50 73 76 74 72 58 54 61 60 58 58 63 75 74 75 71 68 64 65 68 67 58 57 58 62 66 72 74 73 70 74 75 80 86 85 79 88 80 80 83 87 80 79 82 72 81 83
42 42 52 71 64 72 71 69 71 64 63 61 68 69 74 72 71 66 60 60 62 63 69 62 52 49 51 55 64 59 61 64 71 80 80 83 87 80 78 81 81 75 73 68 75 79 77 83 88
46 50 62 63 75 74 86 72 58 57 59 60 69 73 72 74 69 63 60 57 52 48 47 44 45 43 48 53 57 60 65 68 72 77 82 87 80 77 77 72 71 72 71 74 72 70 72 82 85
46 51 48 63 56 89 88 61 55 58 54 65 73 71 74 69 64 60 57 49 41 42 41 44 42 41 47 52 58 62 66 68 72 76 78 79 75 73 71 75 77 79 75 70 67 70 76 72 68

GFSSGP_sfc_rhum_009.txt.gz
RH
56 39 24 20 17 20 20 16 24 50 63 56 57 57 66 66 63 74 76 76 77 74 71 70 87 89 88 86 87 87 85 81 80 80 78 76 75 75 74 72 74 68 62 61 61 62 62 65 69
20 22 20 22 16 15 15 17 47 51 52 49 50 47 59 75 71 90 84 83 75 77 72 66 87 90 89 88 89 87 83 80 81 80 77 75 73 71 72 72 74 65 60 58 56 57 60 65 68
20 19 18 20 23 16 17 40 45 44 46 49 68 60 64 70 76 85 79 78 76 78 73 70 89 91 90 91 90 88 87 87 86 82 76 74 71 69 70 70 70 61 56 54 55 56 61 67 70
19 17 16 18 20 19 18 42 42 42 40 39 44 56 68 70 78 82 81 78 79 78 77 87 94 92 92 91 91 91 92 92 90 84 77 73 70 69 68 67 62 58 57 59 60 63 65 68 72
19 17 18 18 17 17 17 36 42 46 46 39 40 58 72 87 80 81 83 77 81 77 74 75 95 93 92 92 93 93 93 92 90 86 82 76 73 70 67 66 63 62 63 64 66 67 68 70 72
20 18 18 16 18 20 29 33 44 41 41 43 52 61 82 87 86 85 80 79 80 78 76 75 92 93 94 94 94 94 92 91 90 88 83 77 76 73 68 68 66 66 68 70 71 71 71 71 72
20 18 18 18 26 26 40 42 52 39 44 48 48 79 93 93 86 80 80 80 79 78 81 81 75 84 96 96 95 94 91 92 91 89 86 83 82 78 72 71 71 69 70 75 75 75 77 75 78
18 17 19 27 40 45 27 50 51 41 50 40 51 80 93 83 85 81 75 77 74 83 80 79 79 76 78 79 96 95 93 92 91 88 86 83 81 78 78 76 73 74 76 76 77 80 81 82 84
18 19 27 26 33 55 30 42 28 40 43 41 41 65 68 80 82 81 83 83 87 84 81 82 80 81 86 81 83 90 91 91 90 83 85 81 60 62 62 77 82 81 82 83 84 84 86 88 82
19 22 20 17 33 34 26 28 38 42 42 45 74 84 78 82 83 84 86 84 80 82 82 86 86 87 88 76 78 76 69 64 66 64 70 64 72 68 68 76 86 84 85 86 86 86 87 78 52
21 19 15 11 16 22 25 25 38 41 42 42 68 88 84 87 82 78 75 71 69 73 78 82 87 86 86 74 73 69 68 69 69 74 72 72 72 71 66 64 60 64 70 52 55 56 53 62 57
16 16 10 13 14 17 25 25 42 35 31 38 62 81 84 84 82 79 74 73 77 82 79 83 83 83 83 71 71 70 65 68 67 69 74 75 68 70 65 54 54 59 54 57 54 50 60 57 55
16 12 11 10 10 21 14 29 36 18 44 48 65 74 78 83 79 74 66 67 69 70 71 75 77 78 77 76 73 72 74 74 77 74 77 70 64 65 58 59 53 52 49 49 49 49 49 49 47
16 10 11 11 10 10 15 13 15 28 43 58 68 69 70 68 65 58 53 55 60 60 62 71 75 72 69 73 79 86 87 87 90 93 89 80 77 67 58 51 47 48 49 47 46 49 45 43 42
11 11 12 13 12 13 13 14 21 41 44 54 64 59 56 50 46 49 45 47 51 54 60 78 81 76 77 81 82 84 90 93 90 87 86 78 70 65 57 51 53 55 50 46 45 44 43 40 35
13 16 14 12 14 16 11 14 33 42 45 49 49 50 49 49 49 52 53 40 42 52 64 76 81 81 86 87 91 92 92 88 86 82 77 55 51 56 55 49 51 47 45 42 44 42 38 40 39
20 15 17 16 27 17 19 27 47 47 51 54 51 52 50 52 52 61 69 63 63 62 74 82 84 89 92 95 95 88 75 63 63 73 62 59 57 55 52 48 52 50 45 47 43 43 44 41 38
19 18 17 18 26 35 40 53 54 56 51 56 54 57 55 57 62 68 73 79 85 84 85 87 86 88 90 92 80 74 61 60 59 60 56 50 43 49 48 48 52 45 42 44 42 46 42 45 46
17 17 19 25 39 48 58 55 56 57 54 58 58 56 58 62 64 66 75 80 81 80 78 78 78 79 76 66 64 64 61 65 64 42 49 49 48 47 51 45 45 45 44 50 48 40 41 35 49
24 28 36 41 42 45 48 56 54 53 59 58 57 58 57 60 59 62 69 73 72 73 75 76 69 61 53 52 55 60 66 54 44 44 50 49 51 46 44 49 45 48 44 54 54 49 39 43 57
32 31 37 39 44 42 43 49 57 54 56 57 57 56 56 54 56 57 64 70 73 65 64 59 55 54 52 57 55 53 54 53 46 42 41 44 46 40 43 50 50 52 52 50 57 56 53 45 50
35 31 41 47 40 40 37 35 54 57 59 57 56 56 56 49 45 44 46 48 50 52 52 48 48 45 47 51 47 52 45 46 52 44 42 42 49 47 44 48 54 57 56 61 58 52 56 52 47
36 40 37 34 34 36 41 37 46 54 61 56 54 54 51 46 42 42 42 41 42 48 50 51 50 48 50 52 54 49 53 52 45 46 50 52 52 53 50 52 58 61 56 62 60 56 51 45 43
40 39 41 44 40 47 40 37 42 55 52 53 51 53 51 47 46 46 47 44 46 49 55 52 46 46 49 51 54 56 54 49 46 50 52 51 51 51 55 54 60 62 60 57 54 56 54 48 45
36 40 50 50 58 50 47 46 37 39 44 45 49 48 51 51 52 51 46 46 48 51 51 46 43 46 48 51 50 52 52 54 55 55 52 55 49 47 53 62 64 58 57 59 54 50 52 48 41
38 39 57 62 64 46 47 52 35 40 37 40 41 45 52 53 56 50 49 48 46 47 46 46 45 46 48 50 49 47 42 36 34 39 40 40 43 46 60 64 62 63 62 59 62 54 52 55 51
36 40 41 60 61 56 46 43 37 46 43 47 50 51 53 54 55 52 52 51 49 45 51 48 36 33 35 39 39 42 40 41 40 44 43 41 51 55 67 66 62 64 59 60 55 54 56 55 57
33 37 43 51 60 54 44 52 42 53 47 48 53 52 56 56 56 54 48 52 51 50 43 41 32 31 35 35 38 38 40 41 44 45 46 49 53 62 68 64 64 58 60 52 56 52 53 55 53
38 42 53 48 56 47 52 37 44 46 44 48 47 53 57 58 55 48 46 46 51 40 34 34 33 30 32 33 40 42 41 45 46 46 48 50 57 59 63 63 58 58 56 54 54 53 50 52 53
35 39 42 52 49 66 66 40 43 48 43 49 51 57 57 56 48 44 42 40 37 34 32 36 32 30 32 36 40 41 45 47 48 49 50 56 56 58 59 60 59 60 63 59 50 49 44 50 52

GFSSGP_sfc_rhum_012.txt.gz
RH
49 20 9 12 13 13 14 13 21 40 46 40 42 45 52 50 53 67 56 50 49 55 59 57 88 88 86 86 87 86 85 80 79 78 75 74 73 72 72 71 72 64 60 57 56 56 57 58 62
11 10 12 11 12 14 12 11 20 38 36 33 40 40 43 44 52 63 59 58 54 56 58 53 89 88 88 88 88 86 82 80 80 76 74 72 71 71 71 69 71 62 56 53 52 53 55 60 65
10 11 11 10 9 12 10 16 32 33 30 29 45 46 55 53 47 58 67 62 58 58 57 58 89 88 88 88 87 88 87 87 83 78 72 70 68 68 67 67 65 56 55 54 54 56 59 65 69
8 10 10 12 13 10 13 25 29 30 28 29 48 51 50 47 62 65 64 66 73 69 60 83 89 87 86 87 88 91 91 91 87 82 73 69 66 65 65 64 59 59 59 59 59 61 64 68 71
9 10 12 13 13 10 10 25 25 28 25 30 31 44 46 56 60 62 75 80 80 65 65 68 92 85 86 88 92 92 92 91 87 83 77 72 67 63 64 64 63 64 65 64 65 66 67 69 71
10 11 12 14 14 15 12 23 28 31 24 32 31 36 45 67 64 70 68 65 63 57 63 63 84 86 88 93 93 92 91 90 89 84 78 73 70 67 66 66 67 67 68 69 68 69 70 71 73
12 10 12 12 20 25 24 29 39 49 36 34 34 47 80 78 68 68 65 60 63 58 64 63 60 73 96 94 94 92 90 90 88 85 82 77 75 72 69 70 69 68 68 70 71 72 74 76 79
11 10 12 17 24 37 31 27 25 44 37 31 34 49 88 68 64 66 66 63 67 68 62 67 64 62 65 66 95 92 90 89 88 83 82 81 77 71 72 68 71 72 72 73 74 76 79 81 83
12 10 12 23 29 33 29 28 26 32 34 35 35 40 47 65 59 60 72 72 73 70 68 66 58 57 57 53 72 87 90 87 86 77 80 72 39 42 45 73 78 78 81 80 81 82 84 84 82
13 12 13 17 24 28 27 21 36 44 38 40 48 50 60 60 63 67 66 72 75 71 70 70 72 75 67 50 55 54 46 40 43 45 50 40 52 50 52 66 82 77 80 77 74 75 79 74 29
13 12 14 20 18 18 20 20 18 34 33 32 50 57 68 62 63 68 66 62 55 64 68 71 80 82 62 51 46 39 39 43 48 58 55 51 53 52 44 40 37 41 55 34 38 36 30 40 38
15 12 11 17 20 19 18 17 27 24 22 26 42 54 68 66 70 56 52 42 44 52 54 72 74 75 59 45 39 43 42 46 48 51 57 58 53 53 48 38 39 44 37 41 35 31 40 40 37
14 11 9 9 14 18 19 24 24 21 28 33 42 50 55 54 46 39 36 36 39 42 47 55 55 57 58 52 48 49 50 52 59 57 65 67 64 65 51 46 40 38 34 34 34 32 31 32 30
12 9 8 8 14 13 18 22 19 22 32 37 45 43 46 47 40 38 37 36 38 39 48 55 53 54 51 52 56 56 57 68 71 73 78 79 89 89 55 43 37 35 35 32 30 33 29 28 30
9 10 9 9 13 13 11 11 21 31 34 38 38 40 42 41 38 33 31 32 32 36 44 55 60 55 56 62 64 75 83 89 72 64 72 78 79 70 52 43 44 36 37 34 31 31 30 29 26
9 10 12 11 10 11 10 13 24 34 34 38 38 41 42 38 34 36 36 31 29 33 47 58 62 59 65 79 91 91 91 73 65 66 70 56 46 54 55 48 39 37 34 31 31 32 29 29 30
12 10 11 12 15 11 9 12 26 36 32 33 36 37 37 38 38 41 40 34 32 35 48 59 66 69 75 82 96 92 70 61 57 57 51 51 42 40 39 35 38 37 32 35 33 31 35 31 30
12 10 9 10 18 10 12 22 25 37 33 33 32 34 36 36 41 46 48 47 45 44 51 63 74 77 74 77 73 62 47 42 40 38 35 36 34 38 36 36 40 33 30 30 32 37 32 33 35
10 11 11 15 26 22 23 22 26 33 36 38 35 35 36 38 44 49 56 57 58 60 61 68 73 70 61 53 49 44 43 43 40 34 39 38 36 35 37 30 33 35 34 40 40 35 35 32 35
12 12 17 24 28 25 24 28 30 30 36 36 36 37 38 43 44 52 55 57 58 60 61 61 60 58 49 43 38 38 43 39 34 35 38 35 35 31 31 39 35 37 34 39 44 43 37 29 33
18 16 23 18 27 25 23 28 31 37 36 38 38 36 39 41 48 54 56 58 57 56 55 47 43 41 40 43 41 42 42 39 35 32 30 35 37 33 34 39 40 41 38 34 44 44 47 41 35
22 21 21 27 22 20 24 19 31 35 40 40 42 42 43 45 45 43 44 45 42 44 43 40 40 39 39 36 36 41 34 34 37 34 34 32 42 42 38 38 43 43 40 42 43 38 46 42 37
25 25 25 24 21 24 25 22 31 36 39 42 43 43 42 40 37 35 33 34 34 40 40 39 36 36 38 39 40 37 40 36 34 36 42 41 40 40 38 39 42 44 42 45 50 48 43 40 41
26 26 26 25 24 33 22 23 19 33 31 37 40 39 39 36 32 29 30 32 34 38 42 42 38 37 38 39 42 45 44 41 38 39 36 30 27 25 26 26 42 46 47 51 46 47 48 46 40
25 25 30 30 38 36 32 29 20 22 28 31 39 35 36 35 33 34 34 32 36 42 42 38 36 37 39 40 39 40 39 34 28 27 24 26 22 23 27 33 38 43 49 48 49 50 53 42 38
26 24 29 37 42 23 33 27 17 26 24 28 32 30 32 34 35 33 33 35 38 40 38 38 36 35 34 32 28 27 26 22 21 25 27 26 27 28 35 41 43 48 52 52 57 51 44 43 40
28 30 28 41 47 42 23 25 24 29 28 29 31 30 32 33 36 36 37 37 38 39 42 36 29 25 26 27 30 31 28 31 31 33 33 29 32 28 37 48 51 54 57 56 51 44 42 40 39
24 24 34 36 50 40 22 28 20 33 33 31 31 33 32 32 36 39 38 40 37 37 34 33 25 25 26 28 28 27 29 31 33 34 35 35 36 36 40 46 51 58 64 58 44 40 35 36 35
29 27 29 27 40 29 27 16 26 29 30 34 32 32 32 36 39 40 38 38 37 33 30 28 26 28 30 24 28 31 32 32 33 34 35 36 40 37 39 43 48 58 55 44 45 47 34 34 36
25 24 22 30 34 46 53 22 25 31 30 29 30 31 32 37 39 37 36 38 37 32 27 28 28 27 24 25 29 30 31 32 34 36 35 40 41 42 42 43 47 51 48 45 49 44 32 34 37

GFSSGP_sfc_rhum_015.txt.gz
RH
41 21 10 6 11 11 12 10 9 28 35 35 36 32 38 44 53 65 40 48 50 51 49 57 90 88 87 85 87 87 84 80 78 76 74 72 70 71 70 70 70 62 56 54 53 52 53 61 65
18 9 6 8 12 12 10 8 10 33 44 30 30 33 33 45 43 56 53 50 48 54 56 55 91 89 88 88 88 86 82 79 76 73 71 70 69 68 68 67 68 59 55 52 50 51 59 62 64
12 6 7 8 11 12 11 10 27 30 27 30 34 30 32 38 40 47 43 46 53 58 55 64 89 87 86 86 87 88 87 85 80 76 70 68 66 64 65 64 62 60 58 57 55 57 62 67 70
8 6 8 13 14 10 9 19 31 25 24 25 28 41 37 37 38 40 47 59 58 66 60 87 90 87 84 84 87 89 90 88 84 79 70 66 62 61 62 63 63 61 60 58 58 62 65 69 74
7 6 9 11 12 10 8 21 24 41 40 26 23 35 32 40 39 45 50 60 74 82 79 70 91 88 81 84 86 91 90 88 85 78 74 67 61 60 62 65 66 66 64 63 64 66 68 71 73
6 7 10 12 12 10 9 19 28 28 27 25 32 28 34 35 41 51 70 76 90 87 72 73 89 85 83 86 91 93 91 89 86 80 74 67 66 66 65 66 66 66 67 67 68 70 71 73 74
8 8 10 11 13 16 14 26 43 35 50 24 48 32 46 43 45 59 90 66 89 84 77 68 67 73 95 94 93 92 90 89 86 81 77 72 70 70 68 68 67 67 67 68 69 70 73 74 76
7 8 10 10 18 51 22 22 24 23 36 59 27 39 49 45 53 60 72 79 77 88 70 69 68 59 65 71 93 92 90 88 85 79 75 75 73 68 66 67 70 71 72 74 76 77 78 79 79
8 11 10 11 23 30 19 19 20 23 30 44 31 29 42 51 55 59 65 72 73 72 70 66 64 62 63 66 79 85 88 86 82 76 74 69 42 42 46 71 74 75 77 76 76 75 77 79 80
8 9 9 19 50 25 21 23 24 27 29 35 37 34 40 46 51 58 59 65 65 66 68 70 63 57 50 39 50 44 40 37 41 44 44 36 47 44 39 58 70 72 73 72 71 69 72 74 29
8 12 12 21 15 19 21 24 18 28 55 31 40 45 42 50 53 50 52 46 45 55 64 63 70 65 43 43 37 33 34 41 48 51 46 47 44 45 42 40 36 40 55 34 39 37 31 38 36
11 10 11 17 12 13 15 15 21 64 74 61 31 38 38 46 57 44 37 32 35 42 58 70 69 60 44 36 32 36 38 41 40 45 47 50 44 48 47 38 40 41 36 39 36 34 38 36 33
12 12 12 13 16 15 19 35 20 24 21 24 36 41 37 40 36 31 28 28 33 37 45 54 54 48 48 42 41 46 54 55 57 62 66 63 56 61 58 68 48 40 36 36 36 34 32 32 32
10 11 9 11 13 15 18 16 14 20 19 27 32 28 28 29 27 26 26 28 30 33 40 44 43 46 42 47 56 54 53 55 56 61 62 60 59 66 68 54 46 44 47 37 34 33 33 31 30
9 10 10 13 14 15 18 12 18 22 21 26 25 25 27 26 24 25 25 28 29 32 39 45 49 45 47 52 57 70 88 84 67 57 67 69 64 68 70 54 55 58 47 40 37 36 31 28 26
10 10 15 13 13 13 12 14 18 19 21 24 24 26 27 28 25 23 24 24 25 30 42 46 45 48 54 60 70 85 83 70 64 61 64 55 50 58 54 50 45 37 33 32 33 31 30 32 30
11 13 13 13 10 12 10 13 19 17 21 24 26 30 30 30 28 30 29 25 24 28 40 50 54 56 61 67 77 65 62 50 51 52 44 47 39 37 40 34 37 39 32 33 33 34 36 34 32
14 11 10 12 10 9 7 13 17 17 18 24 24 27 29 31 30 33 33 30 28 30 41 51 56 73 68 68 62 53 50 46 42 38 35 34 32 36 36 33 40 37 32 33 37 44 38 36 32
10 9 8 8 10 9 9 13 13 18 18 20 21 24 27 29 32 36 39 41 38 41 44 69 71 77 65 55 51 46 42 40 39 33 36 36 34 32 37 33 34 36 36 39 41 40 42 31 30
9 10 12 12 12 16 11 13 14 18 19 20 21 22 24 28 35 40 43 46 47 49 50 71 63 62 50 40 37 36 37 38 32 33 37 34 36 32 32 41 39 39 38 41 40 40 40 34 32
11 10 16 14 15 14 13 17 21 19 19 24 22 22 23 30 36 43 46 48 51 54 56 55 49 45 38 36 38 39 40 37 33 33 31 36 38 35 36 39 40 43 40 35 41 40 45 40 36
18 14 13 14 19 19 13 18 19 23 25 26 27 27 29 30 35 41 45 48 47 48 44 40 37 36 38 35 32 34 32 34 37 34 34 35 36 38 34 33 38 41 39 40 38 31 42 44 40
26 17 17 16 16 19 16 16 42 23 23 26 27 28 30 34 38 38 37 36 36 39 39 38 34 31 33 35 37 36 38 35 34 35 37 35 30 26 22 23 29 34 38 42 45 47 46 41 42
19 20 20 18 17 30 16 17 20 23 20 24 28 31 34 35 33 29 30 31 34 36 39 38 34 34 36 38 41 43 41 36 32 30 25 22 21 21 23 23 32 34 37 44 43 45 47 55 54
17 21 27 25 30 32 18 19 17 14 18 19 28 31 33 33 29 27 28 28 33 39 41 38 35 36 38 38 36 35 31 28 26 25 23 26 24 24 27 32 36 36 37 40 43 56 58 61 50
20 18 28 31 31 18 20 21 14 17 15 17 23 28 32 31 28 26 28 30 34 39 38 35 34 35 33 30 27 26 25 30 23 26 27 26 26 27 31 33 39 41 41 53 60 62 65 57 44
18 26 18 28 31 34 18 12 14 20 20 20 25 28 31 29 27 28 28 31 35 37 38 38 33 28 26 28 29 32 36 32 29 30 31 28 30 26 30 36 38 40 52 58 59 65 55 54 44
22 17 27 24 37 36 16 17 13 23 23 23 26 29 29 27 27 28 30 34 35 35 36 35 28 25 29 29 32 34 31 29 30 31 32 32 33 33 34 35 36 38 56 52 61 48 40 44 40
24 22 21 23 32 35 26 17 15 15 20 23 24 26 28 28 28 30 32 34 34 36 34 31 26 29 28 27 29 32 30 30 30 31 32 33 35 34 34 36 37 38 38 43 47 44 46 52 40
21 21 21 36 29 33 44 23 15 18 19 21 22 23 25 26 26 30 33 35 35 35 31 29 30 29 27 26 29 29 29 28 29 31 31 34 35 35 35 37 37 36 37 44 45 46 42 43 37

GFSSGP_sfc_rhum_018.txt.gz
RH
43 25 18 14 11 15 15 11 8 18 36 32 28 29 41 46 58 81 59 50 54 58 66 72 90 87 86 86 88 87 85 82 79 76 76 74 71 70 74 74 70 66 56 52 51 56 56 57 61
17 16 15 9 12 16 12 9 21 38 35 29 30 29 34 57 52 64 61 51 51 55 57 68 90 88 88 88 87 85 82 79 78 75 72 72 68 66 68 72 70 67 57 54 55 58 60 63 65
33 16 8 9 12 16 12 13 24 33 30 29 33 28 29 48 50 56 55 64 53 54 53 73 89 85 88 85 85 87 85 82 79 76 69 65 63 63 64 73 70 65 58 57 58 61 65 71 79
13 8 8 14 14 11 10 18 29 26 42 29 29 36 29 31 39 52 70 78 70 63 66 89 85 82 83 84 90 89 87 85 81 78 73 64 61 62 67 75 71 64 62 62 63 66 70 80 80
12 8 10 11 12 10 10 20 31 48 56 48 53 30 33 36 40 54 67 64 81 94 93 85 92 83 82 88 90 89 88 86 83 80 74 70 63 65 70 76 73 68 66 66 68 70 76 79 80
10 8 12 12 10 10 12 26 32 43 53 56 65 29 38 39 45 67 68 82 86 90 92 88 91 87 89 91 92 90 89 87 84 80 75 72 74 74 74 75 75 75 75 75 75 77 78 78 78
13 9 10 11 11 15 33 29 33 33 42 50 47 60 69 40 55 77 79 79 92 92 91 94 93 85 93 93 92 91 89 87 86 83 79 78 78 76 75 76 75 75 76 77 78 79 80 78 79
9 10 11 10 10 43 34 50 33 31 33 33 37 55 59 71 87 87 87 91 96 93 95 92 86 85 88 83 91 88 88 86 84 80 76 76 76 73 74 76 77 77 76 76 77 79 78 78 78
6 10 13 12 25 61 45 28 20 26 36 32 49 80 47 59 77 82 92 95 94 95 91 83 82 82 85 82 83 86 85 83 82 76 73 75 63 68 68 76 74 74 76 74 75 72 72 76 77
9 13 12 35 44 64 64 45 23 24 39 39 56 83 55 56 67 78 87 91 93 93 80 82 81 80 80 57 75 75 64 64 66 60 70 65 65 59 46 67 73 72 71 72 73 72 74 76 51
9 11 9 42 45 42 49 30 26 28 34 51 86 47 52 55 58 58 63 73 69 72 71 70 77 75 60 58 60 52 56 66 69 64 64 69 66 69 68 74 67 75 74 58 65 58 53 50 55
11 8 10 28 34 34 31 30 28 27 38 46 50 42 45 50 46 46 44 58 60 64 69 68 66 69 62 53 52 56 62 69 83 84 75 82 79 78 76 72 69 67 64 59 63 59 53 51 48
10 11 10 27 36 31 30 31 35 34 30 34 43 46 41 45 36 32 31 38 48 60 69 67 68 64 61 62 69 68 66 67 71 73 74 75 78 81 80 79 70 71 66 63 61 56 51 51 48
10 11 11 16 35 19 35 25 41 37 37 46 45 33 35 34 30 30 30 37 40 50 56 60 56 62 59 69 70 65 69 77 78 76 75 74 78 83 76 74 71 68 65 59 56 55 54 52 47
11 13 11 14 14 21 22 31 22 37 37 32 28 28 28 26 24 27 31 35 36 44 50 58 66 62 67 69 66 73 84 87 76 80 83 80 80 80 77 73 69 67 64 58 56 53 52 52 42
12 14 19 13 14 16 21 19 18 21 23 25 24 25 25 24 24 26 30 31 33 40 48 53 50 60 69 74 79 89 85 75 72 74 76 67 61 66 66 64 70 62 60 56 56 57 56 55 55
14 16 18 17 12 13 14 16 16 20 23 30 27 34 27 26 25 28 27 29 33 44 50 54 63 66 76 78 86 82 74 67 66 72 66 60 52 52 60 64 66 60 60 60 59 63 64 62 54
18 15 14 14 11 13 12 16 17 16 32 27 26 27 30 31 31 32 32 31 30 45 54 61 70 74 75 77 80 69 68 65 66 61 54 49 49 52 60 63 58 55 57 60 64 66 63 65 57
14 14 14 10 10 11 10 14 16 16 18 24 27 29 32 33 31 35 41 43 45 51 60 77 83 87 73 72 68 68 67 61 60 50 52 53 48 48 54 60 59 60 61 66 60 62 59 61 58
12 13 12 10 8 10 9 12 12 16 17 21 22 28 30 31 36 39 44 48 50 55 68 77 80 84 68 62 58 57 57 60 52 54 53 53 54 49 47 60 59 62 63 64 65 64 66 62 60
12 15 17 13 11 8 22 13 13 13 16 16 18 19 22 29 38 42 46 53 58 80 75 70 71 75 66 55 50 54 54 57 54 54 54 54 53 48 50 54 60 63 62 65 66 63 65 68 63
19 19 16 15 20 21 20 26 20 28 17 17 20 22 24 27 34 41 47 61 68 70 68 61 60 53 49 51 53 58 52 54 56 56 57 52 49 48 37 42 53 57 64 65 66 51 70 68 68
23 23 19 15 15 34 38 31 37 38 38 22 25 26 27 31 35 42 45 54 54 57 60 55 49 46 47 48 55 56 57 57 56 56 53 47 44 41 37 41 55 58 59 63 67 69 67 66 75
20 22 19 15 18 58 38 42 33 42 38 30 22 26 29 32 39 42 45 45 46 50 56 55 44 43 48 53 57 62 59 52 47 46 45 41 42 43 45 44 54 59 61 63 66 69 72 76 79
15 18 30 59 57 46 18 28 44 29 33 62 54 27 33 40 42 41 41 41 45 51 53 50 43 45 51 54 52 51 48 49 50 42 43 42 42 46 51 50 56 60 61 65 72 72 74 83 85
26 16 38 83 83 35 28 30 16 23 22 42 29 29 35 38 39 36 36 39 43 48 48 46 43 45 45 45 41 44 43 45 46 45 40 45 45 48 48 53 54 57 60 68 71 78 82 83 79
15 23 17 28 69 43 21 13 16 17 18 16 27 30 36 36 34 32 32 38 43 47 50 50 42 41 38 40 45 50 47 46 48 45 45 48 48 36 49 53 54 56 59 68 72 82 84 81 79
20 16 32 31 51 46 21 18 24 23 21 21 25 32 34 34 32 31 32 39 42 45 43 53 43 36 36 42 48 45 47 49 45 46 46 44 48 48 51 53 54 56 58 63 70 75 73 63 70
22 22 21 19 40 63 56 24 17 18 19 22 23 31 33 35 32 32 32 36 41 43 44 48 39 34 39 39 45 50 46 47 47 45 45 45 49 49 48 49 52 53 53 53 60 64 62 62 70
18 24 20 64 43 55 69 34 16 18 16 21 22 24 30 31 31 30 33 38 41 43 43 42 39 36 38 40 43 44 46 44 43 44 43 46 49 49 48 50 51 51 52 55 58 63 63 65 62

GFSSGP_sfc_rhum_021.txt.gz
RH
70 55 44 34 29 30 31 21 24 51 55 48 36 58 73 75 78 87 84 80 82 84 83 83 88 87 87 88 88 86 84 80 77 76 77 75 72 68 72 72 68 64 57 56 56 57 58 61 64
38 23 30 35 21 28 25 18 56 50 45 38 36 43 57 76 70 85 88 79 78 83 79 81 89 88 89 88 87 83 79 78 77 75 73 72 68 65 69 74 71 66 59 58 59 61 63 66 70
45 32 36 23 22 23 22 32 51 42 44 37 40 35 47 75 71 73 69 72 77 77 78 83 88 87 88 89 86 84 82 80 77 74 70 66 64 68 69 74 70 66 60 61 62 63 66 71 79
28 23 16 21 22 18 15 34 44 47 53 49 52 46 44 57 61 71 74 74 73 80 83 85 84 83 88 89 87 86 84 82 78 73 70 64 66 69 72 75 71 64 63 63 64 66 70 79 79
30 24 20 21 18 15 18 44 50 62 62 56 57 46 51 65 76 81 79 91 91 91 91 84 87 84 86 88 88 86 85 83 78 75 73 72 69 69 74 78 74 68 67 67 69 71 77 78 78
33 18 23 20 13 20 48 52 49 53 58 58 55 61 69 74 90 95 93 96 94 94 92 92 93 94 91 90 89 87 86 84 79 78 76 75 77 78 78 78 78 76 76 77 77 78 77 77 77
28 24 21 16 13 27 61 58 50 56 62 57 59 71 81 96 87 93 94 95 91 91 94 96 94 94 92 90 90 88 87 84 81 80 79 79 79 79 79 79 79 78 78 77 78 78 75 75 76
19 21 22 17 16 65 54 55 59 44 56 47 52 67 86 96 87 88 88 92 95 95 97 95 98 89 90 83 88 87 85 81 79 78 78 78 78 78 79 78 77 75 73 72 75 71 72 75 74
19 20 18 25 58 58 59 58 51 41 48 53 69 79 86 86 85 84 89 94 96 95 93 90 96 92 91 86 81 82 83 80 78 76 76 80 74 73 74 79 76 73 72 73 73 71 73 77 72
20 23 20 46 59 61 49 45 54 46 59 76 57 70 85 87 88 88 89 91 95 92 97 94 90 91 88 64 83 85 75 77 73 69 72 69 74 75 66 76 78 74 77 73 70 70 79 69 58
18 17 42 48 47 52 58 51 48 42 72 71 72 73 84 91 82 88 90 84 88 92 92 87 88 87 75 68 75 73 73 79 78 74 74 74 75 76 79 79 80 72 77 67 67 60 56 51 55
18 12 21 38 42 43 56 45 37 39 60 58 63 68 73 63 88 88 87 85 91 86 79 83 80 79 67 71 72 72 78 83 95 88 79 86 91 88 86 82 82 77 76 69 63 63 53 52 50
14 15 33 38 48 44 36 36 37 40 50 58 67 68 65 62 66 79 78 77 79 81 78 78 80 64 65 70 75 74 81 84 81 82 82 87 83 87 84 84 80 72 69 59 58 60 55 55 48
14 14 33 36 43 40 30 36 42 42 44 52 54 63 53 43 47 64 69 76 77 78 83 81 75 67 71 74 75 82 86 86 87 92 90 88 91 87 84 75 68 66 66 65 62 58 61 56 51
15 15 17 36 40 37 32 48 47 41 38 50 53 49 51 38 39 46 61 68 71 74 73 80 70 78 78 77 82 90 93 92 93 92 88 87 84 80 78 74 76 70 65 62 58 62 62 62 53
18 22 27 21 28 33 30 45 39 43 44 56 45 41 39 36 37 42 44 58 60 61 65 66 59 82 83 90 91 95 94 89 86 84 81 75 71 72 72 76 69 64 66 67 68 69 66 67 64
24 24 24 22 17 24 25 32 40 46 46 43 44 40 36 37 39 41 41 48 56 59 63 64 74 86 89 92 94 92 89 84 82 84 74 62 59 60 71 72 65 60 67 72 66 69 72 71 65
28 23 21 23 20 19 25 28 45 48 48 49 52 53 51 40 43 39 40 48 52 63 72 67 82 87 93 94 95 95 87 82 82 76 66 57 56 55 68 69 70 68 68 70 66 67 64 70 65
18 19 20 17 15 20 24 27 30 49 50 53 55 68 52 46 44 41 46 48 64 70 66 81 86 91 90 94 96 92 82 79 71 62 57 58 58 58 64 66 67 67 69 70 69 67 65 66 70
23 23 23 16 13 15 22 26 24 50 61 52 60 54 50 46 49 49 54 60 68 78 88 89 85 87 82 79 80 78 75 72 65 64 62 58 60 56 59 64 66 66 66 68 68 68 70 73 70
25 30 23 19 14 15 23 25 25 22 23 35 48 47 43 48 53 55 59 70 84 94 94 90 85 80 81 81 69 67 64 66 66 67 64 60 57 53 53 56 58 63 70 72 71 71 71 73 69
23 25 28 23 28 29 27 41 39 32 28 25 35 50 43 47 50 56 65 88 94 95 94 88 83 86 84 71 59 52 60 66 73 72 69 56 44 41 40 50 56 59 65 62 75 64 75 76 78
26 24 29 28 31 38 34 34 42 41 27 28 33 34 41 47 52 60 71 83 84 82 79 89 83 71 63 62 68 63 63 67 64 58 47 41 46 43 44 50 52 58 69 69 71 77 80 84 86
23 29 35 36 37 61 40 45 52 44 26 33 33 31 37 50 60 64 69 68 70 71 66 55 55 62 61 61 66 63 61 49 47 46 48 45 49 54 51 46 57 63 66 72 82 79 80 88 86
31 32 55 54 76 72 43 44 44 37 31 35 35 32 44 56 62 66 71 72 70 63 54 56 60 64 59 54 48 48 50 46 43 44 51 48 48 53 51 53 58 62 68 77 78 81 88 87 87
37 35 63 70 93 61 49 49 36 26 28 32 35 42 52 62 60 60 59 64 67 61 59 59 60 61 59 52 48 46 43 51 49 49 48 52 52 54 54 54 57 58 63 75 79 86 89 85 90
30 40 35 72 75 87 57 32 26 33 43 46 46 47 59 60 60 54 56 58 62 63 62 62 60 57 48 47 49 48 48 51 51 49 49 54 54 40 53 56 56 59 60 71 79 87 82 89 89
28 28 45 60 66 62 38 36 47 36 35 38 55 50 54 51 49 48 50 56 57 59 61 63 58 47 49 52 54 50 50 52 50 52 52 49 53 49 54 55 58 58 58 62 80 82 82 77 78
34 34 32 35 63 70 79 46 27 29 32 33 46 46 49 47 43 43 47 51 55 56 61 63 55 47 50 49 52 54 52 53 50 51 52 49 52 50 50 53 55 57 60 63 65 67 66 70 75
25 41 48 69 45 76 79 54 24 22 25 28 31 41 46 43 41 41 45 52 56 56 57 63 49 46 47 51 53 52 54 48 49 49 48 55 52 52 51 52 55 59 59 59 60 66 66 71 64

GFSSGP_sfc_rhum_024.txt.gz
RH
75 61 46 37 33 32 36 24 18 41 56 50 61 69 83 82 86 79 82 88 89 87 89 87 89 88 89 89 88 84 81 79 75 74 75 73 70 70 72 70 69 67 60 59 58 58 58 61 66
51 33 34 39 26 27 23 21 47 60 51 46 40 60 76 89 84 93 90 85 87 88 85 82 89 89 90 88 86 81 76 75 75 73 69 70 68 69 72 72 70 69 61 59 58 58 60 65 73
43 35 50 41 28 24 22 33 62 59 49 44 43 42 66 88 87 81 83 87 86 87 81 85 90 90 89 87 84 82 80 79 77 73 68 68 68 67 69 73 71 68 61 59 59 61 66 73 79
36 26 27 21 22 20 17 22 61 55 48 53 50 55 60 77 74 80 79 85 87 87 83 90 91 90 88 86 84 83 80 78 76 73 73 69 68 68 72 74 72 64 62 62 63 65 70 77 79
36 26 24 31 19 35 57 58 61 68 76 68 54 60 74 88 81 82 83 84 90 90 86 83 91 88 87 86 84 83 82 79 76 75 76 75 72 71 76 77 74 70 66 66 66 69 76 76 79
37 24 24 24 17 50 57 68 57 66 66 61 61 75 94 90 86 95 92 93 94 93 89 87 90 90 89 86 86 85 82 79 78 78 78 77 78 79 79 79 79 77 76 76 74 74 74 73 75
41 34 35 25 21 22 57 61 59 60 57 63 62 79 94 94 91 94 96 98 98 98 97 95 92 91 90 90 89 87 82 80 80 80 79 79 81 80 79 79 78 77 76 73 69 70 72 71 72
29 25 27 21 24 63 56 56 57 51 64 52 69 79 90 92 93 91 94 96 94 97 94 97 89 91 90 86 89 86 82 82 81 80 81 81 81 80 80 78 76 74 71 69 66 70 70 70 75
18 25 25 20 63 55 58 62 52 46 58 56 74 87 87 88 87 91 96 97 97 97 96 90 97 93 92 85 81 83 80 79 79 79 80 82 79 77 77 77 75 71 73 73 68 70 76 79 72
24 26 23 37 63 63 54 62 50 55 63 62 93 93 86 79 82 88 91 96 97 96 97 93 96 96 90 68 87 88 74 75 74 72 76 72 75 76 72 79 76 75 73 74 74 81 68 62 60
23 24 35 50 52 53 54 53 50 65 80 64 92 88 85 85 82 81 88 82 87 91 87 90 97 86 86 72 84 83 81 81 77 71 74 79 79 85 86 84 87 82 72 65 62 56 55 54 59
22 16 33 45 50 52 53 48 43 46 63 58 88 85 87 84 86 78 84 86 85 91 85 86 94 88 85 75 80 77 82 92 95 90 85 86 91 87 84 83 83 74 70 64 65 64 58 54 50
19 24 38 41 42 42 43 44 48 66 60 63 76 84 88 89 84 72 76 80 89 89 90 87 84 86 80 81 81 87 92 87 88 88 86 89 90 88 87 80 74 71 66 63 62 61 56 56 51
19 34 38 45 36 35 36 44 45 62 60 65 72 81 89 83 82 74 79 83 86 82 82 84 86 79 76 84 88 88 88 90 95 96 95 90 90 86 80 74 70 70 70 66 64 62 63 63 57
21 34 43 48 42 38 38 40 46 52 61 68 65 67 70 85 76 75 77 83 80 77 78 88 81 83 80 89 85 90 94 94 95 95 92 88 82 82 77 76 72 70 71 66 67 67 68 67 56
21 21 44 42 45 36 33 47 46 49 57 68 66 65 58 76 75 73 74 80 78 78 83 81 72 82 86 88 88 94 92 90 87 87 86 80 77 76 78 70 68 72 73 70 72 73 69 71 65
29 27 27 40 38 36 39 40 40 47 53 64 58 55 49 64 69 68 71 73 74 74 77 79 85 85 90 89 94 95 91 86 85 86 78 70 68 73 76 73 74 73 72 74 68 72 72 72 66
30 25 28 26 22 37 32 38 54 50 54 53 54 56 49 51 54 63 68 70 68 72 77 81 84 91 91 94 96 97 94 88 86 80 72 62 64 71 72 73 72 70 69 70 69 60 64 69 72
24 28 24 22 19 24 28 57 55 56 52 49 56 59 58 47 44 51 64 66 67 81 76 86 90 94 87 93 96 97 91 89 82 70 64 65 66 64 68 73 70 71 69 72 68 69 67 68 74
35 28 28 23 18 19 32 51 58 54 44 42 55 62 60 57 48 49 57 66 72 79 80 88 86 91 79 76 96 90 84 76 70 69 67 64 64 61 62 70 72 70 69 69 69 71 75 79 74
34 30 32 28 16 21 24 32 64 53 54 49 52 50 47 47 49 59 61 70 76 80 92 91 91 88 85 78 89 80 74 74 71 72 69 66 64 56 57 58 60 62 65 67 74 77 72 75 78
36 24 28 26 28 26 32 40 38 41 51 51 49 57 46 54 49 60 77 84 82 88 96 91 88 83 87 88 78 70 63 62 73 74 74 57 47 51 51 54 59 64 69 68 75 74 83 81 83
28 30 29 31 34 41 35 36 34 39 35 49 51 51 48 47 52 66 92 89 90 96 94 93 92 94 92 76 69 66 71 77 79 71 50 49 52 54 52 55 61 68 74 76 83 86 87 87 89
25 31 38 47 47 64 52 43 42 44 28 28 39 47 48 51 62 74 89 90 95 94 95 97 92 79 77 74 73 71 66 61 55 54 53 55 60 60 53 56 61 65 74 82 83 84 86 88 88
30 37 50 50 73 66 49 50 42 35 35 31 33 40 43 56 73 81 90 94 94 95 91 70 62 66 66 66 67 56 48 45 44 48 54 55 53 54 57 59 62 67 76 80 82 86 88 88 90
38 37 59 52 80 57 56 60 40 30 30 35 36 48 68 72 72 80 84 85 85 78 66 63 54 57 52 51 51 49 49 52 51 50 52 56 56 56 54 55 58 61 63 77 84 89 91 88 91
41 42 40 72 83 82 65 46 32 39 45 41 52 56 76 82 81 78 77 73 73 66 73 65 54 49 45 49 49 49 52 53 54 51 53 57 54 48 58 59 59 60 59 63 79 91 87 87 89
40 30 47 64 73 77 46 43 48 43 42 47 57 54 72 74 71 70 67 67 59 59 63 67 56 47 48 52 52 49 50 50 53 54 54 54 52 51 54 54 57 58 61 67 75 89 85 84 82
41 38 39 46 63 64 74 48 30 38 38 35 48 54 65 65 63 64 63 61 58 59 63 63 54 47 46 46 54 54 52 53 53 54 54 56 53 52 51 54 55 55 62 62 64 66 70 75 78
39 37 43 67 45 81 82 52 31 29 32 39 49 50 59 57 56 55 58 61 63 62 65 62 54 46 43 48 54 52 52 54 52 54 52 59 54 56 54 54 54 58 63 62 62 65 67 75 71

GFSSGP_sfc_rhum_027.txt.gz
RH
75 60 47 37 32 35 37 27 22 21 62 66 68 74 92 97 82 77 86 89 85 88 89 89 89 90 90 88 85 83 80 74 71 70 73 70 70 69 73 72 71 68 61 57 57 58 59 64 72
51 38 37 34 28 30 24 22 22 54 62 66 57 69 88 92 82 94 90 88 81 86 87 87 89 89 89 87 84 81 75 72 71 68 69 69 70 69 73 74 72 69 63 57 58 60 63 67 74
44 38 50 38 31 26 24 24 68 66 62 59 55 58 77 93 84 86 87 84 84 88 84 86 90 90 88 85 82 80 79 78 75 73 68 67 69 66 71 75 72 68 60 59 60 62 66 75 78
40 34 26 24 24 19 19 29 58 62 58 57 59 66 81 87 86 85 90 87 88 91 86 92 92 90 86 85 84 83 81 79 76 76 74 70 68 66 72 76 72 66 62 61 61 64 73 80 77
36 27 26 25 21 24 63 65 68 68 71 69 66 88 92 91 86 86 90 89 93 94 92 92 92 89 86 84 83 83 82 80 78 78 77 75 74 72 78 77 75 72 66 64 64 70 75 78 77
40 26 27 25 20 31 64 73 63 71 70 62 72 90 93 92 93 95 95 96 96 96 92 89 88 86 84 84 85 85 83 80 81 80 79 78 79 80 80 80 79 78 76 75 73 72 73 76 78
40 38 37 26 26 24 63 67 60 65 68 64 62 93 95 95 96 94 94 93 96 97 98 98 92 87 89 89 88 86 83 82 84 83 82 82 83 82 80 79 78 77 74 73 72 73 74 79 79
38 31 33 26 22 54 59 57 59 59 69 62 67 96 98 96 95 94 92 94 95 97 97 97 97 93 93 82 87 85 83 84 85 85 85 84 83 82 80 79 77 73 69 71 73 75 77 75 80
24 32 30 25 48 53 61 67 61 56 62 88 90 93 94 95 91 94 95 94 96 96 97 96 95 98 95 89 84 83 82 83 84 82 81 85 85 83 77 79 74 71 72 73 76 74 76 70 76
29 32 27 21 56 58 58 60 54 58 73 92 96 94 92 90 91 95 94 96 95 96 95 94 93 95 92 72 88 84 74 80 80 80 79 77 81 82 77 80 75 77 79 75 75 70 68 62 62
29 28 22 47 56 57 52 56 50 66 77 86 93 92 92 90 89 92 93 93 93 92 90 94 96 97 91 79 90 88 83 81 78 76 76 80 82 89 84 85 86 72 69 61 59 56 55 54 57
28 20 34 41 50 55 58 50 44 64 74 82 79 85 87 86 88 88 91 93 92 90 81 86 97 96 93 85 86 85 85 90 94 84 85 90 89 85 83 82 79 70 70 68 67 67 59 57 54
22 19 24 43 50 52 48 48 53 74 88 80 77 81 86 87 85 76 76 81 86 85 79 83 93 96 90 84 84 90 97 93 94 92 90 92 89 89 84 77 75 70 68 67 66 62 60 58 55
22 36 48 48 47 40 46 52 51 66 91 85 83 77 68 80 82 78 84 90 91 82 83 86 94 95 87 89 94 97 92 93 95 96 94 89 89 82 76 75 72 75 70 68 68 67 67 64 56
30 48 48 48 46 42 47 52 60 56 78 92 83 82 74 81 80 76 77 84 85 86 82 92 96 87 90 92 92 92 96 96 97 97 91 86 83 80 78 75 75 76 72 69 69 70 69 66 54
24 34 37 40 44 44 38 48 54 64 70 83 88 88 84 84 79 74 71 78 81 82 86 92 80 88 94 92 94 96 93 94 95 97 94 85 76 78 74 74 78 76 73 72 73 71 70 70 64
30 30 35 40 42 41 40 49 50 60 65 75 76 85 88 88 81 72 67 78 84 84 86 86 90 91 93 90 94 94 89 86 87 87 82 76 76 72 74 77 78 74 72 74 66 71 70 70 68
39 31 31 35 38 49 47 41 57 61 70 73 71 68 79 87 80 70 72 77 84 90 90 90 90 94 92 95 97 97 93 90 89 80 73 68 76 73 76 76 77 74 71 70 67 63 68 76 77
33 36 35 28 22 42 45 38 57 62 67 71 71 68 66 78 69 70 72 80 88 91 91 92 94 94 89 94 96 98 96 95 88 78 68 72 72 70 73 75 74 73 72 73 70 73 69 77 76
33 37 35 28 23 26 36 47 68 64 61 62 61 68 55 67 64 71 78 84 85 84 89 93 90 93 84 82 96 94 91 88 76 74 72 71 70 68 70 76 75 72 72 70 74 74 78 82 80
38 39 35 33 22 29 35 42 66 58 56 54 50 57 53 55 58 62 75 82 82 84 89 91 90 90 84 88 94 90 80 75 74 75 75 72 70 64 62 62 64 65 66 69 75 80 75 78 82
41 32 30 32 28 30 28 36 41 62 58 54 51 58 60 51 50 54 68 79 80 84 90 90 90 91 88 88 88 82 85 69 76 76 78 56 58 58 55 59 67 72 75 73 79 80 87 83 83
33 31 33 38 37 42 44 41 39 57 60 53 45 49 60 57 48 54 60 72 77 89 94 95 94 94 90 92 94 92 88 81 81 77 58 57 62 57 56 62 67 72 78 82 83 86 87 89 89
29 37 41 51 49 60 54 46 44 51 42 42 41 41 51 57 64 78 86 83 85 93 97 98 95 95 96 88 93 89 78 79 69 60 59 65 64 64 60 57 63 64 71 82 83 87 86 89 90
34 40 48 48 68 62 52 55 44 31 34 36 38 38 48 57 70 94 98 96 96 97 98 97 97 93 91 82 88 80 72 67 58 52 58 62 62 61 60 55 59 62 74 82 83 83 88 90 91
47 40 58 48 72 53 60 64 46 36 33 35 34 40 50 65 65 89 92 95 95 95 97 95 90 84 80 78 74 62 58 60 50 49 58 59 56 58 55 57 57 59 62 79 86 88 93 91 92
43 46 43 75 86 82 60 51 30 37 43 56 57 69 73 83 82 86 93 94 97 97 94 85 72 64 65 65 55 54 53 49 52 54 52 55 58 53 58 56 58 61 60 66 73 91 91 91 91
40 38 52 68 68 70 58 49 44 40 39 56 61 66 80 89 91 92 91 91 90 85 80 71 59 54 55 52 51 47 47 49 52 54 52 52 55 55 58 58 58 60 62 67 73 90 88 83 84
43 42 45 49 66 64 74 54 35 35 38 36 44 57 77 88 88 85 82 81 78 75 74 66 57 50 50 49 53 58 57 58 53 49 52 53 54 56 56 57 59 58 63 65 71 71 68 74 80
45 45 44 68 48 84 83 57 32 30 34 39 36 50 63 79 79 78 78 75 68 69 69 65 56 50 46 56 63 55 53 56 56 55 54 58 54 60 61 62 60 59 62 64 64 66 64 71 78

GFSSGP_sfc_rhum_030.txt.gz
RH
76 58 47 32 32 34 40 27 25 22 78 84 79 85 96 88 82 86 90 90 84 90 89 89 90 88 85 84 82 81 79 76 73 72 73 72 72 73 73 72 69 68 65 60 61 66 68 74 79
50 37 38 33 29 32 23 24 36 73 68 69 59 79 90 93 83 94 89 92 81 86 87 89 90 88 85 84 82 79 75 75 74 72 72 72 72 72 75 73 70 68 66 59 58 58 63 69 79
42 42 42 34 32 27 24 22 77 70 66 59 56 64 88 96 87 90 89 89 87 87 88 89 91 88 86 84 81 78 77 76 75 73 70 69 70 70 72 74 70 69 66 58 58 60 65 74 79
41 39 23 24 29 22 20 21 68 67 64 62 64 81 93 92 94 90 88 88 91 92 91 94 91 88 85 83 81 81 79 78 76 74 72 71 71 68 75 74 71 69 66 60 61 64 70 79 81
34 31 29 27 23 20 47 69 70 72 78 74 70 94 91 92 92 92 92 93 95 95 93 90 92 86 84 84 83 82 81 80 79 77 75 75 75 75 78 77 75 73 70 68 67 72 74 75 80
38 28 31 32 24 19 63 73 68 73 74 72 88 91 93 93 93 96 94 97 96 98 96 89 86 88 87 84 84 84 83 83 82 80 78 79 81 81 80 80 79 77 75 75 77 79 77 72 78
40 39 46 33 28 27 62 70 66 69 75 74 79 91 95 96 95 93 94 94 94 96 98 98 92 90 89 90 88 87 86 86 85 84 84 84 84 83 80 79 78 76 75 76 76 79 81 74 77
40 35 54 32 24 35 62 60 66 64 79 72 86 94 93 96 91 92 92 93 93 96 97 96 97 93 95 86 86 87 88 89 88 86 85 84 84 82 80 79 77 75 76 76 75 77 82 76 78
29 35 35 28 34 46 65 67 63 75 90 86 88 93 91 94 87 90 93 96 94 94 95 94 95 95 95 89 83 83 85 86 85 84 84 87 87 84 76 78 75 74 76 78 78 76 75 76 76
33 36 30 23 30 59 61 62 61 72 93 88 92 94 96 93 91 92 93 96 96 95 95 97 96 94 94 80 83 82 80 84 84 85 83 82 85 82 78 79 82 80 78 76 74 70 67 62 62
32 30 25 24 50 61 59 60 60 68 79 84 86 96 93 92 93 91 90 88 92 92 93 96 96 94 97 85 87 87 83 84 82 80 78 81 86 88 88 87 78 73 65 60 56 56 56 57 57
32 24 24 39 58 58 56 52 60 73 82 80 85 87 87 88 89 88 91 91 93 89 88 89 90 92 92 88 87 85 81 82 89 83 80 91 92 86 85 83 76 72 73 68 67 65 63 60 55
26 22 28 44 54 54 49 61 77 94 88 81 85 87 86 89 86 83 85 87 88 81 79 88 95 98 93 89 88 89 93 95 92 91 93 91 90 88 82 77 74 73 70 68 67 65 61 60 55
23 30 46 52 52 49 60 66 66 88 84 84 86 84 82 84 83 83 88 89 82 76 79 84 94 97 92 92 90 97 97 97 97 97 94 86 89 84 78 77 77 73 70 71 70 69 66 63 56
36 46 46 53 50 44 47 52 69 86 80 87 83 71 72 79 82 83 87 86 75 77 77 90 95 96 93 92 94 98 97 96 97 97 94 87 81 77 76 77 77 75 72 71 72 71 67 63 55
30 36 37 52 50 45 38 59 76 86 84 90 86 82 78 80 81 79 80 83 85 86 91 93 86 95 95 94 96 98 97 97 98 97 94 87 77 77 76 78 78 76 74 73 72 68 69 68 67
32 35 31 50 45 45 44 52 67 80 87 86 89 89 91 90 85 83 75 84 86 87 93 96 96 96 96 96 97 96 94 95 97 96 92 81 76 70 76 78 78 74 74 74 64 72 69 69 71
42 39 53 36 41 52 56 48 65 70 76 90 91 93 94 91 86 79 74 82 89 95 95 94 96 96 95 97 97 96 94 95 90 84 79 80 74 74 77 78 78 74 72 70 67 68 76 78 75
37 40 42 33 26 49 53 52 61 69 74 85 83 86 91 88 76 77 76 88 95 96 96 95 96 97 93 96 96 97 96 96 87 78 73 79 75 72 76 80 78 76 73 73 70 73 74 79 77
39 41 37 31 24 43 55 58 65 71 72 72 74 75 76 78 84 78 85 92 94 94 94 96 95 96 87 81 95 93 95 93 84 77 77 75 74 74 74 78 77 74 73 73 77 75 81 84 82
38 41 40 34 27 36 44 47 75 64 62 60 64 64 64 65 82 80 84 92 92 93 95 94 94 94 86 84 94 91 90 81 79 79 79 76 75 73 69 67 67 67 69 72 80 80 76 79 83
42 35 39 34 30 35 38 39 40 68 66 61 58 61 62 59 66 71 81 92 92 92 93 92 92 92 89 92 87 86 85 83 86 80 81 66 63 62 60 65 71 74 75 77 82 79 84 82 82
36 36 41 39 40 46 47 43 38 66 68 59 56 57 55 62 57 65 69 80 87 92 94 94 94 94 90 92 90 92 94 94 92 82 63 63 65 62 62 68 69 75 81 77 75 82 85 87 87
35 40 37 49 50 58 52 50 49 53 52 48 48 51 49 60 62 61 66 80 91 95 96 98 97 95 94 92 95 95 92 92 82 80 67 75 68 68 62 64 70 72 76 77 80 87 85 87 88
38 41 48 45 66 62 54 59 47 33 37 46 49 49 48 50 67 79 82 83 90 96 96 97 94 96 97 96 96 92 84 78 72 59 65 62 65 71 67 67 64 73 77 78 83 88 86 89 89
47 41 58 45 69 48 60 56 35 39 36 39 37 39 47 65 57 79 85 84 90 94 96 94 95 95 98 96 95 86 77 77 63 57 56 53 56 57 57 60 63 60 72 82 83 86 91 92 92
46 49 42 74 88 80 60 48 31 38 46 51 52 58 56 76 67 72 89 90 94 94 95 94 97 95 96 95 88 79 79 69 65 74 60 59 58 55 59 59 64 63 61 65 76 85 89 93 92
43 44 55 69 64 68 59 55 43 33 40 53 58 61 66 80 86 88 93 94 94 93 93 97 95 92 86 88 79 73 76 75 72 61 65 68 65 53 61 64 61 63 63 66 72 80 89 93 93
48 49 52 53 66 64 73 53 40 32 38 43 46 56 62 82 91 94 95 95 96 96 96 94 85 77 76 75 73 75 76 73 70 66 65 56 56 61 64 61 62 60 62 67 72 83 87 82 79
43 46 52 71 54 83 83 61 35 31 33 37 35 40 57 77 89 93 94 94 96 94 92 89 79 68 69 71 77 79 72 72 66 58 52 56 56 61 58 62 61 61 62 68 72 71 64 73 78

GFSSGP_sfc_rhum_036.txt.gz
RH
45 19 13 14 14 10 12 9 9 18 18 40 46 42 31 50 40 48 66 66 59 53 47 61 88 88 87 86 85 83 80 78 77 78 76 75 74 75 74 74 74 74 71 67 67 67 69 67 72
14 14 14 11 11 11 9 9 13 22 29 39 49 47 45 66 53 67 81 80 59 56 49 49 90 87 86 84 83 81 78 78 78 76 76 76 76 75 75 76 76 75 74 69 66 69 71 73 80
18 17 13 12 10 10 9 12 18 26 33 38 41 48 58 75 63 71 61 76 66 63 52 51 89 88 86 84 82 80 79 78 78 77 77 76 75 75 76 76 73 71 71 68 69 73 77 81 85
14 15 11 11 11 9 9 16 30 33 35 35 39 54 70 88 81 66 71 86 79 70 57 82 89 87 85 83 81 80 79 79 77 78 78 76 76 75 77 76 72 69 68 64 69 73 78 83 82
12 12 12 12 11 8 10 18 34 35 37 40 41 56 66 84 84 79 74 78 84 75 71 69 89 87 84 82 81 81 80 80 79 78 78 77 77 78 78 77 75 73 71 69 69 73 79 81 82
13 12 12 11 9 11 16 29 36 40 42 45 44 47 80 94 90 95 90 93 79 83 76 78 85 86 85 84 83 83 82 81 80 80 79 79 81 82 81 81 81 80 76 75 80 79 79 80 77
15 12 12 11 17 18 31 35 39 40 40 47 47 55 88 94 94 96 97 96 96 91 94 96 92 86 86 91 89 89 85 84 84 84 84 85 84 80 78 78 78 79 79 76 78 80 81 76 76
13 13 13 14 15 20 31 38 40 41 44 49 48 56 87 95 91 92 93 97 98 98 98 96 93 90 82 82 92 92 91 90 89 89 87 84 82 81 80 79 78 80 82 79 79 83 81 76 74
13 13 12 16 17 18 28 34 42 44 51 54 61 58 75 90 86 90 94 96 97 98 98 94 93 88 82 72 88 85 90 89 88 82 83 71 36 37 43 75 84 84 86 82 78 77 78 77 73
14 13 12 12 12 15 27 32 40 47 48 62 88 87 89 86 80 83 93 95 96 97 98 96 90 86 85 73 76 74 64 57 58 51 46 38 47 47 40 68 83 82 81 79 72 68 62 50 29
14 14 13 12 13 14 24 32 36 45 47 46 84 93 87 81 76 81 88 91 93 92 94 92 93 94 86 80 80 64 58 66 65 70 60 57 53 57 48 50 42 44 54 34 37 36 29 35 30
17 14 14 13 20 24 28 31 38 45 62 52 80 85 82 79 79 74 82 88 87 84 87 86 88 87 86 85 63 65 58 60 63 62 64 62 50 50 48 41 42 42 36 40 37 36 41 38 36
18 14 15 18 21 31 32 35 40 56 53 70 81 87 84 76 75 79 82 81 75 72 76 87 91 86 84 80 57 59 59 53 51 50 42 39 42 52 45 45 38 38 37 37 37 36 34 36 35
16 18 27 25 31 34 36 40 40 52 55 71 64 85 79 72 80 82 78 72 70 64 71 73 67 65 60 53 60 53 53 48 49 47 47 51 44 54 48 46 41 38 36 35 34 34 32 31 32
17 26 21 26 32 34 31 33 40 44 49 62 48 50 66 63 68 74 70 62 62 64 66 68 65 56 54 54 48 44 46 47 42 47 62 56 53 58 52 42 42 40 40 41 39 36 34 31 27
18 20 30 30 28 30 33 33 47 41 43 44 49 53 56 61 58 58 57 50 52 55 57 56 55 63 67 67 55 44 48 47 44 54 58 58 51 53 51 45 43 40 40 37 35 34 32 28 25
18 18 21 28 24 30 30 28 40 43 38 48 41 41 48 55 48 51 45 40 42 45 49 48 55 57 63 63 54 59 55 62 50 67 60 60 51 49 46 43 45 45 38 39 36 34 30 27 25
19 18 19 24 27 28 27 22 38 47 42 44 41 37 38 41 39 46 48 43 43 44 50 51 56 61 68 59 58 46 56 61 61 60 55 55 46 49 49 46 50 41 37 38 34 36 31 28 27
17 18 18 16 19 24 20 19 31 46 48 47 46 42 36 36 35 38 41 46 47 49 53 53 57 62 69 57 49 48 57 59 59 57 57 57 49 49 50 44 47 40 38 39 41 35 33 32 34
22 19 19 18 19 21 19 18 22 38 49 47 43 43 42 39 34 41 45 43 46 47 52 55 54 60 61 50 46 47 55 58 53 51 56 55 52 46 46 47 43 41 40 45 42 36 34 33 35
22 20 20 22 19 19 20 20 27 29 35 41 41 36 35 36 39 41 45 48 47 46 50 50 50 53 58 53 46 49 57 66 60 53 52 50 51 44 43 47 44 46 40 39 39 39 42 38 39
23 18 22 22 22 20 20 18 20 23 32 35 36 37 37 33 32 33 42 45 48 48 49 48 48 50 54 57 50 56 54 63 68 62 49 51 55 49 42 44 48 45 37 37 37 38 44 44 42
21 23 23 22 22 25 22 18 19 24 26 26 32 33 32 32 30 32 33 39 41 44 48 52 50 51 53 59 61 63 62 60 62 57 55 59 60 54 45 48 49 47 37 39 44 49 48 43 44
23 23 23 26 24 32 22 22 16 17 16 15 18 27 30 30 30 30 31 34 38 44 50 56 56 53 57 69 82 83 73 68 71 60 58 59 56 58 54 49 50 42 38 45 52 55 53 48 39
23 24 29 29 33 34 29 28 18 14 14 16 17 16 23 28 30 31 33 33 37 43 53 56 57 70 70 80 90 85 77 76 78 68 65 68 73 72 66 52 45 40 42 53 50 55 54 48 41
23 22 30 38 35 21 32 26 16 15 16 18 20 19 19 23 27 29 29 31 34 42 50 56 60 74 88 92 84 81 77 74 70 63 71 73 73 67 59 48 42 40 62 53 57 48 66 52 45
27 28 22 36 48 35 22 20 16 14 17 18 20 25 22 20 20 24 26 28 34 39 51 57 59 62 72 83 80 80 80 74 65 62 71 69 67 55 49 47 46 56 50 55 48 52 49 45 52
26 22 33 33 43 40 25 25 18 16 15 15 16 16 21 25 24 25 26 29 31 34 43 55 54 53 61 64 75 71 74 71 68 65 67 67 66 53 49 49 49 57 59 50 52 60 43 49 49
31 29 30 28 33 38 36 24 17 16 15 16 16 19 20 21 28 30 32 33 36 38 43 50 52 50 52 51 64 75 72 70 72 72 72 72 67 55 56 49 50 53 49 48 53 41 43 47 45
19 21 26 38 34 38 47 30 15 16 18 19 19 19 20 23 24 31 36 42 45 46 45 48 50 49 48 52 59 66 71 77 76 78 74 73 67 60 51 47 48 57 44 40 44 47 39 49 54

GFSSGP_sfc_rhum_039.txt.gz
RH
46 23 12 10 13 10 10 8 6 8 10 14 22 26 13 28 29 44 59 63 47 50 53 68 90 90 90 89 88 85 82 79 78 78 78 76 75 76 77 77 77 74 72 67 65 63 65 67 70
14 9 9 10 12 10 8 6 8 7 16 27 35 30 30 43 40 55 62 59 55 55 48 62 92 90 89 87 85 83 79 79 79 77 76 77 77 78 79 81 80 76 73 68 65 64 67 71 75
16 10 12 12 10 9 10 8 7 16 18 24 27 33 42 59 56 50 47 55 57 62 48 72 92 89 87 85 83 80 80 80 78 77 77 77 77 77 79 81 80 76 73 68 66 67 71 77 83
12 11 9 9 10 7 8 9 15 16 18 22 22 43 47 55 73 82 57 58 67 79 75 88 92 88 86 84 82 81 81 79 79 79 78 77 77 76 77 76 76 76 74 70 70 70 74 82 83
9 9 10 11 9 8 7 8 16 19 26 28 28 42 53 80 80 76 78 72 86 90 84 82 91 87 85 83 82 82 82 81 81 80 79 78 78 79 80 77 75 75 75 73 72 73 78 82 81
12 8 11 10 8 7 10 16 18 26 28 30 30 43 65 86 84 91 80 82 82 82 90 91 88 87 86 84 84 84 83 83 82 82 81 81 84 83 83 82 78 80 81 80 80 81 80 77 74
12 10 11 9 10 18 21 22 25 24 26 30 33 43 71 89 90 95 94 96 91 97 96 93 85 85 91 91 89 88 86 86 85 85 87 86 84 82 81 79 77 78 80 80 81 81 80 74 76
10 10 10 9 20 38 22 25 27 29 32 37 34 44 54 90 91 92 93 97 98 98 98 96 94 86 88 88 92 91 90 90 90 89 86 84 82 81 81 81 81 79 81 81 81 81 77 73 72
8 11 10 12 13 19 17 22 29 33 34 39 47 58 68 88 87 87 92 95 97 98 97 95 92 88 82 87 88 88 90 90 87 81 81 71 40 39 47 82 87 85 84 84 83 80 80 78 73
10 11 10 10 10 12 13 20 26 32 34 47 74 78 78 82 86 88 92 95 96 98 98 95 90 87 81 73 79 78 68 55 56 52 60 40 49 45 53 77 87 85 82 80 78 76 77 68 29
11 13 10 9 12 12 14 20 26 30 33 44 73 88 86 82 79 86 90 91 92 95 95 92 90 88 81 76 85 82 61 58 59 56 58 61 60 63 65 68 54 56 58 36 41 42 33 37 32
13 11 10 10 11 15 20 21 26 35 44 47 63 72 76 76 73 76 89 94 93 94 91 91 89 89 90 89 85 84 80 66 65 58 62 69 65 69 61 50 46 47 38 40 38 37 42 39 35
13 12 12 14 16 18 23 25 29 40 51 57 70 79 79 75 68 66 80 85 87 90 89 94 90 83 83 87 92 88 70 58 59 61 58 57 59 64 46 44 41 39 40 39 39 41 36 36 34
13 13 16 16 20 23 26 28 29 38 43 55 66 75 88 72 71 80 79 76 81 84 90 88 89 89 85 80 85 81 57 46 48 51 50 46 41 56 44 46 40 39 38 36 37 37 32 30 30
12 17 16 17 20 22 24 39 30 34 42 41 39 53 81 81 76 71 65 67 72 77 83 87 88 83 80 76 70 48 42 38 43 42 56 48 45 57 50 43 43 40 39 40 41 38 33 30 26
13 16 23 19 18 18 44 68 31 31 36 33 34 45 64 60 58 62 65 56 55 56 56 57 52 71 68 57 49 41 44 49 43 42 51 54 47 54 54 46 45 41 42 39 38 33 31 29 26
14 18 22 23 18 19 31 66 31 29 35 36 35 35 38 48 42 44 49 49 50 49 51 51 57 55 61 54 52 42 42 43 34 41 53 56 49 49 51 44 46 46 41 40 37 35 31 31 27
16 15 17 44 20 19 19 22 29 29 33 37 33 28 38 46 46 42 41 43 44 47 49 48 54 61 64 58 61 46 41 47 49 54 56 56 48 50 51 44 50 46 40 40 36 37 32 28 30
14 13 15 21 17 19 21 18 30 31 29 36 38 32 32 32 33 39 37 41 43 46 46 51 52 55 58 53 43 41 44 44 61 64 55 55 47 49 52 45 51 46 41 41 42 39 38 33 36
15 15 14 13 13 16 15 14 14 27 30 29 31 32 27 27 30 37 40 40 43 44 46 46 46 50 54 47 40 37 40 40 44 50 56 53 52 48 51 50 48 46 40 45 45 40 34 35 37
15 16 15 16 15 14 15 14 13 18 26 30 28 27 28 26 27 31 35 41 45 45 48 46 44 50 57 50 38 37 41 46 48 48 48 51 53 46 45 48 47 48 43 46 47 42 42 41 41
18 13 16 17 18 20 15 23 24 15 21 26 29 28 26 26 25 25 31 36 40 43 46 44 44 45 55 55 49 43 42 57 56 54 49 49 55 53 46 50 51 52 44 44 44 37 44 48 49
18 17 17 17 18 19 16 16 20 12 16 18 23 27 25 24 24 24 27 30 34 37 43 45 42 40 42 59 56 46 48 48 55 57 56 57 57 55 56 50 54 53 45 51 51 44 53 52 52
14 20 19 19 20 30 18 17 20 16 12 12 14 19 23 22 22 22 22 26 28 33 41 47 44 40 40 52 58 62 55 60 72 62 63 62 60 58 57 49 60 53 56 59 44 51 53 56 52
18 22 31 30 34 34 17 19 16 28 11 12 12 14 20 21 21 21 21 23 28 34 40 43 42 44 43 50 62 82 86 80 78 75 75 70 65 62 62 69 71 64 59 44 47 56 73 64 50
20 21 33 82 42 26 21 21 14 11 11 11 11 12 12 18 21 20 18 23 26 32 38 42 43 48 47 62 76 84 81 78 76 74 76 70 62 62 74 74 67 59 51 46 61 70 58 56 52
21 24 18 32 29 31 19 16 12 10 11 12 12 17 17 15 17 20 18 19 24 28 35 46 44 48 55 67 84 83 76 74 72 77 73 72 68 71 78 70 62 57 51 65 65 62 67 59 61
19 19 28 27 42 46 22 20 17 15 13 12 11 13 17 17 16 17 18 20 21 24 28 42 44 46 57 79 70 80 70 73 70 69 77 69 69 70 67 64 58 57 62 55 56 56 54 58 53
23 27 24 23 28 44 42 22 15 15 13 12 12 13 13 14 20 22 21 20 21 22 27 34 43 44 59 64 64 65 63 67 74 76 76 72 70 68 61 56 56 61 65 58 54 57 55 49 55
18 21 23 40 33 32 38 28 14 13 13 14 13 13 13 15 16 22 25 27 27 28 28 34 42 44 44 59 56 55 62 67 78 79 79 76 73 69 64 56 60 64 56 52 56 60 46 46 64

GFSSGP_sfc_rhum_042.txt.gz
RH
52 28 22 18 18 16 14 11 7 7 11 34 41 55 41 61 23 54 69 78 86 85 77 77 90 90 90 90 89 86 83 81 81 80 78 77 79 79 79 78 77 77 70 63 64 63 62 61 66
20 17 12 12 18 18 12 10 8 11 31 27 29 60 54 82 79 58 66 70 84 69 70 79 91 90 90 88 86 84 81 81 81 78 77 79 80 81 82 81 79 76 72 64 64 63 64 66 74
23 13 14 15 16 15 11 9 10 14 17 31 34 25 48 91 72 60 61 72 73 69 72 80 89 88 89 87 85 82 81 81 79 78 79 80 80 82 83 83 79 76 72 64 64 66 69 76 80
18 13 12 14 10 9 8 9 10 14 45 30 19 50 60 66 73 61 58 79 88 89 79 94 90 89 88 85 83 83 82 81 80 80 80 80 81 81 83 82 78 76 73 65 66 68 73 82 78
11 11 14 13 12 8 9 10 10 17 53 45 36 66 71 74 77 79 69 74 84 90 94 92 95 92 92 85 84 84 84 83 82 81 81 80 80 81 82 82 80 79 76 72 70 73 79 80 77
14 12 13 13 11 21 36 41 26 16 40 37 36 61 72 84 84 94 92 78 83 90 92 95 93 88 86 85 86 86 86 85 85 84 82 83 83 82 83 83 82 82 81 81 82 82 80 78 76
13 13 13 11 12 26 46 56 48 43 51 63 54 82 84 90 92 95 97 95 95 93 94 94 97 90 92 90 89 89 88 88 87 88 88 87 86 84 81 83 84 83 82 82 81 81 80 76 74
10 11 12 10 16 23 36 40 38 23 72 67 53 54 79 92 92 94 96 98 98 98 97 97 97 94 92 88 91 90 88 92 90 88 87 86 84 83 82 81 82 81 82 82 82 81 78 74 69
8 13 14 12 12 17 18 32 54 46 29 58 71 80 86 87 82 87 94 96 98 98 97 96 97 96 96 90 88 88 90 90 87 83 82 74 63 58 65 84 85 85 86 84 83 81 76 72 67
10 14 13 9 9 12 11 17 58 48 25 68 65 76 80 77 81 91 95 97 98 98 98 97 96 95 88 78 84 87 82 74 72 68 69 64 70 68 74 86 87 86 87 85 80 78 76 71 52
10 13 11 9 12 11 12 35 53 30 52 85 68 81 77 83 87 92 94 94 97 98 97 95 94 94 89 82 82 84 80 68 71 75 72 72 73 75 81 84 78 79 72 56 62 66 60 56 53
11 9 10 10 10 13 13 24 42 48 59 60 68 71 74 78 83 88 95 96 96 95 97 93 91 90 93 92 92 90 89 84 72 73 76 74 77 74 74 74 73 72 64 59 61 67 60 53 47
11 10 10 11 14 14 16 21 26 46 54 60 67 72 77 71 79 84 88 91 92 95 95 94 88 88 88 90 93 90 88 81 78 72 73 73 75 80 75 71 66 63 66 64 64 60 56 51 50
12 13 11 13 13 15 22 63 55 64 50 63 63 77 90 86 82 84 86 88 90 91 92 92 92 90 86 83 82 88 89 78 79 74 72 71 76 76 72 70 64 65 62 61 60 60 55 53 51
11 14 12 15 15 20 30 43 71 64 42 42 50 65 79 90 83 74 76 82 84 84 86 90 91 87 85 85 87 86 77 62 55 59 72 70 63 73 72 66 67 66 64 60 62 54 52 50 40
14 14 18 20 19 27 32 56 39 37 41 43 41 51 69 81 66 61 70 73 77 78 78 79 83 85 89 89 87 84 79 54 44 56 72 66 60 71 74 72 68 64 65 62 63 60 56 52 46
15 18 17 19 17 26 32 65 49 42 33 41 46 53 61 73 64 65 60 65 66 67 70 73 77 80 81 81 77 66 61 64 58 62 65 73 66 68 73 69 68 66 67 68 62 58 56 54 47
19 20 19 24 23 18 48 58 63 74 30 35 36 35 46 48 60 63 54 53 53 58 60 66 70 70 72 75 75 60 61 58 60 62 79 71 66 66 74 77 72 67 68 66 63 58 52 53 54
12 16 20 22 23 23 29 46 62 49 34 35 32 35 40 47 44 54 52 55 56 57 54 56 65 72 70 68 68 69 69 65 68 77 71 76 70 68 74 74 75 72 69 66 66 62 55 54 57
13 14 16 12 15 16 15 15 31 29 32 34 38 37 38 44 48 46 54 56 59 58 59 62 56 60 65 66 61 62 61 60 60 74 77 74 74 64 69 76 83 73 68 69 67 65 65 62 64
14 16 16 20 18 15 15 16 15 29 25 28 32 33 30 34 49 44 48 54 56 58 59 57 59 62 66 60 54 52 57 57 57 62 81 74 74 66 67 73 72 75 74 74 70 69 65 67 69
16 12 15 19 20 21 16 26 18 25 25 28 28 31 29 27 33 42 44 50 52 56 56 53 52 51 56 60 61 54 50 54 64 70 66 70 72 72 68 67 74 73 74 72 72 62 64 68 73
15 19 21 18 18 22 18 20 13 16 20 28 31 30 29 28 28 35 41 44 46 50 56 55 51 50 56 63 67 68 58 65 74 73 73 72 76 76 79 69 74 76 78 72 72 62 65 68 72
13 21 22 20 21 36 22 18 25 25 26 18 21 27 28 27 27 26 33 38 43 47 52 59 56 51 55 64 67 71 74 69 81 82 84 80 83 77 74 67 80 82 80 75 72 69 72 74 74
16 22 32 36 40 44 20 19 19 26 21 20 16 17 26 27 28 28 28 33 37 45 52 54 54 54 52 65 70 71 73 78 77 82 86 93 87 87 86 83 84 88 79 76 66 73 78 78 75
21 21 37 78 88 46 30 26 16 15 12 11 11 14 18 25 27 26 25 30 33 42 48 50 51 51 52 62 68 70 74 77 82 82 88 87 85 85 86 81 80 75 72 74 69 80 80 76 71
21 26 20 63 70 70 59 22 11 12 11 11 12 15 18 18 24 25 24 26 32 38 46 52 48 48 51 55 70 78 78 76 79 82 84 86 83 85 89 84 82 79 77 70 78 79 81 71 73
18 18 34 34 59 64 26 21 21 19 13 13 13 15 20 21 19 23 23 26 27 35 39 50 47 51 47 57 71 80 80 83 82 82 89 86 85 78 87 84 79 75 73 75 77 77 72 68 69
21 24 29 30 32 54 53 31 33 35 37 16 15 15 18 21 24 24 25 26 27 27 32 46 47 47 53 59 80 81 80 80 83 85 88 86 83 81 78 80 74 68 73 72 75 72 68 66 68
18 22 25 44 38 45 69 40 17 21 22 17 18 16 17 19 20 24 28 29 30 31 33 48 49 55 60 71 75 77 82 77 81 84 88 84 80 77 73 72 69 64 72 75 76 73 54 72 80

GFSSGP_sfc_rhum_045.txt.gz
RH
73 43 51 38 42 36 33 23 16 14 29 41 49 42 54 72 78 90 81 87 88 87 91 85 91 90 90 89 87 84 83 82 80 79 81 82 81 80 82 80 74 72 68 61 56 57 60 64 68
43 24 37 35 33 41 28 17 16 32 34 49 48 46 49 84 62 74 91 78 78 72 69 96 88 90 90 88 86 83 82 80 78 79 81 81 81 80 82 78 74 73 69 60 56 57 64 70 75
46 25 31 29 35 31 28 15 12 32 31 32 36 66 70 88 65 75 80 75 88 83 78 86 88 91 89 87 85 83 83 80 79 81 81 81 81 81 81 79 75 73 68 60 57 61 67 73 76
32 30 28 30 29 20 21 36 40 25 32 44 53 79 76 76 83 85 68 88 89 92 87 91 89 91 88 86 84 84 82 81 82 82 82 82 82 81 82 80 75 73 68 61 62 65 69 76 75
35 28 32 36 28 19 41 36 34 42 52 66 51 62 74 83 85 86 90 80 91 91 86 94 96 90 86 85 85 85 84 84 84 83 84 84 84 83 83 81 77 74 72 67 67 69 74 75 73
28 26 34 30 23 32 38 43 29 40 54 57 70 64 69 91 88 94 97 88 94 94 94 96 97 94 92 92 90 86 87 86 85 85 84 85 86 86 85 84 80 79 79 80 78 78 76 73 71
28 30 30 23 17 34 37 40 44 46 52 62 60 68 78 92 94 96 98 97 97 97 98 98 96 94 93 94 92 90 88 88 88 88 87 87 88 87 86 86 84 84 84 82 80 79 75 69 69
22 23 22 18 17 37 42 39 43 49 64 62 55 75 81 96 95 96 98 98 99 97 98 97 98 99 96 94 93 92 92 92 90 89 88 87 86 87 87 86 84 83 82 81 79 77 71 65 62
20 23 24 19 17 27 34 58 52 47 70 78 74 81 89 91 93 94 97 98 97 96 96 95 98 97 97 90 90 90 90 88 86 84 84 80 74 76 79 86 85 85 85 82 79 75 71 67 64
20 26 20 13 18 19 39 53 54 59 61 80 87 90 88 86 89 95 97 98 97 98 99 97 96 94 93 88 95 91 83 76 75 71 69 66 78 79 81 85 87 86 84 81 80 76 72 60 54
18 21 14 13 16 16 18 43 51 56 75 72 77 95 89 89 92 95 97 97 98 98 98 95 95 94 93 92 81 88 92 81 73 75 76 76 87 84 83 82 83 85 80 72 74 69 58 59 62
19 13 12 14 19 20 35 48 58 67 81 75 81 78 85 88 92 95 96 97 97 98 97 94 92 93 94 95 91 92 91 78 79 77 72 76 80 78 79 74 74 69 68 60 64 68 65 55 50
17 15 14 14 17 21 45 70 71 84 74 70 73 81 84 87 86 93 94 93 94 97 96 96 94 94 94 91 92 94 92 86 89 78 73 76 70 73 78 78 72 74 73 65 72 62 55 54 46
17 17 16 14 15 23 41 53 52 70 68 75 79 94 86 87 91 93 92 96 94 93 95 93 93 92 87 87 84 91 90 88 93 79 74 73 78 75 77 78 73 74 72 71 64 63 59 58 49
20 20 17 15 21 30 38 41 48 52 52 61 79 86 91 87 84 88 87 91 91 93 91 94 93 91 90 89 87 86 81 70 54 54 61 68 71 79 78 76 81 72 69 68 66 63 58 55 47
24 23 28 17 24 36 37 58 45 44 56 58 73 86 91 91 80 82 80 83 83 86 88 90 88 90 90 87 89 89 90 87 58 50 71 66 67 79 82 81 77 70 70 65 64 60 58 59 52
30 30 24 20 25 36 45 60 44 46 55 55 64 77 93 88 75 78 78 84 82 83 83 85 85 86 82 87 86 75 72 75 52 54 63 78 66 76 78 89 89 71 69 72 66 69 63 56 55
34 28 38 34 34 42 54 52 49 48 56 52 63 73 84 79 76 77 78 81 80 82 85 79 75 74 73 70 63 57 63 53 53 68 75 82 76 74 83 91 87 72 72 76 73 63 60 58 54
22 21 22 31 28 33 47 54 51 49 76 55 65 59 74 77 71 67 72 72 77 80 81 81 80 78 67 71 71 62 69 65 65 75 79 71 76 80 88 92 78 72 75 72 68 65 53 53 63
24 23 22 22 23 33 35 51 50 60 68 47 46 59 58 66 74 64 67 70 71 72 73 77 72 72 70 67 64 66 65 66 61 78 83 82 81 85 90 92 88 81 80 77 75 65 66 60 67
22 22 21 23 25 22 26 35 56 52 55 41 39 41 46 56 80 66 62 65 67 66 64 70 68 66 69 63 66 70 74 74 76 78 87 79 82 82 84 88 86 89 83 83 74 73 65 66 75
25 18 21 25 30 36 27 38 50 52 54 44 40 41 42 50 55 62 63 70 66 65 59 58 61 61 62 66 68 65 65 62 66 78 79 84 82 83 82 82 86 92 87 78 74 69 67 72 73
25 23 25 32 35 35 29 35 31 38 49 47 46 44 43 45 54 56 61 64 62 60 62 61 61 56 60 66 69 76 62 65 74 78 87 88 90 86 89 87 88 86 87 81 78 78 77 75 74
17 30 33 36 39 53 33 36 36 36 29 36 37 39 39 42 53 49 54 56 61 58 58 60 62 61 61 68 73 80 81 68 87 90 87 94 92 95 95 85 86 87 87 85 84 75 76 79 79
22 32 51 54 63 62 46 50 36 28 26 31 30 36 36 36 48 49 50 55 54 60 60 59 59 61 58 60 68 74 81 79 77 79 88 94 93 95 94 91 89 91 89 82 75 78 81 85 79
27 31 61 69 88 69 53 53 33 21 22 22 22 31 33 34 34 44 47 49 52 52 57 58 59 59 58 63 67 69 70 70 78 79 86 88 91 89 85 89 91 92 90 84 75 88 89 84 86
30 36 34 77 79 85 66 51 38 21 22 15 16 18 33 34 32 34 41 44 48 51 52 57 58 58 59 68 69 72 73 79 78 91 92 94 93 93 94 93 94 89 84 77 80 88 85 82 78
23 25 45 65 86 98 59 61 42 29 26 22 17 17 23 27 32 32 34 41 42 45 48 55 54 59 56 59 72 72 74 89 93 94 95 95 95 94 94 92 88 84 77 77 81 83 80 77 79
30 30 35 46 56 72 69 50 40 34 36 28 23 23 25 26 32 36 45 46 51 64 66 58 58 63 67 66 68 75 85 92 93 92 95 95 94 92 90 86 83 78 77 81 80 81 78 73 75
24 28 34 67 57 67 78 60 32 31 30 21 20 20 23 26 29 36 50 56 65 65 60 52 57 72 70 68 68 83 91 94 95 94 95 94 88 84 84 83 81 80 80 78 78 77 72 80 91

GFSSGP_sfc_rhum_048.txt.gz
RH
70 50 53 39 39 42 44 29 23 21 22 51 48 51 76 78 83 93 86 85 87 94 91 86 92 90 89 87 85 83 82 80 83 83 84 85 81 79 77 76 73 68 65 63 63 65 66 69 73
48 28 39 43 38 44 36 26 25 28 46 49 53 58 74 78 65 90 91 86 85 81 85 88 90 91 90 88 84 83 80 80 84 83 84 85 83 78 77 76 72 68 64 61 63 66 66 67 74
40 28 32 42 42 40 34 25 28 46 50 42 64 70 75 78 71 78 76 82 84 82 85 88 88 95 93 87 85 82 80 82 84 82 83 84 82 79 78 76 72 68 65 61 65 64 65 71 78
35 33 34 35 35 29 24 27 38 37 55 51 73 76 74 80 91 90 77 79 89 84 77 81 84 90 92 87 85 82 82 84 83 82 82 84 82 79 79 76 73 69 65 60 62 62 68 74 77
39 34 36 45 33 26 32 39 38 56 70 61 54 56 73 76 88 87 96 86 93 94 86 87 87 81 93 89 85 84 85 85 84 83 83 83 83 80 80 77 74 72 69 64 63 66 74 73 76
35 35 44 47 34 22 32 37 38 48 58 63 61 63 68 92 94 96 94 95 96 96 97 94 94 95 96 90 85 87 88 87 87 86 85 84 84 83 81 79 78 79 80 77 74 75 73 72 73
34 35 40 34 25 20 36 43 54 60 59 71 64 70 81 92 97 96 96 99 98 98 98 98 94 95 97 95 88 91 89 89 90 90 89 89 89 87 84 84 83 82 81 78 75 74 71 70 70
29 31 36 28 23 23 42 50 51 56 74 64 70 94 89 92 95 96 98 98 98 98 98 98 99 98 97 96 88 91 94 92 91 91 91 91 91 89 87 85 84 82 79 77 72 72 72 73 71
23 32 32 24 22 24 42 52 56 58 71 71 79 89 90 93 91 94 96 99 98 98 97 96 96 97 98 97 88 80 91 90 89 88 88 89 90 89 83 85 85 83 81 78 73 73 72 68 72
25 32 26 18 20 36 48 49 58 55 58 66 90 87 89 89 91 96 98 96 98 98 99 97 95 94 93 94 93 91 83 76 77 75 74 79 84 86 84 86 85 83 82 78 73 71 68 64 59
26 26 18 15 17 34 54 61 58 54 75 74 80 91 92 93 94 96 97 97 98 97 98 97 95 93 91 92 94 96 92 80 75 70 78 79 87 86 83 82 81 84 81 76 71 61 60 56 56
22 16 16 14 21 39 52 60 72 64 67 72 78 81 88 92 94 96 97 97 98 98 98 96 94 93 92 88 79 93 88 74 78 75 82 79 79 76 80 85 83 78 74 73 68 70 62 58 53
23 19 17 17 35 63 53 70 73 83 81 80 83 82 92 88 88 92 94 94 96 98 98 97 92 92 91 84 91 92 87 88 87 74 78 77 74 77 86 83 77 69 70 68 71 69 60 53 45
26 25 22 16 23 46 61 66 56 78 79 88 88 95 93 89 90 94 95 95 96 96 98 97 94 93 86 81 89 90 89 93 88 74 76 74 76 78 74 77 73 72 75 69 69 64 60 56 43
24 26 22 20 20 42 48 56 54 75 80 88 92 84 93 91 88 90 88 94 92 95 96 96 95 91 91 90 89 88 82 71 73 78 78 78 74 78 78 82 86 78 77 72 70 67 64 58 45
27 30 32 22 23 42 41 54 50 74 68 95 94 97 90 89 90 83 84 87 88 91 94 94 91 92 91 91 92 89 87 80 56 62 78 78 74 84 88 89 85 80 79 76 73 68 62 61 53
40 37 33 27 25 38 42 54 49 56 70 86 93 96 90 98 88 90 81 82 85 84 91 97 95 91 89 89 89 78 75 70 57 52 62 73 69 82 87 91 90 79 72 76 67 68 65 63 59
39 37 52 33 34 43 53 47 53 59 65 71 81 96 96 94 89 84 84 83 81 81 83 88 92 93 88 77 75 72 75 68 62 55 64 66 76 77 89 93 91 79 75 76 74 70 69 63 60
30 32 32 26 28 45 50 50 47 69 71 70 76 87 95 88 79 83 87 87 93 89 81 83 85 81 75 70 71 69 70 67 62 61 77 78 83 83 90 95 93 81 75 75 76 70 58 62 65
30 31 31 23 27 34 44 50 58 58 67 60 67 83 91 86 82 82 86 90 90 91 90 85 82 79 68 62 58 60 63 63 58 57 73 79 82 82 88 93 93 84 86 80 78 68 68 59 70
29 31 29 24 27 33 44 46 53 51 57 57 57 62 76 84 84 78 81 84 87 88 90 84 80 73 71 66 63 66 70 64 61 56 71 84 83 75 87 93 92 89 81 83 92 74 64 64 74
32 26 24 28 36 40 30 43 57 52 57 60 53 58 66 79 77 71 77 82 82 81 79 77 75 72 71 70 66 66 68 68 62 59 65 79 84 87 87 89 90 90 93 91 82 70 72 71 70
30 29 26 28 34 42 38 42 42 46 66 61 50 49 55 76 78 72 70 73 73 71 73 75 71 68 66 69 68 70 77 75 76 81 84 86 93 92 92 92 94 93 92 94 86 83 80 81 78
24 32 35 39 45 59 47 45 49 71 52 50 49 42 43 55 76 71 63 64 68 65 64 69 72 67 65 68 73 81 82 74 85 84 84 85 87 92 93 91 93 92 93 94 89 85 84 82 81
26 40 53 57 66 66 52 57 50 35 42 40 45 44 41 42 57 71 67 68 68 70 62 62 64 66 63 63 67 76 83 78 82 76 79 86 91 97 95 92 95 93 90 92 91 87 87 86 85
32 35 58 67 80 60 58 55 42 33 35 26 37 39 42 43 46 56 63 65 69 67 66 60 64 68 64 65 70 73 73 77 79 73 80 86 86 89 92 92 89 93 92 91 86 87 87 84 86
32 40 34 75 85 87 66 56 37 30 27 26 32 38 43 42 46 54 54 60 62 65 64 61 59 64 63 64 67 71 72 75 74 78 87 86 89 95 97 94 92 92 93 90 84 82 84 84 86
26 31 50 70 79 74 68 69 58 39 28 26 24 37 42 40 42 52 50 55 58 61 59 62 59 57 58 62 64 64 68 70 77 87 89 88 93 94 96 94 92 93 94 84 79 85 86 85 87
34 36 45 53 68 77 79 59 41 36 31 31 26 22 27 38 39 39 49 51 54 57 58 63 65 67 68 68 64 65 70 74 86 87 89 90 94 95 95 94 93 92 87 84 82 84 85 81 79
28 33 38 64 65 71 82 58 33 36 34 31 26 23 30 34 36 36 39 44 52 55 54 56 61 64 66 66 66 70 80 94 96 97 98 99 96 96 95 95 92 86 84 85 84 85 80 79 90

GFSSGP_sfc_rhum_054.txt.gz
RH
76 80 56 34 32 44 57 39 35 33 48 62 67 76 78 83 65 66 92 89 91 94 93 91 90 88 85 84 85 84 84 83 83 83 82 82 79 76 76 76 75 74 72 67 67 69 71 72 74
51 48 37 38 37 43 34 33 29 34 55 59 68 78 74 67 72 94 90 85 90 94 92 92 89 88 86 85 85 84 84 83 83 83 82 80 77 77 77 77 76 75 73 66 68 70 72 75 79
40 29 32 41 47 42 38 28 24 37 54 61 70 80 83 74 76 84 82 87 87 93 94 91 89 88 86 85 85 85 85 83 83 83 81 79 77 76 78 77 76 75 70 68 69 72 74 79 82
39 34 35 44 50 34 29 25 25 53 50 64 76 69 81 87 95 96 93 88 91 88 94 94 86 87 87 85 86 85 87 84 83 82 80 78 76 77 77 76 75 73 68 65 70 76 78 82 82
39 39 42 52 43 34 29 26 41 62 64 66 67 60 80 90 91 92 96 88 90 90 96 95 93 89 88 86 86 86 88 86 83 82 80 77 75 76 77 77 74 71 68 68 71 78 82 82 80
36 39 47 48 39 29 26 41 49 56 65 68 71 66 67 94 95 93 94 91 93 93 95 96 92 87 84 85 86 86 88 86 83 82 80 77 76 77 78 76 74 73 78 82 82 83 80 80 78
36 40 47 46 38 29 34 60 46 62 71 68 70 76 80 98 95 93 93 95 98 98 97 97 97 93 86 90 85 87 87 86 85 84 82 81 83 80 79 78 75 76 80 83 82 80 79 79 78
34 37 59 42 34 27 33 54 62 67 71 69 76 89 85 96 93 96 96 99 99 99 98 98 99 98 97 99 89 85 87 86 86 86 88 89 86 82 78 74 74 74 74 78 80 79 78 79 80
32 38 44 36 29 23 55 62 64 67 78 81 86 95 97 90 92 96 97 98 99 98 98 97 98 98 98 96 95 90 74 75 84 88 92 91 91 86 80 74 74 74 75 78 81 82 82 80 80
33 41 33 27 23 21 42 60 55 64 66 80 95 95 96 95 88 96 96 97 99 97 97 97 97 97 93 93 96 96 87 76 85 89 91 89 94 87 75 77 75 74 76 76 83 84 84 80 82
32 32 27 22 21 22 34 62 58 62 66 68 86 92 93 97 92 96 96 97 98 98 98 98 94 93 90 88 86 97 96 96 84 95 93 95 93 89 88 81 76 74 74 65 64 62 68 80 83
29 23 22 19 23 50 58 69 70 68 71 78 74 90 95 97 93 90 97 98 98 98 98 97 94 94 89 78 76 96 97 98 98 94 92 90 90 89 88 87 83 74 77 74 66 64 70 76 78
24 23 24 23 28 46 63 72 72 78 86 88 93 95 94 97 92 93 96 96 98 98 98 98 93 93 89 75 74 91 93 96 97 97 92 81 84 82 86 85 81 76 73 70 71 62 60 66 69
28 29 30 27 36 48 59 79 78 65 90 93 96 98 93 94 93 93 94 98 97 98 98 97 96 94 84 69 71 77 73 85 94 94 94 82 80 82 80 81 76 75 70 77 68 57 56 54 58
31 32 28 25 32 55 60 62 84 71 94 94 96 90 83 87 83 86 89 93 94 96 97 97 95 92 89 84 81 79 76 71 85 87 84 77 79 82 79 79 84 73 77 76 70 65 59 55 51
35 35 37 27 47 44 46 47 39 83 97 96 97 98 85 83 82 82 86 87 90 93 96 97 96 93 89 87 87 88 91 82 79 79 83 75 72 82 85 82 79 77 79 77 73 71 65 59 54
41 41 36 28 30 52 57 52 55 95 96 96 98 88 82 83 87 77 94 89 91 88 92 95 98 93 93 95 96 95 91 82 78 87 78 75 75 80 73 87 90 81 82 82 74 78 71 63 58
45 45 56 40 37 55 67 58 50 90 97 95 96 98 97 96 86 95 94 85 87 90 89 94 98 97 95 95 95 94 93 78 80 79 83 80 74 81 88 91 90 88 86 88 82 77 75 70 62
33 39 41 37 31 33 33 36 31 70 94 96 97 96 95 96 94 96 95 94 92 90 90 92 98 98 95 97 97 97 93 85 73 76 84 84 82 87 90 92 93 92 88 89 80 78 72 71 68
38 41 41 33 28 32 41 44 49 63 79 81 89 91 92 94 99 98 97 87 90 88 88 92 94 96 92 93 83 84 90 90 89 72 79 80 82 87 93 95 94 93 95 92 86 76 78 74 73
42 42 42 34 35 36 50 46 42 52 71 72 76 76 79 89 96 98 93 83 88 90 90 88 88 88 85 80 89 94 90 88 90 76 71 76 78 78 86 94 96 95 91 90 91 80 72 72 78
44 37 35 37 43 48 47 62 38 39 57 70 73 76 75 89 91 95 98 86 82 82 86 84 81 78 80 75 80 83 90 75 76 73 65 69 78 83 82 90 94 95 95 91 90 88 84 81 83
38 36 38 40 46 51 44 49 39 59 53 55 62 69 72 78 91 94 95 96 87 96 97 97 84 78 70 67 70 78 79 78 77 72 74 78 74 83 87 88 92 95 97 94 93 94 90 89 89
34 40 44 50 53 65 46 46 50 39 43 38 48 60 62 76 89 88 88 93 98 97 98 97 93 88 80 82 78 79 77 76 80 87 84 86 86 87 88 93 95 94 96 96 96 95 94 90 89
39 47 60 60 75 72 48 58 47 38 34 37 36 52 60 65 80 90 91 93 96 98 97 96 93 91 84 85 85 81 80 78 78 76 82 91 88 87 80 92 96 96 95 96 96 96 94 94 95
46 46 67 70 75 55 66 69 46 37 35 37 38 48 59 65 75 80 83 85 89 90 94 93 92 89 86 83 82 82 78 76 73 77 76 83 83 79 84 90 94 95 95 96 96 96 95 97 97
44 51 40 71 87 87 66 53 36 34 36 33 40 53 62 64 69 77 77 76 80 83 85 88 87 86 83 82 80 81 80 76 73 75 88 84 86 88 92 93 94 94 93 95 96 97 98 98 96
36 39 58 69 74 78 66 73 45 34 29 36 32 47 61 55 59 70 74 76 72 74 78 83 79 81 80 80 79 77 78 77 79 82 84 86 85 92 92 94 93 90 92 90 94 96 97 98 96
42 46 54 53 68 65 67 60 52 40 40 40 34 29 49 62 55 54 69 72 70 73 77 79 79 79 80 76 74 75 75 76 79 82 84 92 92 93 93 92 93 94 96 97 98 96 96 96 94
36 42 52 67 59 80 78 54 37 42 39 40 36 33 30 54 59 51 51 71 75 72 73 73 73 69 70 72 73 76 75 74 79 80 82 85 91 91 89 92 94 95 96 96 98 97 92 94 95

GFSSGP_sfc_rhum_057.txt.gz
RH
56 50 33 22 20 23 25 22 24 20 34 42 55 55 47 61 54 49 73 74 80 72 68 72 91 86 88 88 88 87 85 84 83 84 85 82 80 78 77 76 74 73 70 65 65 65 67 71 72
40 34 25 23 21 21 20 22 20 18 33 46 55 60 56 47 62 74 68 67 82 67 64 72 91 88 88 87 86 86 84 83 84 84 83 80 79 79 78 76 74 72 70 64 64 66 69 74 78
28 22 21 24 26 21 21 20 17 18 36 45 47 61 61 52 60 67 67 69 89 78 71 71 91 88 88 87 86 84 84 84 84 83 81 79 80 79 78 77 76 72 71 68 66 67 73 79 83
26 23 24 25 25 23 20 18 19 26 36 43 58 53 60 69 75 81 80 76 92 93 85 85 91 89 88 87 87 85 85 85 84 82 80 80 80 79 79 78 75 75 72 68 67 71 77 83 83
25 24 26 27 26 25 22 20 19 32 43 47 50 44 56 67 75 76 81 75 90 95 89 82 91 88 86 86 87 85 86 85 83 81 79 80 80 80 80 78 76 75 76 76 73 74 80 82 81
24 25 27 24 24 22 20 19 34 40 45 51 52 50 48 82 76 77 80 82 83 95 96 85 85 87 84 84 88 87 87 85 83 81 79 80 80 80 79 77 74 74 78 81 80 80 81 80 79
26 24 24 28 26 23 20 41 36 41 47 46 52 54 57 75 77 81 81 83 86 93 97 95 96 86 89 93 89 89 87 85 83 80 79 80 81 81 79 76 78 81 80 84 81 80 80 79 79
24 23 30 28 24 20 19 39 40 44 40 59 56 57 64 76 80 87 85 92 97 95 94 93 98 98 97 91 91 91 88 86 84 82 81 83 83 82 80 79 83 86 85 83 80 80 80 80 81
22 25 26 24 23 17 31 36 48 50 50 64 68 74 77 77 82 87 86 96 98 98 96 98 98 99 99 97 94 88 94 87 86 85 87 81 68 65 61 68 82 85 84 81 80 81 82 82 82
22 27 23 20 18 17 20 34 38 44 45 54 67 79 86 79 76 84 86 95 98 99 98 98 99 98 98 98 95 96 90 81 85 80 78 70 72 61 55 68 81 84 84 82 82 83 83 67 51
25 23 22 18 18 16 17 34 37 43 44 44 56 67 84 82 84 88 88 88 98 92 92 94 97 96 92 93 94 96 96 94 86 85 76 73 65 69 66 60 56 65 74 60 67 66 50 57 52
23 20 19 15 17 24 25 39 49 45 38 56 60 66 84 84 81 82 95 95 98 94 93 95 92 88 84 76 81 95 95 96 90 88 79 72 69 71 66 57 53 55 54 62 63 57 66 61 56
22 17 18 16 20 25 44 44 46 57 53 66 72 78 83 81 75 82 90 95 97 98 96 95 88 85 81 78 77 95 97 96 95 88 77 70 70 70 60 58 50 46 49 52 58 57 56 58 57
20 18 20 22 20 28 40 48 58 49 60 72 75 81 84 84 77 83 91 94 96 96 97 95 90 88 81 76 78 89 96 97 96 85 82 73 72 72 58 55 51 52 46 44 48 54 53 53 55
24 26 23 20 20 30 45 41 58 52 69 72 74 72 73 74 81 80 80 85 90 94 96 96 96 86 85 74 83 79 89 93 95 83 77 72 68 74 65 53 56 53 50 48 48 50 50 48 48
25 26 27 20 34 43 38 30 26 52 68 65 74 82 77 72 71 72 75 81 79 92 96 95 94 92 91 84 87 82 81 85 89 82 79 69 61 70 70 56 54 54 52 46 43 39 38 39 39
32 25 28 21 26 43 41 34 32 72 68 63 72 74 72 70 69 69 74 80 80 81 94 97 95 94 85 84 90 84 81 74 76 83 81 76 66 68 59 57 65 61 55 53 47 46 43 43 40
33 32 31 25 31 39 40 35 29 50 68 67 66 75 74 72 66 67 72 77 78 80 84 94 96 92 88 91 94 96 92 79 75 79 68 69 60 61 69 69 67 58 58 58 54 56 53 45 40
27 28 28 27 24 23 27 25 22 25 65 68 69 73 77 74 67 69 75 76 80 81 81 89 97 95 95 95 96 96 96 90 78 65 69 73 62 64 70 73 71 63 62 67 64 58 60 54 50
28 31 30 26 25 25 22 25 24 32 39 51 58 69 69 68 74 77 77 78 82 80 80 83 96 96 93 91 90 90 88 94 82 70 69 68 66 61 70 72 77 73 70 76 72 65 64 53 52
32 33 34 28 28 26 32 30 25 26 44 49 57 57 59 64 75 84 81 79 79 81 83 83 90 91 90 89 94 95 94 93 90 80 73 68 74 71 68 72 80 84 82 75 84 74 66 60 57
38 32 30 30 29 29 30 36 30 22 26 37 42 56 55 61 64 78 83 82 77 77 76 79 80 88 88 88 87 92 82 84 74 80 71 72 76 77 75 82 88 92 91 83 84 75 73 68 64
30 32 32 31 33 37 33 35 29 32 28 24 27 41 52 53 62 70 82 77 70 71 72 76 79 84 82 82 78 84 82 85 75 78 78 67 68 75 74 79 79 88 89 83 81 80 79 76 70
32 31 36 42 40 49 37 34 31 26 24 22 24 29 44 54 58 62 69 74 69 69 74 79 78 76 76 79 77 81 84 83 86 86 83 80 79 82 85 81 86 80 81 81 81 80 78 76 73
32 38 42 48 56 48 40 39 32 25 24 26 24 23 36 52 57 65 72 77 81 85 84 80 76 77 72 73 71 76 75 79 83 78 76 76 78 75 77 78 82 76 75 74 76 81 82 82 81
39 34 46 58 56 39 51 45 28 27 27 30 28 29 33 48 56 61 65 70 75 83 82 82 76 74 74 72 70 70 69 69 66 68 63 66 66 61 62 73 73 73 71 72 76 79 82 83 86
41 44 34 51 69 60 46 39 28 22 24 23 26 27 30 40 53 56 62 66 69 72 76 77 72 71 74 73 69 70 69 68 67 66 68 65 65 67 69 67 68 67 68 70 69 76 80 87 88
32 33 45 52 50 55 48 47 31 26 23 24 29 26 31 38 49 56 60 66 65 67 67 76 70 67 68 72 72 69 69 66 66 67 70 70 67 67 68 68 65 63 65 66 72 76 80 90 93
36 38 44 40 53 51 50 41 38 32 28 28 29 29 27 30 43 50 56 60 62 64 68 72 71 70 70 71 71 71 71 70 71 70 70 69 70 68 69 66 66 66 69 73 77 79 82 92 91
30 37 39 54 50 63 62 38 28 33 32 34 30 30 27 26 36 43 49 58 62 63 64 66 67 67 68 71 72 74 74 72 74 74 72 73 73 71 69 69 70 70 72 79 81 85 88 94 96

GFSSGP_sfc_rhum_060.txt.gz
RH
44 25 19 17 16 13 13 13 13 14 18 25 32 33 30 30 30 33 47 59 63 59 53 63 88 91 89 87 88 89 86 85 83 84 84 84 84 83 81 79 76 75 74 69 66 66 70 74 75
20 20 17 13 14 12 12 12 14 13 15 29 34 33 35 32 35 44 47 56 60 58 51 57 91 91 90 89 88 88 86 84 83 84 84 84 82 82 79 77 75 73 71 65 65 65 69 74 78
18 16 13 13 12 12 11 12 12 13 17 26 28 33 33 37 42 48 52 54 71 68 47 50 90 90 90 89 88 87 86 84 84 84 82 81 80 79 78 76 74 72 69 63 64 68 74 79 82
14 14 14 15 13 13 13 12 13 13 20 23 26 31 37 46 48 54 56 56 66 86 50 65 92 88 90 89 88 87 85 85 85 82 81 81 79 78 77 76 74 73 70 64 67 72 79 83 82
16 13 13 14 14 14 13 13 13 15 24 29 31 25 33 47 49 52 56 58 63 86 69 63 92 85 85 88 88 87 86 86 84 82 81 80 80 80 78 76 75 75 72 71 71 76 81 82 81
14 14 13 12 13 13 13 14 15 18 21 29 32 30 31 50 49 55 58 61 64 83 90 78 85 81 87 88 87 88 88 86 83 82 81 81 81 80 80 79 79 78 77 78 80 82 81 80 79
15 12 10 12 14 15 15 21 20 18 21 22 31 34 34 46 53 58 60 62 69 79 91 83 87 82 85 79 90 85 88 86 83 83 82 82 82 82 81 81 82 83 81 82 83 82 81 78 78
12 12 12 12 14 14 13 20 18 18 16 37 30 30 30 52 56 60 63 74 75 78 94 90 96 94 97 96 94 84 80 86 84 84 85 85 83 82 80 80 83 85 83 82 81 82 81 79 82
13 12 11 11 14 12 14 16 18 25 22 35 38 34 44 52 53 57 62 77 92 83 85 86 96 94 98 97 95 83 87 87 84 84 87 86 61 61 65 68 84 86 83 81 82 83 83 84 83
13 12 11 9 10 12 12 13 13 21 16 29 35 44 55 52 51 54 55 72 94 94 98 93 95 95 96 98 98 92 89 87 84 79 68 52 62 63 48 73 88 87 84 83 84 84 84 64 42
12 13 10 11 11 11 13 13 16 20 20 16 26 31 50 54 55 54 56 67 87 83 96 86 93 89 92 95 96 98 98 97 92 86 74 68 64 59 52 65 65 64 70 50 56 58 38 39 35
14 12 10 10 10 13 15 14 20 20 20 31 30 36 50 54 54 50 56 70 83 85 84 90 76 84 90 93 96 96 97 96 95 86 72 73 64 63 54 52 51 54 46 50 47 42 44 42 38
16 10 12 11 12 13 15 18 19 20 22 33 40 45 55 57 51 56 60 69 89 84 82 83 85 88 86 87 92 97 97 97 92 86 71 65 59 63 46 46 48 45 42 44 43 43 46 43 40
11 12 10 10 13 14 18 14 32 17 22 40 44 45 50 56 52 53 62 74 91 84 83 87 87 82 76 76 81 92 98 95 95 88 62 61 58 57 44 48 40 39 41 40 39 41 41 38 37
12 16 14 14 13 13 16 18 32 18 33 39 41 42 48 62 55 60 60 69 81 82 81 89 91 80 72 72 83 85 98 96 93 86 66 62 58 60 54 43 42 37 36 40 37 40 37 35 34
15 15 16 11 12 16 23 18 12 20 32 32 37 38 45 49 50 52 64 66 68 84 92 86 86 84 75 70 89 84 97 97 94 82 61 62 60 63 58 49 44 39 37 36 37 36 36 35 32
19 15 16 13 13 18 25 17 17 27 28 26 30 37 42 42 46 45 51 58 64 79 85 94 91 88 87 86 92 86 92 94 95 84 50 53 52 54 52 48 51 46 38 38 36 35 34 34 31
18 19 14 15 14 18 19 19 15 20 29 32 27 34 40 42 42 42 50 55 59 62 85 91 94 88 84 88 94 88 87 88 93 90 72 52 41 50 50 44 53 45 40 40 38 42 37 34 31
13 16 14 10 13 19 18 15 12 12 19 26 30 34 37 40 38 41 49 53 58 66 73 92 97 94 91 94 92 94 91 84 92 86 75 63 46 51 52 46 49 46 44 45 50 48 48 40 36
16 18 16 12 16 18 13 12 13 12 15 18 24 31 35 38 41 45 49 53 59 61 69 82 94 93 93 82 82 84 80 85 84 81 74 63 56 50 57 63 51 49 46 54 56 59 49 41 41
20 19 18 16 16 16 17 17 15 13 17 19 25 24 29 35 40 45 50 52 58 63 71 63 74 91 91 84 81 84 90 94 92 85 65 62 55 54 54 67 52 55 53 57 62 60 60 54 53
22 16 18 20 21 16 18 20 15 15 14 13 14 27 29 33 36 40 47 50 55 56 63 58 65 77 84 85 85 88 85 77 76 71 70 55 61 60 54 60 56 64 62 59 61 61 64 58 58
22 17 22 21 22 20 16 19 15 15 17 14 13 14 28 30 34 40 46 45 46 53 60 64 63 71 86 85 85 85 85 78 67 72 69 63 73 67 67 67 64 70 74 73 71 74 77 63 64
20 23 24 24 22 31 20 20 16 14 15 12 11 12 18 27 32 36 42 46 45 49 55 65 66 69 86 87 84 87 82 81 81 86 84 78 70 71 74 63 69 67 67 69 84 78 73 68 66
22 26 31 33 37 34 20 24 21 16 15 14 14 13 19 28 31 36 42 47 46 50 55 58 68 70 74 86 83 80 71 70 85 86 76 70 67 68 68 69 71 65 65 70 68 70 67 71 68
29 26 28 44 39 26 27 29 20 15 16 17 16 16 18 25 31 35 38 46 46 50 52 54 60 67 75 79 78 76 69 63 72 75 71 70 65 58 69 74 60 52 61 61 57 58 58 61 65
30 33 22 30 41 39 28 25 20 15 14 14 13 14 16 16 28 32 36 44 47 50 54 56 53 54 64 70 72 73 69 65 61 60 68 66 63 62 70 72 71 61 56 60 57 58 60 63 66
28 23 38 33 43 45 28 29 22 19 16 14 16 17 17 20 25 32 34 42 44 48 48 56 50 48 52 59 63 62 63 58 56 57 59 57 54 55 56 58 61 59 56 56 57 59 58 61 61
32 33 30 27 30 38 37 28 20 19 20 20 18 18 18 19 26 31 32 37 41 44 47 51 50 48 50 54 56 58 57 57 57 56 55 56 57 54 54 54 54 52 51 52 53 54 52 53 57
22 27 29 38 38 36 40 28 19 22 20 21 20 17 18 18 21 26 32 37 41 44 46 47 49 46 47 51 55 59 60 57 59 60 58 61 59 58 56 55 55 54 52 53 54 56 52 56 59

GFSSGP_sfc_rhum_066.txt.gz
RH
41 23 20 19 20 18 15 10 8 8 9 12 15 16 18 17 18 45 37 45 48 54 72 73 92 93 91 91 91 91 88 86 85 87 86 86 85 84 84 83 82 81 80 76 74 74 74 78 82
17 14 16 16 23 20 12 8 10 8 10 14 14 14 16 19 23 23 44 42 43 44 63 67 90 92 92 91 91 90 87 86 85 86 87 85 84 85 83 82 81 80 79 75 75 75 75 79 81
26 18 15 18 18 18 13 8 8 8 9 10 12 12 16 23 28 28 42 44 47 50 50 63 89 90 92 91 89 90 87 86 85 85 86 84 85 84 83 82 80 78 77 73 73 74 77 81 80
19 15 14 18 18 12 9 8 8 8 8 10 12 15 19 26 26 36 37 42 49 54 52 86 88 89 91 91 89 88 88 87 86 86 85 85 83 83 84 81 78 76 75 72 72 74 78 80 78
15 11 16 17 15 11 8 8 8 9 9 13 12 17 21 33 30 34 38 44 52 59 70 79 88 89 90 89 86 83 81 88 87 87 86 85 82 83 82 80 77 75 74 77 75 78 80 79 76
15 12 18 17 12 8 8 8 8 9 9 9 14 18 22 32 30 41 43 47 57 63 77 78 83 89 86 90 89 88 84 82 83 88 86 83 83 82 81 79 77 78 79 82 82 82 79 79 80
16 14 16 13 12 10 8 9 11 10 10 12 15 20 22 34 36 43 45 56 66 72 80 83 85 86 92 94 92 91 96 96 82 88 85 84 83 81 80 80 80 83 85 85 84 83 81 80 77
13 14 16 13 13 11 8 11 10 10 11 14 12 17 29 40 43 47 47 62 67 79 87 88 91 93 92 93 89 88 97 94 92 88 86 85 83 83 83 83 84 86 86 85 82 84 83 81 79
11 16 17 13 12 10 9 11 10 8 10 11 11 16 30 39 36 44 48 68 75 80 83 86 89 91 90 92 91 86 87 88 94 88 88 85 75 78 79 81 87 87 87 86 85 86 85 81 74
13 17 14 10 9 8 7 9 9 10 11 14 12 16 32 30 34 38 37 59 72 76 89 89 88 89 87 85 94 95 97 95 94 82 82 70 76 79 75 86 89 89 87 86 87 87 83 69 66
13 16 11 9 7 7 7 8 7 10 12 11 16 16 23 35 36 40 43 40 60 73 85 90 84 86 84 85 91 97 97 97 98 90 78 76 74 84 90 89 83 87 86 78 80 79 61 55 58
13 10 10 9 8 8 8 7 9 9 13 11 11 17 19 29 36 34 34 38 62 74 82 84 83 86 89 91 95 95 98 97 97 92 79 86 86 86 89 71 72 72 70 71 69 65 61 56 55
14 10 8 8 8 8 8 8 9 10 10 9 10 21 27 30 30 30 36 43 54 70 86 80 76 75 79 85 95 98 97 99 96 93 87 86 78 85 76 67 67 63 65 63 60 59 55 56 54
13 10 8 8 8 8 9 9 10 11 9 9 14 22 28 29 31 29 38 42 58 71 80 82 80 75 73 84 88 94 97 99 99 98 96 88 81 81 73 71 61 61 62 58 56 54 57 56 56
12 13 11 9 9 10 9 11 13 9 9 10 13 20 24 37 32 32 34 44 60 67 70 83 84 81 84 82 85 93 95 96 96 97 97 92 83 78 79 81 74 62 59 62 59 54 58 58 51
16 15 18 11 10 9 10 15 10 9 9 10 15 20 24 32 35 32 35 41 57 61 76 82 80 87 86 87 92 93 96 94 93 94 96 92 82 72 84 82 72 60 58 60 60 60 60 60 58
22 22 18 14 9 10 10 14 10 9 10 14 17 17 23 28 36 35 35 42 51 56 72 83 84 84 88 88 92 94 98 97 94 94 94 88 81 71 78 84 80 60 65 61 57 64 61 61 59
28 22 19 16 11 11 11 12 11 12 13 17 16 16 21 26 29 34 36 41 48 57 80 86 85 86 87 89 94 95 98 98 94 93 93 83 72 69 74 74 82 72 74 67 64 63 63 62 59
21 24 23 17 10 12 14 13 11 11 11 17 17 18 18 25 26 32 38 45 50 64 68 85 89 90 92 92 94 97 98 98 96 90 84 79 67 66 68 71 70 63 62 64 64 66 60 61 59
24 33 31 20 12 13 13 13 11 10 11 11 13 17 19 20 27 33 39 45 53 67 80 88 92 90 88 86 83 84 90 93 90 91 81 77 70 63 66 70 73 69 67 70 68 62 62 59 57
27 30 27 21 14 12 13 16 14 11 9 9 10 12 14 20 27 35 40 46 55 62 73 81 90 89 86 87 91 91 93 93 93 93 92 70 67 62 61 70 68 72 76 79 74 73 67 69 64
28 20 20 20 21 23 14 23 16 13 11 10 11 15 15 14 22 33 39 44 52 56 77 78 87 89 83 86 86 90 90 90 78 83 84 73 72 62 54 62 68 67 75 81 81 74 76 76 66
30 26 28 24 22 24 19 21 18 12 12 11 12 14 16 16 20 31 38 40 43 52 66 76 82 88 83 84 81 83 82 81 75 77 83 84 83 74 81 65 83 84 73 84 84 82 76 80 87
31 40 37 28 28 36 24 23 23 18 14 11 11 12 13 16 19 24 34 38 40 50 63 67 79 84 83 85 80 81 76 78 78 78 84 84 75 73 80 71 82 86 88 84 86 81 89 89 83
28 51 52 50 47 46 23 25 26 17 12 12 13 11 14 19 21 24 32 37 40 52 64 65 72 78 81 87 83 80 76 76 77 74 77 77 74 69 67 84 88 80 81 84 81 83 88 83 87
33 45 51 77 63 37 22 27 21 14 12 11 10 13 14 17 24 23 29 37 39 49 57 59 61 69 78 85 85 79 74 72 71 75 69 73 72 66 62 76 82 84 75 78 85 84 85 88 88
40 57 33 38 44 51 36 20 15 15 13 12 12 13 15 18 21 24 26 36 40 45 55 60 58 62 72 81 84 82 79 74 73 74 74 72 68 66 70 80 83 85 84 76 68 74 76 76 78
34 27 49 39 70 69 36 28 27 19 18 13 14 16 18 17 18 23 26 37 38 41 46 58 54 55 70 76 81 81 81 77 75 72 73 73 72 68 64 73 78 77 79 75 73 75 71 71 72
38 39 43 44 41 56 60 44 29 25 20 21 20 18 21 21 22 22 25 32 38 41 42 52 51 53 59 74 78 79 82 79 77 76 72 71 73 71 67 66 71 74 75 72 70 71 66 70 69
30 43 38 62 54 43 52 44 26 26 24 22 19 20 21 21 20 22 27 32 38 40 40 46 49 48 53 61 73 78 77 79 81 79 74 73 74 71 68 65 66 68 71 70 72 73 64 66 66

GFSSGP_sfc_rhum_069.txt.gz
RH
71 51 40 38 43 40 40 26 19 15 28 25 18 22 25 28 37 70 62 57 72 80 90 88 94 90 90 91 92 92 87 87 88 88 87 85 84 84 82 82 84 82 79 74 68 70 73 80 85
39 25 30 38 42 50 37 20 18 19 20 19 17 16 22 42 44 61 61 55 60 76 82 91 95 92 91 92 92 92 87 86 88 88 86 85 85 86 86 85 84 82 79 76 73 73 74 82 83
38 25 38 39 41 43 37 20 15 13 13 14 17 17 21 45 35 56 58 56 61 65 73 82 94 95 92 92 91 91 88 87 88 87 86 85 86 86 86 85 82 81 78 74 72 74 78 83 84
31 36 30 34 36 27 22 16 12 12 14 13 16 22 37 38 41 53 54 53 65 65 66 89 92 95 94 92 91 90 90 88 89 87 85 85 86 85 84 84 81 79 78 74 74 77 81 83 82
30 33 33 38 29 19 15 13 12 12 16 18 16 22 45 45 45 48 55 53 63 77 90 88 92 94 92 91 90 87 90 90 89 87 85 86 85 85 84 82 80 80 78 76 78 80 80 79 79
33 28 36 35 24 17 14 12 11 12 13 13 17 23 50 43 47 58 57 61 64 90 92 88 88 91 88 86 86 88 83 87 84 84 85 84 85 84 83 80 80 81 81 81 83 80 79 81 79
38 37 34 28 22 17 13 13 14 13 13 20 23 28 52 46 57 57 60 73 84 90 90 92 93 95 93 94 94 95 94 93 96 82 85 88 86 84 82 81 81 85 85 85 84 81 82 79 78
30 32 32 25 23 19 13 16 13 13 16 20 17 25 56 56 55 57 72 79 83 94 93 94 98 96 97 96 93 94 95 92 93 95 88 90 85 84 84 85 85 85 86 84 82 83 80 79 74
29 31 29 25 21 17 13 18 17 12 14 17 17 19 44 54 56 60 84 88 89 94 96 95 98 97 98 96 94 91 90 91 90 90 93 97 78 82 83 85 87 87 86 85 85 84 80 77 72
28 32 26 18 16 15 11 14 15 14 16 20 19 49 51 48 53 61 76 91 92 93 96 96 96 98 97 96 97 97 96 96 92 92 94 91 80 80 84 88 89 89 88 88 86 84 81 72 70
28 28 20 16 14 13 13 12 12 14 18 15 21 48 47 47 51 52 51 71 91 91 97 96 96 96 95 97 99 100 100 98 96 94 98 91 81 92 92 91 88 90 89 86 82 79 69 63 66
31 21 18 16 13 13 13 11 12 15 18 14 17 32 46 49 51 49 53 87 94 93 95 94 95 96 97 96 99 99 99 99 96 96 95 94 94 91 91 90 90 87 84 87 86 77 66 61 61
26 20 16 13 12 12 11 12 13 14 13 14 17 27 32 48 44 45 60 76 89 96 93 93 93 92 94 97 98 99 98 99 96 96 93 94 90 88 82 87 83 77 79 82 80 74 63 57 60
21 20 17 15 13 10 11 13 13 14 12 11 14 35 34 40 40 49 56 75 86 95 95 91 86 85 95 98 98 99 99 98 99 98 97 90 90 87 75 79 74 74 69 67 69 72 63 60 63
19 22 18 16 14 13 11 16 18 14 12 12 16 33 38 42 41 46 53 76 89 93 94 94 90 86 89 94 98 99 99 97 98 98 96 88 88 84 73 73 75 76 72 61 71 72 66 65 63
31 26 29 19 15 14 15 19 14 13 13 14 14 31 36 45 42 43 59 76 86 87 91 90 86 93 92 96 97 99 98 98 96 98 97 92 83 78 81 75 68 71 67 65 69 73 61 68 66
37 41 31 22 14 14 16 16 13 11 11 15 15 28 38 46 49 47 59 74 79 87 83 91 91 94 95 96 97 98 98 97 96 97 95 93 83 80 80 80 76 68 69 79 68 66 60 62 68
50 37 29 24 17 16 15 15 13 12 15 23 25 25 35 47 46 46 53 68 72 88 88 90 91 93 94 96 97 98 98 98 96 95 94 90 83 80 82 81 86 91 77 87 66 58 71 63 62
34 34 29 25 24 28 25 18 15 13 18 25 25 24 28 42 44 45 50 63 72 91 94 90 94 94 95 97 98 98 97 98 97 94 92 92 84 77 76 78 87 82 82 84 64 64 66 70 65
35 35 32 25 24 25 21 17 16 14 16 19 24 26 25 37 46 46 53 62 73 93 95 90 95 96 94 90 91 90 94 96 93 93 93 87 84 72 73 79 82 70 85 89 78 64 69 62 65
42 34 30 31 26 23 22 20 19 15 15 14 18 20 22 36 48 48 55 61 83 87 97 93 92 92 92 90 92 94 96 98 97 95 93 86 83 66 65 73 78 77 76 83 74 66 60 64 64
59 35 27 27 30 43 26 35 23 17 15 15 13 20 24 34 44 46 52 61 82 90 95 95 89 88 87 90 90 93 92 95 89 88 84 74 79 75 68 70 68 72 82 83 82 75 71 75 62
61 44 41 45 52 51 38 35 27 21 21 17 14 17 21 25 44 47 50 57 61 83 92 96 92 88 84 88 87 88 82 81 80 82 77 77 82 78 75 78 82 82 84 88 87 87 82 78 86
47 54 52 51 58 74 41 35 33 24 19 20 15 14 19 22 42 45 47 55 61 86 93 97 92 89 85 87 87 86 83 84 87 91 86 87 89 86 84 75 86 86 86 90 91 89 87 90 89
48 76 86 76 70 72 31 34 28 23 18 18 19 16 17 22 43 47 51 53 60 88 93 96 96 89 88 87 86 85 88 85 82 85 89 88 86 80 83 86 88 91 90 89 91 90 90 90 92
52 74 84 91 92 61 34 40 28 19 16 16 15 17 26 31 42 46 48 50 57 74 79 89 93 93 85 88 84 80 75 83 80 77 81 80 79 76 70 90 89 85 85 89 91 92 94 93 94
74 68 50 89 67 86 60 36 21 19 17 16 15 15 22 33 37 45 46 48 56 70 73 74 88 90 89 88 84 82 76 76 79 76 71 73 72 71 72 76 87 87 83 86 90 91 88 85 85
66 50 89 99 96 95 56 50 36 36 21 18 21 22 22 28 33 41 45 48 52 64 69 70 76 80 86 89 84 82 78 75 74 75 72 69 70 68 67 70 78 84 82 80 80 80 80 81 82
56 85 91 84 72 78 88 69 44 33 31 29 28 29 31 29 32 36 43 46 50 58 66 67 69 72 82 86 80 80 81 78 75 74 77 73 71 71 68 69 76 79 80 82 82 78 74 75 74
50 51 76 98 89 66 69 68 35 30 31 31 32 26 27 31 33 38 46 48 51 55 62 65 65 66 75 79 84 76 81 81 81 77 74 76 75 74 72 70 70 71 74 75 77 75 72 78 78

GFSSGP_sfc_rhum_072.txt.gz
RH
77 51 39 40 48 45 48 33 24 21 31 25 23 24 29 36 36 54 64 82 86 94 94 92 95 93 92 92 92 90 90 89 89 88 87 87 86 85 84 82 81 81 79 74 72 75 78 79 86
45 31 34 43 49 56 42 30 23 20 25 22 19 22 28 54 62 67 67 78 79 87 95 93 94 93 92 93 93 90 89 89 89 87 86 86 86 84 86 84 82 80 79 71 70 77 78 84 86
38 29 43 46 53 53 41 26 16 15 19 17 20 20 39 52 62 63 62 74 82 84 90 93 93 93 93 93 93 90 89 90 89 87 85 86 84 86 88 87 84 79 74 72 69 74 82 86 86
31 40 44 40 42 36 31 24 20 16 15 18 20 43 43 42 56 60 62 68 81 83 84 94 96 94 94 93 93 91 90 91 90 87 86 86 86 87 87 86 83 80 80 76 75 80 85 87 85
35 38 49 49 37 26 22 20 17 15 16 19 18 27 49 58 57 60 62 66 72 87 89 93 97 95 94 93 93 92 91 92 91 88 87 87 87 87 87 86 82 80 78 78 80 84 87 85 82
37 37 45 46 32 21 19 17 16 15 20 21 21 50 55 55 56 66 66 70 86 95 95 95 94 96 95 92 89 88 92 92 90 88 87 87 86 86 86 84 82 82 82 82 83 84 82 80 79
39 46 43 37 29 23 18 18 15 15 14 23 25 42 63 56 63 66 70 86 95 96 96 95 94 94 94 94 94 93 86 92 95 92 88 82 88 84 85 85 84 83 85 85 84 83 81 78 78
36 42 53 41 36 31 20 16 16 14 15 22 21 47 64 53 66 72 86 92 96 95 96 97 97 97 98 98 96 97 94 96 95 96 94 94 91 88 86 87 86 85 85 86 85 83 80 78 79
38 52 53 39 31 25 19 18 14 14 23 23 21 33 43 57 64 83 91 92 97 96 96 98 99 97 97 97 96 95 95 92 97 94 92 96 96 87 85 85 87 87 87 86 85 82 81 80 77
47 50 46 30 24 22 18 20 15 16 17 22 37 64 59 57 62 80 90 93 94 98 97 98 99 99 97 93 96 98 95 93 91 91 92 93 97 91 82 88 88 89 88 88 86 83 82 72 68
43 43 33 26 21 19 21 19 15 14 20 20 28 68 63 63 65 72 85 89 91 96 98 98 99 99 96 97 98 99 100 99 98 94 94 95 96 96 91 91 88 89 89 88 83 79 69 70 70
45 32 28 26 22 21 20 16 16 15 16 17 29 57 59 60 64 63 68 94 96 97 98 98 98 98 98 99 99 99 98 99 98 97 93 96 96 96 90 87 90 86 84 90 86 80 74 71 67
38 34 28 25 22 20 17 18 16 15 13 13 33 52 57 57 57 58 87 93 95 97 97 98 98 96 95 98 99 99 100 98 97 95 96 96 92 88 84 86 91 87 86 81 84 76 70 66 64
28 30 28 25 21 18 18 16 16 14 13 13 34 52 53 56 54 79 89 96 94 96 97 97 98 93 90 98 99 98 98 98 96 96 93 97 86 84 85 87 93 89 82 78 71 75 67 65 66
30 31 24 22 23 22 19 19 20 12 13 14 14 36 41 53 52 70 80 93 94 95 95 95 96 92 94 98 99 99 99 98 97 92 92 97 87 89 89 86 85 82 77 77 81 82 68 66 69
38 39 42 26 22 19 19 25 16 14 15 15 15 31 40 48 46 54 70 86 94 95 96 95 90 96 98 98 99 99 99 99 99 96 93 95 85 80 83 79 78 70 72 66 72 83 76 71 76
47 53 43 32 21 20 19 21 16 14 15 15 16 24 42 48 54 57 75 85 94 94 96 96 90 93 98 98 98 97 98 98 99 98 97 95 80 77 75 78 79 72 67 68 73 86 78 78 79
56 51 54 37 23 24 29 30 22 18 16 15 14 23 38 47 49 59 77 80 93 94 94 91 93 94 98 98 99 98 99 99 99 98 96 95 84 72 76 74 84 80 66 73 75 82 79 73 76
43 45 46 39 29 32 32 29 24 21 18 16 25 28 36 46 46 61 75 81 93 94 94 93 96 96 97 98 97 99 98 99 99 97 94 94 90 78 71 68 86 74 80 76 70 76 67 73 76
47 49 48 35 26 29 34 32 25 20 18 16 24 30 36 50 57 61 78 83 93 95 93 95 95 96 96 89 90 91 94 98 94 96 96 93 88 81 72 67 82 77 80 89 81 76 74 71 70
47 49 50 48 31 29 33 36 30 24 17 17 22 25 29 50 57 58 73 82 96 96 96 95 96 94 94 94 95 98 97 99 99 98 98 98 94 83 82 74 77 83 80 85 84 76 67 74 76
56 40 48 51 45 52 40 65 35 26 21 18 18 25 30 44 51 52 63 82 96 96 96 96 96 94 91 93 90 95 90 95 90 92 93 94 94 89 83 84 80 83 85 89 89 81 69 71 65
58 46 62 56 65 67 47 55 38 26 24 22 20 20 32 43 50 53 57 75 86 93 95 96 95 95 94 91 89 92 92 87 92 91 91 91 94 90 86 86 83 87 90 92 88 88 80 79 83
48 68 66 58 64 83 49 48 44 30 22 20 20 19 26 44 48 49 54 71 89 97 91 96 96 95 94 90 90 88 90 88 91 92 93 91 86 89 82 84 85 88 87 91 90 89 85 83 79
65 90 87 80 83 77 40 43 38 28 23 23 23 20 21 41 49 53 62 73 95 98 92 89 94 95 96 93 91 86 82 82 86 88 86 86 89 85 74 80 89 86 84 87 81 84 87 89 89
66 90 95 91 93 80 47 49 34 23 18 18 18 19 27 45 50 55 61 64 90 95 91 86 86 84 90 90 90 85 81 80 85 91 87 82 81 78 74 79 81 86 80 78 89 87 89 94 95
69 92 67 94 88 91 65 50 30 28 24 21 20 23 38 48 54 55 57 60 84 94 95 93 88 85 87 90 88 87 85 87 87 84 89 86 78 74 80 80 83 83 83 82 87 93 90 91 90
60 58 90 99 96 94 61 54 56 40 35 29 36 40 42 48 54 54 53 58 72 84 90 94 94 90 88 85 86 85 83 79 82 84 82 86 84 81 76 79 82 87 84 80 82 83 86 87 88
84 95 94 82 81 97 92 90 52 54 39 38 42 44 47 50 45 55 53 55 65 75 82 94 93 94 88 79 82 81 82 78 80 82 82 78 79 80 75 75 74 80 83 82 80 77 79 85 82
59 78 93 99 89 81 94 88 72 72 55 41 44 45 50 55 53 55 59 62 72 77 76 83 88 91 92 89 88 87 82 79 78 80 79 78 74 73 76 73 74 73 76 77 81 81 75 81 80

GFSSGP_sfc_rhum_075.txt.gz
RH
80 53 42 42 45 51 57 37 31 25 23 27 26 28 29 36 30 39 70 81 89 96 96 94 95 94 94 90 90 91 90 89 90 89 88 87 87 86 86 85 85 83 80 76 75 77 77 81 87
50 34 38 44 55 58 44 36 29 24 21 26 29 41 42 52 68 70 81 85 88 94 96 94 95 94 94 93 91 91 89 89 89 89 88 87 86 86 86 86 85 82 80 76 76 77 79 84 89
36 34 39 50 61 55 37 31 24 20 18 25 23 29 42 55 67 72 67 83 88 97 90 94 95 95 94 95 93 92 89 90 89 89 87 87 86 84 85 86 84 82 79 76 75 79 82 89 88
33 40 45 51 51 45 35 28 28 21 16 18 23 44 47 53 68 64 74 83 90 96 94 96 95 95 95 95 93 92 92 91 89 88 87 86 85 85 86 86 83 79 72 75 77 82 87 88 87
38 46 62 63 49 36 29 25 22 20 20 18 24 40 50 53 62 67 80 83 91 95 97 98 96 95 95 94 93 92 94 93 90 88 86 85 86 87 88 85 81 77 78 78 84 87 88 87 87
38 42 56 62 42 28 23 22 20 19 18 17 25 48 57 62 70 72 78 82 86 95 96 98 97 95 95 94 93 92 94 93 91 89 87 86 88 89 88 86 83 81 80 84 86 87 87 85 84
34 45 51 44 35 28 22 21 21 20 19 21 29 57 63 69 69 74 79 93 94 96 98 98 99 96 97 98 95 93 91 85 85 90 90 89 89 89 86 84 83 84 85 86 88 86 81 82 84
41 44 59 42 36 31 21 22 21 21 18 24 39 60 68 62 71 84 92 97 97 97 97 97 99 98 97 96 96 96 93 93 96 96 92 93 92 89 83 85 85 86 87 87 86 82 82 84 84
38 53 61 44 36 26 24 24 20 19 20 24 25 52 48 62 79 92 96 98 98 98 98 99 99 98 98 98 98 95 92 93 92 94 96 96 96 95 90 89 87 88 89 87 84 81 82 83 84
52 64 43 35 25 27 26 28 22 19 19 20 26 60 67 64 77 86 94 97 99 98 99 99 99 99 98 96 98 98 96 94 92 92 91 92 94 94 87 93 89 90 89 87 84 84 84 79 77
54 44 37 34 30 31 31 24 23 22 22 19 22 49 71 70 75 83 90 92 92 95 98 97 99 99 97 98 99 99 99 98 97 96 93 94 97 97 97 95 94 94 88 84 80 81 75 74 76
51 42 35 36 31 31 28 26 23 22 20 17 17 50 68 69 73 78 89 94 95 98 97 99 99 98 97 98 99 99 99 99 98 98 94 97 98 97 92 94 95 93 90 93 81 74 70 71 68
44 42 35 33 31 29 26 27 24 22 18 16 17 66 69 66 66 72 81 93 95 98 99 98 97 99 98 99 99 99 98 99 97 97 95 95 95 96 95 89 91 89 87 88 82 72 65 68 69
30 30 31 31 32 32 30 27 28 20 15 15 22 66 66 66 69 82 92 96 96 96 99 98 96 94 98 97 98 97 98 98 98 98 94 92 93 92 88 86 90 89 86 84 77 71 68 69 69
35 41 36 32 30 31 27 28 28 19 16 16 21 50 59 64 64 70 85 93 93 94 97 99 98 97 97 97 98 98 99 97 98 97 95 95 90 94 89 84 92 91 87 82 82 73 70 72 71
44 45 52 36 29 26 24 32 23 19 18 18 17 32 52 64 55 66 88 92 95 96 98 99 96 98 97 98 96 94 98 98 98 96 95 92 91 87 89 87 91 88 85 81 75 72 71 77 73
56 57 52 41 26 26 26 28 23 19 18 19 18 21 43 51 59 72 87 93 95 96 97 98 98 98 98 99 95 97 98 98 99 97 95 91 97 89 90 88 85 82 78 77 76 87 70 80 82
64 60 64 47 34 31 33 34 29 25 26 25 22 19 36 44 51 57 84 94 94 96 96 97 98 98 99 99 98 98 99 99 99 98 94 96 93 88 84 81 85 82 71 86 86 82 81 81 80
48 52 55 49 37 40 40 36 31 29 30 28 24 20 29 45 38 68 85 93 97 98 97 97 98 98 98 99 98 97 99 99 99 99 96 96 94 87 76 78 82 73 71 75 82 85 76 89 86
51 55 55 46 37 38 39 39 31 27 29 25 22 20 22 50 69 84 92 96 97 96 96 96 97 97 95 90 92 93 95 98 98 98 98 97 94 90 74 75 74 68 67 85 87 81 81 76 77
57 56 56 53 46 39 46 44 34 27 27 25 19 18 27 49 64 83 89 96 96 97 96 94 96 98 92 87 95 97 98 99 99 99 99 96 92 90 83 74 71 72 69 80 80 78 70 75 85
71 46 46 60 65 67 44 68 44 36 31 26 22 27 34 52 56 69 82 97 94 93 92 90 90 97 97 94 90 92 89 96 89 94 98 98 93 90 84 84 84 81 81 84 85 79 71 71 71
66 54 68 66 74 69 64 68 48 35 33 27 23 21 28 45 56 62 76 87 94 87 87 86 86 85 91 97 90 92 90 90 94 94 97 98 98 95 94 89 94 92 94 88 88 89 82 82 79
49 75 79 70 68 98 65 58 59 41 30 24 22 24 23 36 52 54 64 82 93 83 85 88 89 89 93 96 96 94 89 90 98 95 96 96 99 98 97 96 92 92 97 95 92 92 89 86 82
64 87 90 94 96 87 50 55 45 34 28 26 24 21 23 36 50 58 72 91 90 88 87 89 92 91 90 97 97 96 94 90 90 95 94 95 95 95 96 95 96 91 88 94 96 94 95 94 94
77 82 92 92 93 75 47 58 41 27 23 28 28 24 23 27 46 57 68 86 93 87 85 87 92 90 87 90 91 96 94 86 85 87 89 91 89 86 86 89 91 89 90 93 95 96 95 95 97
90 96 69 99 92 95 72 53 37 37 36 37 47 35 30 43 48 58 67 83 93 88 86 86 86 93 86 84 87 95 92 89 86 92 90 86 86 82 81 84 87 88 86 90 93 93 91 91 91
74 64 96 99 96 96 71 56 72 73 68 52 53 59 58 62 62 62 66 81 88 91 85 83 81 91 81 81 79 85 93 91 93 95 96 91 88 83 89 85 84 90 87 86 87 86 83 88 87
86 92 94 86 87 98 95 95 74 94 85 64 61 68 76 62 64 62 66 80 93 95 86 84 83 88 82 83 81 84 95 91 85 89 92 94 94 93 91 83 81 82 85 81 81 78 79 87 83
74 80 94 99 94 89 99 86 74 85 83 63 68 74 81 79 71 70 76 84 88 93 94 91 90 86 82 92 82 79 94 86 85 85 88 88 90 92 87 88 81 79 81 80 81 81 77 84 80

GFSSGP_sfc_rhum_078.txt.gz
RH
84 58 46 43 40 54 60 39 37 29 24 29 28 32 30 29 34 34 63 86 88 94 95 96 95 93 92 91 90 92 92 91 90 89 89 88 88 87 86 87 85 83 81 79 79 76 76 80 87
64 37 40 48 48 50 40 42 33 28 22 25 37 45 44 39 70 74 79 79 91 94 91 96 96 94 92 92 92 90 91 91 90 90 89 89 88 87 86 86 86 82 79 79 75 77 81 86 89
39 36 42 52 68 42 33 32 28 26 21 26 25 35 39 43 70 74 74 84 95 98 91 97 96 95 93 92 92 92 90 91 90 90 88 88 88 87 87 86 85 82 80 79 76 79 85 90 90
38 40 46 55 60 46 32 27 29 24 19 21 26 36 46 56 68 69 72 92 96 97 94 97 97 96 94 93 93 91 92 92 91 90 88 87 87 87 89 88 85 81 80 79 79 84 90 90 90
41 50 62 76 61 41 35 30 29 24 24 22 25 29 48 52 67 73 92 90 96 98 91 94 98 96 94 93 93 92 93 93 92 90 88 87 86 87 88 87 84 82 81 81 84 89 90 89 89
38 47 67 71 54 32 28 25 24 21 22 20 24 31 46 68 73 86 94 94 94 97 99 97 96 96 96 94 94 94 94 94 92 91 89 86 84 84 85 86 84 80 82 85 89 90 88 88 87
30 50 60 55 46 37 22 23 22 23 22 20 28 37 54 71 76 83 88 91 94 95 97 99 93 93 97 98 96 93 94 92 93 91 88 94 85 88 82 84 82 83 85 90 90 89 88 87 87
42 42 61 45 36 32 21 25 24 22 22 25 46 48 48 67 80 88 92 93 96 98 98 98 95 95 96 97 98 97 94 93 94 93 93 92 90 85 81 89 84 82 89 90 89 87 87 87 87
43 51 62 44 37 26 27 30 24 22 21 23 26 48 53 73 86 95 98 99 99 99 98 99 100 99 97 96 96 98 94 94 93 92 90 92 92 94 88 92 88 87 90 90 85 85 88 88 87
53 66 38 37 31 28 29 33 26 25 26 26 24 43 70 77 87 91 96 99 98 99 100 99 99 99 99 99 99 99 95 95 94 92 91 90 92 92 89 89 93 87 90 87 84 88 89 86 85
66 53 41 37 32 33 38 31 26 26 29 24 24 28 76 81 87 90 90 92 95 97 99 98 97 99 97 98 99 99 98 98 96 94 92 93 94 93 94 95 95 93 89 83 82 89 83 86 84
58 49 42 37 32 36 34 34 29 27 27 23 21 21 63 78 84 84 90 93 95 97 98 96 96 98 97 99 99 99 99 98 98 95 95 97 96 95 94 97 96 96 90 86 91 85 86 84 81
44 41 40 38 37 37 33 35 31 30 25 22 22 24 57 72 74 74 83 91 94 96 98 92 97 97 96 98 99 99 99 98 96 97 93 96 95 96 95 97 97 95 93 86 88 81 82 82 78
30 29 30 32 34 35 36 33 38 34 25 24 20 20 48 73 71 84 90 89 94 94 98 95 97 94 97 98 98 98 99 99 98 97 95 94 94 96 96 97 97 97 92 85 79 75 76 76 78
38 48 44 42 38 39 36 39 39 29 24 23 21 20 46 74 70 74 68 80 90 94 97 96 97 96 99 98 98 97 98 98 98 98 95 94 93 95 92 94 96 96 87 82 80 78 76 77 75
46 54 62 42 40 32 30 38 28 26 24 23 22 21 42 71 68 64 70 86 95 97 99 90 85 98 99 99 97 97 98 95 96 97 96 94 91 93 94 94 95 93 86 78 74 75 79 80 83
59 67 58 49 33 33 33 35 29 25 25 24 23 22 23 57 68 60 83 92 96 95 98 94 92 97 99 99 96 96 98 98 98 97 97 95 89 87 94 95 95 90 83 79 74 77 76 81 82
66 65 72 62 42 44 42 41 36 31 32 31 31 29 24 30 46 52 85 95 96 97 97 93 95 98 98 94 96 99 99 98 98 98 96 94 93 91 98 96 95 89 80 83 76 76 86 86 84
52 58 62 60 42 47 43 44 39 35 35 34 32 32 30 26 28 54 88 97 98 98 98 94 96 98 94 96 97 99 99 99 99 99 95 95 91 92 96 94 91 86 82 78 76 77 83 94 90
46 55 61 50 43 45 52 51 40 36 35 31 28 28 28 28 53 80 94 97 97 94 91 96 97 95 94 94 96 92 96 99 99 99 98 97 96 95 93 89 86 77 78 84 81 71 84 90 84
61 65 63 58 50 52 54 50 42 33 32 30 29 26 24 24 55 87 96 96 97 90 90 93 94 92 97 93 96 99 98 99 100 99 99 98 97 95 94 89 84 72 73 78 77 75 77 84 87
76 56 55 56 75 75 60 80 51 43 37 33 29 28 25 32 47 77 90 96 94 87 86 95 97 90 86 88 90 97 96 98 96 99 99 98 97 96 91 88 82 73 74 80 78 74 70 78 80
69 61 72 74 84 88 76 85 62 44 42 36 31 28 25 38 56 75 84 89 91 87 94 97 98 92 88 88 86 97 96 94 96 99 99 99 98 94 92 92 85 82 83 85 86 90 84 80 79
58 73 78 82 83 94 69 79 68 47 37 30 27 24 25 30 59 67 83 93 85 83 95 95 89 88 88 91 85 96 93 94 99 99 99 99 99 98 93 93 94 94 92 91 91 91 86 86 84
77 82 94 96 95 86 57 75 59 36 31 31 35 38 33 27 51 69 89 97 87 90 85 82 85 86 84 93 90 91 95 94 96 96 97 98 98 98 98 94 95 91 88 94 94 93 90 90 89
90 84 91 96 97 92 52 66 48 48 54 46 51 57 57 35 40 64 79 93 90 85 82 87 89 86 90 88 93 96 96 97 97 96 95 94 95 96 98 95 94 89 96 96 94 95 97 96 97
80 98 84 99 88 96 73 58 54 69 73 62 68 75 82 78 44 58 69 90 91 84 85 85 88 84 88 88 88 95 98 96 88 91 93 93 92 91 95 96 98 97 93 92 94 95 95 97 96
75 69 99 99 97 95 74 76 85 82 80 73 82 90 90 77 66 65 79 91 87 84 82 85 85 84 82 83 84 89 90 94 92 97 94 90 91 90 93 90 91 95 94 92 92 90 92 96 95
87 91 93 94 98 95 97 90 78 88 86 76 79 77 85 81 71 78 95 96 82 82 83 86 84 90 83 84 86 90 93 92 95 94 96 96 90 89 89 86 86 91 91 91 94 92 91 94 92
68 86 91 99 99 96 97 88 84 86 72 77 80 82 84 87 88 91 91 86 83 85 88 91 88 83 80 86 87 90 92 92 96 90 90 95 96 90 87 88 86 86 87 88 88 90 85 89 89

GFSSGP_sfc_rhum_081.txt.gz
RH
67 45 29 27 25 28 24 19 24 20 18 19 20 20 18 20 34 26 45 62 70 76 82 79 85 87 91 92 94 94 91 88 89 90 89 89 90 89 87 87 86 82 82 79 79 80 78 80 88
43 28 28 31 24 17 11 25 22 18 16 17 24 30 29 24 43 47 49 64 63 74 79 78 88 89 93 91 94 94 92 90 90 90 90 90 89 88 88 88 86 83 82 81 76 77 78 85 90
29 26 25 30 31 14 10 20 18 18 17 18 17 23 22 26 50 46 48 62 72 72 81 81 93 91 90 92 93 93 85 91 90 90 89 89 88 87 87 88 86 83 82 80 75 76 85 90 90
27 26 29 29 27 25 14 16 21 19 14 15 17 16 28 36 48 49 52 64 74 75 83 91 95 88 89 93 92 93 91 90 89 90 89 88 87 86 83 86 85 82 82 79 79 83 90 92 92
27 29 27 37 34 28 26 20 20 18 17 16 14 15 27 36 48 55 64 68 73 79 82 83 97 92 90 88 91 92 94 90 92 92 90 87 87 85 83 84 84 83 81 80 83 90 91 91 91
25 30 27 23 29 26 20 20 18 16 16 13 17 17 22 44 52 62 72 72 77 87 86 87 94 95 90 90 92 93 94 95 92 92 90 89 84 84 79 79 80 80 84 84 90 91 91 91 90
23 30 22 28 28 27 16 18 17 13 14 15 17 21 28 45 52 68 71 76 80 85 93 91 90 89 96 94 96 95 94 93 94 94 92 89 93 91 86 81 82 83 83 89 91 91 90 89 88
24 24 30 29 23 20 17 19 16 16 14 16 29 32 24 38 62 70 72 77 80 83 88 93 91 89 88 90 97 95 95 94 94 92 93 91 89 86 85 87 79 82 87 90 90 90 89 89 89
29 28 29 26 24 17 19 18 16 16 16 16 15 23 34 53 68 73 76 84 86 87 84 88 91 91 91 94 95 97 94 94 93 92 92 93 82 77 76 83 85 81 88 91 90 90 89 89 87
33 36 27 25 21 20 18 19 16 18 18 18 18 18 53 65 68 68 68 73 84 93 94 93 92 93 92 92 92 93 91 88 93 91 87 82 84 80 80 85 90 88 95 92 91 90 90 78 62
41 33 32 27 24 22 22 22 19 20 23 20 22 18 26 53 66 65 67 63 66 85 92 95 96 94 91 92 95 98 97 95 96 92 91 83 84 82 79 85 90 95 95 92 78 78 63 64 59
34 41 31 26 22 23 23 19 21 21 23 19 19 19 19 26 46 59 58 57 72 81 90 93 92 94 93 89 96 95 95 96 97 94 90 86 86 86 84 82 92 98 97 94 72 66 66 67 64
37 31 29 27 27 28 28 30 30 27 23 20 20 22 23 23 26 36 48 55 67 77 82 89 90 88 87 92 93 96 96 97 95 92 90 86 80 87 82 87 91 97 96 94 70 65 66 67 64
29 26 25 26 28 27 28 25 27 24 22 22 23 21 21 21 23 34 53 62 68 70 79 86 86 85 83 86 92 97 98 96 95 93 90 92 88 87 83 87 90 93 95 90 65 64 65 62 61
27 31 28 30 30 31 27 31 33 24 22 25 22 19 18 24 26 42 47 56 63 67 75 87 89 84 88 90 88 93 97 98 97 96 92 91 89 91 86 86 93 89 90 86 67 65 62 62 59
28 33 32 32 33 30 30 31 21 19 21 20 19 19 19 17 21 33 47 52 60 66 78 86 85 87 86 89 89 89 95 97 97 97 97 92 87 87 90 88 92 91 90 86 66 62 62 62 60
38 31 47 38 30 30 30 32 24 21 22 22 21 19 18 19 18 36 49 54 61 66 79 86 88 82 92 94 91 86 93 92 93 94 97 95 90 85 93 94 92 90 92 83 66 64 64 66 62
35 46 47 45 32 30 33 34 30 27 27 29 25 23 24 22 19 19 42 55 62 70 80 84 87 81 92 95 92 91 94 94 92 95 90 87 89 89 96 96 96 94 93 82 67 68 64 63 61
32 37 38 39 34 36 33 31 28 28 29 29 26 24 23 22 19 19 37 66 73 77 86 86 90 91 94 97 95 97 95 92 92 94 88 91 90 90 94 98 95 94 93 81 71 68 71 67 62
38 40 40 38 36 37 37 37 32 31 30 27 26 24 22 21 20 23 48 72 75 79 85 88 89 92 95 88 82 85 86 92 90 88 91 92 93 94 94 96 95 92 89 80 72 72 69 66 66
45 51 52 51 43 41 44 40 29 26 26 25 26 24 22 22 22 24 57 71 74 78 85 86 87 91 91 87 83 90 93 96 99 98 96 97 96 95 96 94 95 90 82 78 72 71 68 69 69
64 49 50 55 59 62 47 60 39 32 29 28 26 27 25 23 22 22 50 67 74 75 80 83 86 86 88 82 76 91 86 90 91 98 93 97 94 96 96 94 94 88 81 80 74 68 67 69 72
58 52 57 59 63 68 56 64 43 37 35 30 28 27 25 25 25 27 50 58 68 74 79 84 85 87 86 75 73 87 87 85 93 98 98 97 98 95 94 94 91 85 80 82 79 78 73 68 68
52 59 61 65 66 82 53 56 47 39 34 30 25 25 29 31 28 40 52 63 71 73 82 87 88 86 85 78 79 86 76 84 95 97 98 99 98 94 93 92 93 88 86 84 81 80 76 77 76
62 69 69 74 85 61 47 60 48 43 61 54 55 55 54 55 34 55 66 69 74 79 88 86 86 88 88 88 85 84 76 83 88 88 91 97 98 98 97 92 91 91 86 82 80 82 78 78 78
72 65 67 80 76 69 54 60 49 62 57 60 64 68 67 66 62 47 61 72 72 77 85 82 79 79 88 88 84 83 76 73 77 79 82 83 86 90 96 93 92 88 87 87 87 88 84 84 86
77 82 66 92 75 88 54 45 58 56 60 60 66 68 75 75 61 54 54 71 73 77 80 76 78 80 86 86 85 88 81 77 76 81 81 86 90 90 97 95 97 93 87 85 87 90 92 91 93
70 66 98 98 86 79 57 60 67 78 74 70 75 78 82 82 71 58 60 78 76 74 75 84 80 82 83 84 86 86 85 80 78 84 87 90 89 86 94 97 95 96 93 88 84 83 86 92 95
79 95 87 93 92 77 74 62 76 82 83 88 81 82 86 88 85 82 76 73 79 77 84 86 84 85 83 78 83 86 87 87 84 82 78 80 87 87 86 89 94 92 90 90 90 84 87 87 88
65 76 72 89 86 91 86 70 76 84 83 84 78 79 82 85 88 90 83 80 86 87 87 88 87 84 80 75 77 84 87 87 87 79 81 85 80 78 84 86 86 89 93 91 88 87 87 89 88

GFSSGP_sfc_rhum_084.txt.gz
RH
46 24 14 17 16 11 8 7 7 12 14 13 15 11 13 13 17 18 27 38 41 47 54 69 87 90 92 92 93 93 92 89 89 89 90 90 90 90 90 89 87 84 82 81 78 78 78 82 88
21 19 14 13 11 9 7 7 8 8 11 12 13 15 16 15 17 24 34 39 38 42 48 59 84 90 92 94 94 94 91 90 90 90 90 90 90 90 88 88 87 84 82 82 78 78 81 87 90
19 14 12 11 11 9 6 6 7 11 11 12 15 17 16 18 26 23 26 40 44 44 46 52 88 90 93 94 94 93 91 90 89 90 90 90 89 88 87 88 86 84 83 82 78 78 87 91 92
17 14 12 14 10 10 7 6 11 12 10 10 12 13 13 20 26 25 29 41 45 46 50 79 90 92 93 92 94 92 85 94 93 92 90 89 85 84 87 89 86 83 82 80 79 85 92 93 92
15 11 12 12 9 7 9 8 9 13 13 11 8 11 14 18 24 31 33 40 44 51 56 67 92 90 90 92 92 93 90 91 93 92 84 82 83 87 87 86 80 83 80 79 80 89 93 93 92
15 13 12 10 9 10 10 6 9 10 8 9 8 11 13 22 26 32 36 41 46 54 64 65 88 90 89 93 93 94 94 91 92 93 86 84 85 80 78 79 80 82 80 81 84 92 92 92 91
16 14 13 11 9 10 10 7 10 8 6 6 9 14 12 18 28 40 40 45 55 60 65 75 76 76 93 91 95 94 95 93 92 93 92 86 84 81 86 86 83 84 84 85 89 92 92 91 90
15 14 16 12 14 12 9 10 8 8 7 10 11 16 17 20 28 46 45 52 58 66 74 83 83 81 78 77 95 95 94 94 96 94 95 92 89 90 91 92 90 90 88 86 90 93 92 92 90
14 17 17 14 15 13 11 11 9 9 10 8 10 12 14 23 34 46 49 53 54 62 65 75 84 85 84 79 79 94 95 93 93 91 93 91 69 78 91 87 86 84 87 89 92 93 92 92 91
18 19 16 13 14 14 12 11 10 10 11 13 11 10 12 21 26 37 43 46 52 56 65 64 82 80 80 71 81 80 74 75 72 72 77 64 69 73 75 76 86 85 90 90 94 94 93 84 62
20 20 16 16 16 13 13 12 11 12 15 12 13 10 11 15 16 29 35 36 38 45 61 71 81 80 70 74 81 93 95 90 84 76 84 78 66 65 65 57 79 77 82 87 92 86 70 64 61
24 19 18 15 14 15 15 13 14 13 15 12 10 10 11 14 16 15 22 28 35 41 60 77 80 80 74 76 85 89 96 97 91 81 78 81 74 63 58 64 55 78 88 88 94 72 69 66 57
19 14 13 15 15 15 14 15 15 14 13 12 12 13 16 16 12 12 14 18 26 42 52 73 74 77 83 85 86 93 94 94 88 81 78 80 70 62 56 56 66 86 97 94 94 78 68 65 56
16 20 17 17 18 17 19 17 15 16 13 14 14 14 14 14 11 11 13 17 22 34 47 65 67 70 66 66 79 89 89 87 85 81 71 79 73 66 64 65 85 86 95 93 90 79 68 58 49
20 21 16 15 16 19 18 23 22 14 12 14 14 14 14 16 12 12 14 16 22 31 42 66 74 73 68 62 64 76 86 83 88 86 82 83 77 77 73 73 82 88 85 97 92 76 65 49 45
23 20 22 13 20 22 24 23 14 14 14 15 14 14 13 12 10 11 12 17 22 31 43 62 66 72 74 66 64 65 86 89 87 86 87 85 82 86 88 89 88 83 90 91 94 74 54 51 48
23 21 18 20 19 19 21 22 17 16 17 17 15 14 13 13 11 11 13 17 24 32 42 62 72 71 73 69 70 69 84 90 92 93 92 88 85 84 89 84 87 86 90 83 94 79 53 52 49
21 25 21 24 18 20 21 21 17 15 18 21 19 16 15 15 12 11 12 19 27 35 45 59 69 69 72 78 78 72 82 90 92 94 93 94 91 87 89 92 92 90 88 90 93 77 62 50 49
19 20 21 20 17 24 25 21 18 16 15 18 19 18 16 16 13 11 13 21 33 40 50 59 76 72 78 79 80 84 80 84 89 82 85 86 90 91 91 95 94 94 90 88 89 72 65 60 54
24 25 24 21 22 29 27 26 21 19 18 18 18 19 18 17 14 12 13 23 39 44 53 63 73 76 72 62 66 70 75 80 70 68 67 71 78 81 92 97 96 94 92 90 91 77 71 62 55
30 30 28 31 32 31 33 28 21 20 18 17 17 17 16 17 16 14 13 20 39 44 55 66 72 70 70 60 70 65 73 81 84 76 74 82 89 90 91 93 98 95 93 92 92 84 69 65 56
32 30 38 40 42 38 32 37 22 22 21 20 20 19 17 16 15 14 14 16 35 43 53 65 70 64 70 66 69 67 61 73 63 83 84 82 83 94 95 94 94 97 94 93 90 80 65 58 62
38 40 42 43 44 44 38 40 21 23 26 24 20 20 19 17 16 15 14 14 28 41 56 67 72 67 69 74 60 61 63 64 61 90 88 92 94 94 95 96 96 96 96 93 88 80 69 61 60
38 46 43 43 46 65 37 35 22 27 41 39 35 32 30 28 29 24 19 18 28 42 58 76 78 73 73 75 59 64 66 66 68 92 97 94 94 93 94 95 96 96 95 94 90 74 70 67 62
43 46 42 57 72 42 34 39 30 40 44 46 47 44 41 40 39 36 29 31 38 51 71 81 80 80 80 66 59 67 65 66 72 91 96 97 97 98 96 94 96 96 95 92 89 80 74 72 69
42 36 43 52 45 35 36 42 36 42 41 41 42 45 46 49 48 39 33 40 45 54 79 82 80 82 80 62 64 72 60 64 70 78 78 84 91 93 94 95 91 92 93 93 90 87 80 75 74
52 62 43 66 52 58 31 30 42 39 43 47 48 51 55 59 59 52 35 46 52 58 81 84 79 77 80 66 71 77 64 67 73 77 70 68 71 80 94 90 92 92 91 91 90 90 88 83 79
50 43 80 70 73 57 31 35 42 55 61 56 52 55 62 68 73 70 47 53 51 63 76 80 66 74 76 73 75 77 69 62 65 66 72 72 72 81 86 95 93 93 90 88 86 90 88 87 88
66 75 75 77 77 63 46 41 54 67 69 58 51 63 71 77 81 83 61 56 60 66 74 76 67 73 75 71 74 73 73 69 70 69 68 68 72 77 81 94 95 94 90 88 83 79 80 85 89
42 53 57 69 75 72 81 49 52 60 56 52 71 64 72 76 80 83 87 73 75 78 80 81 74 76 77 71 71 70 70 73 77 74 65 66 67 70 72 86 92 92 90 88 83 80 73 71 73

GFSSGP_sfc_rhum_087.txt.gz
RH
46 22 13 10 13 10 8 6 4 5 7 8 10 8 8 8 11 20 18 29 30 35 46 65 90 92 92 90 90 92 92 91 90 91 91 89 91 92 91 90 90 88 85 81 78 77 75 81 89
15 13 12 10 14 10 7 5 5 5 5 10 12 11 11 12 10 18 22 27 29 31 42 51 92 92 93 94 94 93 93 91 90 90 91 91 91 91 88 88 90 87 84 82 78 76 81 88 91
29 12 10 10 10 11 6 4 5 4 7 8 8 11 12 13 14 14 22 28 26 26 35 50 90 94 93 94 94 94 93 92 91 91 90 91 91 91 86 85 89 86 84 82 78 79 87 92 93
15 12 10 12 11 7 7 5 4 6 8 7 8 11 12 12 18 16 23 26 28 28 32 84 90 94 94 94 94 94 94 94 93 93 91 90 84 81 82 82 86 84 83 81 80 84 92 94 93
10 10 12 10 10 7 5 5 5 7 8 9 7 9 10 13 13 18 23 27 31 35 38 65 91 93 94 93 93 92 89 94 94 93 92 85 83 80 84 86 85 82 80 78 80 88 94 93 92
16 12 14 12 10 6 6 5 5 6 6 8 9 9 9 12 16 20 23 30 33 39 47 58 84 90 93 93 94 93 92 93 94 94 88 85 83 85 83 80 79 76 88 83 82 89 93 93 91
17 14 14 11 10 8 6 6 8 5 7 6 4 9 10 11 21 25 24 32 39 44 52 59 69 76 93 95 94 95 94 92 92 90 92 84 84 83 82 81 83 84 83 84 85 92 93 92 93
14 14 15 12 11 10 6 7 6 6 7 5 6 9 11 18 20 30 29 34 44 50 58 61 66 70 70 72 95 94 95 94 92 92 94 91 90 88 89 90 89 86 84 82 84 83 90 95 93
13 18 17 13 11 9 8 8 6 7 7 6 7 8 9 15 16 30 33 40 47 53 57 66 75 64 68 72 72 93 94 93 95 92 93 90 59 74 79 82 90 88 87 86 88 92 96 96 94
15 18 15 10 9 10 10 9 9 9 9 10 8 7 8 11 14 20 30 38 45 47 55 60 76 76 76 58 73 67 66 65 66 62 69 57 66 65 66 81 91 91 90 90 92 95 95 91 69
16 18 13 10 10 11 11 11 9 10 12 10 11 10 8 9 13 14 24 29 34 37 44 52 64 73 71 68 63 56 60 69 68 71 67 64 73 82 67 81 89 86 86 87 93 90 87 65 67
17 15 13 11 11 11 13 11 12 11 12 10 10 9 9 9 12 12 14 19 28 32 38 49 54 73 61 47 52 52 69 72 70 70 73 78 79 82 75 65 68 71 81 84 93 95 82 70 64
12 11 11 11 9 10 11 12 12 11 9 9 9 10 12 11 9 10 10 12 18 28 34 50 52 65 55 63 74 68 70 76 80 77 76 78 81 81 70 65 64 70 80 85 91 88 77 70 64
11 11 12 12 11 11 13 13 12 12 9 9 10 11 12 12 11 10 9 11 16 21 30 48 54 60 57 66 74 80 77 81 83 80 74 72 75 72 69 73 72 76 82 82 92 92 86 74 65
15 17 14 12 11 11 10 13 14 10 9 10 10 10 11 13 11 11 9 11 13 15 22 46 60 58 62 61 64 74 73 87 83 79 70 71 67 67 71 70 81 70 76 87 92 93 91 78 55
17 16 16 10 9 10 11 16 10 9 10 11 11 10 11 11 11 11 9 9 10 12 18 38 51 58 61 56 53 64 83 88 72 69 67 72 68 65 66 73 81 80 84 90 95 95 93 82 60
16 16 13 10 10 14 16 17 12 10 12 13 13 12 11 12 11 11 9 9 10 12 19 34 56 60 63 56 55 54 73 78 68 70 79 77 77 71 78 82 90 87 89 88 95 98 94 81 66
15 13 12 13 10 12 17 18 13 11 12 14 12 13 13 12 11 10 9 9 10 13 23 35 55 60 62 56 63 58 67 67 72 77 83 80 82 77 86 89 93 92 88 90 93 95 94 76 63
16 16 14 11 9 13 16 15 14 12 12 12 12 12 14 14 11 11 11 10 13 20 28 37 57 61 60 68 72 64 78 69 78 79 85 87 85 85 89 93 91 95 86 90 89 92 92 91 61
21 21 18 14 12 15 18 20 16 15 15 13 13 13 13 14 13 12 12 11 19 26 33 40 54 58 66 63 57 57 61 60 63 68 77 82 91 92 93 95 96 94 91 92 94 90 91 86 65
21 23 21 19 16 18 21 20 17 15 14 14 13 13 13 13 14 13 13 12 21 29 36 40 49 53 63 58 51 54 57 62 69 76 70 70 75 77 84 82 93 98 91 94 95 93 85 83 71
25 16 19 23 31 29 18 30 19 15 14 16 16 17 16 14 13 13 14 13 18 30 36 39 46 51 58 54 52 57 58 61 59 58 55 62 67 70 75 84 92 95 95 95 95 91 86 81 68
24 20 31 31 32 34 28 26 19 15 20 24 24 24 22 16 14 14 14 13 11 25 35 43 49 51 55 54 54 56 55 48 50 57 73 72 77 78 80 94 94 94 97 93 93 92 92 86 69
22 30 34 33 32 43 29 26 17 20 34 37 34 32 32 28 25 19 17 16 12 18 36 50 55 52 60 56 56 57 55 51 56 70 81 82 83 84 93 97 98 95 97 95 95 91 89 88 73
28 40 48 46 56 48 22 27 22 31 34 38 39 37 37 41 41 37 27 20 17 23 40 54 62 62 61 59 55 55 53 56 56 67 75 90 91 93 96 95 98 99 96 95 95 94 92 91 78
36 37 46 44 40 41 29 34 27 31 39 35 33 35 38 42 47 48 43 28 23 25 40 65 73 72 69 60 53 54 53 52 53 65 80 85 85 88 91 94 95 98 97 96 97 96 94 92 80
32 40 27 39 35 43 31 18 31 31 41 36 33 36 42 46 54 59 58 30 32 35 73 77 77 73 70 56 52 58 57 59 57 67 75 82 79 81 91 91 92 96 98 96 96 97 97 92 85
29 33 60 58 60 51 26 23 39 57 44 35 35 42 46 48 58 69 64 60 39 62 71 82 78 72 67 52 57 60 59 60 58 63 67 75 78 81 82 92 88 93 95 97 95 96 96 93 94
42 57 56 51 49 54 49 49 51 49 40 39 39 44 49 54 62 78 76 81 69 67 73 83 80 75 72 57 62 64 66 67 65 71 72 66 68 67 73 84 89 89 90 92 92 89 89 87 88
46 43 46 66 49 44 57 50 44 39 39 41 43 45 51 56 65 80 81 83 79 76 80 82 81 73 72 61 67 69 68 70 70 71 66 65 63 66 77 74 88 90 89 89 87 86 82 84 85

GFSSGP_sfc_rhum_090.txt.gz
RH
51 32 20 17 16 15 13 8 6 6 5 5 8 9 8 9 19 28 25 30 47 51 71 76 93 92 92 92 92 93 91 92 91 92 93 92 92 93 93 92 91 89 85 82 80 78 79 82 90
22 18 16 14 17 15 10 7 7 5 5 11 10 10 10 10 11 21 28 30 36 44 59 71 94 93 93 93 92 93 92 92 91 92 93 91 90 90 90 90 91 89 85 83 79 78 81 90 93
32 14 16 15 14 15 12 8 5 4 6 7 7 7 9 12 10 18 27 32 35 42 49 68 93 94 94 94 93 93 94 93 92 93 92 90 90 88 87 86 90 88 84 82 77 79 89 94 94
22 22 15 15 14 10 9 8 6 5 6 7 6 7 10 14 18 18 26 28 33 40 46 91 94 94 94 94 94 94 95 95 94 94 92 90 89 86 85 85 87 80 81 82 80 86 93 94 93
16 16 19 16 13 10 8 7 6 6 6 8 7 10 10 13 14 22 29 28 37 50 77 77 94 94 94 93 94 94 95 96 92 94 94 92 89 86 85 86 85 81 77 78 80 82 89 94 92
21 16 19 17 13 9 7 6 5 5 5 7 10 9 10 12 14 23 30 36 46 55 73 79 90 94 94 94 93 94 92 85 94 93 94 92 89 86 86 85 82 80 90 90 85 88 92 93 92
24 20 21 17 14 11 8 6 6 6 6 6 5 9 11 12 22 28 32 45 55 61 69 80 82 87 95 95 94 95 93 87 94 95 93 92 90 89 84 82 82 90 90 90 92 88 86 92 94
20 20 21 16 15 13 8 7 6 6 7 6 5 9 11 22 25 35 40 47 58 68 74 79 82 84 86 90 95 96 94 93 92 91 93 93 90 88 87 88 86 90 91 90 90 87 90 96 94
16 23 23 19 15 13 9 8 7 6 7 7 7 7 10 18 20 34 37 48 56 65 70 78 80 81 84 83 87 94 94 95 94 94 94 96 82 86 85 83 88 87 88 88 87 90 96 94 93
16 25 22 14 12 11 9 9 8 8 8 10 9 10 10 13 17 25 34 43 54 63 71 76 81 79 81 68 86 84 83 87 88 84 89 81 83 81 75 87 90 92 89 88 89 94 96 93 92
15 19 16 14 12 11 10 11 10 10 12 11 13 11 10 10 15 19 29 32 44 53 63 70 81 81 79 71 79 76 78 80 82 82 83 79 82 89 83 88 93 95 91 94 93 97 94 89 82
16 13 13 13 12 13 12 11 13 12 14 10 10 10 10 13 16 14 18 22 31 46 54 62 73 79 79 68 72 72 73 80 84 83 83 88 93 92 86 83 87 95 93 94 94 97 94 89 82
15 13 12 12 12 12 11 11 13 13 10 9 9 10 13 14 12 11 14 14 21 38 48 59 68 78 74 74 67 74 80 85 82 85 86 90 91 93 86 82 79 80 91 89 93 96 88 82 83
12 10 9 8 10 8 11 11 10 12 9 9 10 10 12 12 12 12 13 14 18 25 41 58 63 76 70 68 80 82 83 84 87 89 87 85 88 91 88 87 84 87 93 86 93 94 92 92 87
15 18 15 14 13 13 12 15 15 11 10 10 9 9 10 14 12 13 14 15 17 18 27 63 68 72 73 74 81 80 85 82 82 87 86 85 84 90 87 89 92 88 92 92 94 94 95 94 87
17 17 20 12 9 9 9 14 9 7 8 10 10 11 10 11 11 12 14 14 13 14 23 61 59 70 73 76 77 78 81 84 84 88 86 84 79 82 85 89 90 89 94 96 96 96 96 97 96
19 21 18 13 8 10 10 14 11 10 10 12 13 12 12 12 11 12 14 14 13 12 23 62 68 70 74 73 74 77 84 86 85 84 81 78 81 77 88 89 92 91 94 96 95 98 94 98 98
22 17 13 13 9 9 12 13 13 13 13 14 13 14 14 14 13 13 15 14 13 12 25 60 67 69 72 70 72 72 81 83 83 81 82 80 82 82 88 91 94 93 95 97 97 96 96 96 96
17 19 20 16 14 15 15 12 10 10 10 12 13 13 12 13 13 14 17 20 18 17 22 62 69 72 71 70 75 75 78 77 88 85 88 86 84 88 92 95 96 95 94 94 95 95 96 99 98
18 21 21 18 16 16 15 14 12 12 14 14 14 14 14 14 13 15 17 23 27 25 35 60 67 69 71 68 72 70 73 75 80 84 84 88 89 91 93 94 96 95 94 94 95 92 95 96 97
18 20 19 19 16 16 18 19 18 13 12 13 14 15 15 15 16 16 18 23 30 35 47 52 63 66 68 71 69 70 73 76 82 82 82 86 86 91 93 95 96 97 94 96 95 93 89 93 96
25 17 18 19 20 27 19 33 24 15 13 14 17 21 21 18 15 15 17 22 26 40 51 47 60 63 70 71 66 72 73 75 75 76 75 80 85 91 92 92 93 96 95 95 95 93 91 88 95
24 19 20 23 30 34 32 33 21 16 15 14 26 28 36 39 29 19 18 21 22 35 50 49 57 59 72 69 67 69 70 70 69 72 76 82 85 81 86 89 90 94 96 96 93 98 96 92 91
19 24 24 27 34 53 34 28 24 19 41 36 37 38 39 40 41 42 39 25 18 32 45 54 58 58 69 66 68 71 73 68 68 76 86 90 91 91 88 93 96 96 94 95 94 94 96 94 90
28 36 44 48 55 52 31 40 25 38 37 41 41 38 42 42 47 50 49 52 55 31 47 55 56 61 65 67 68 70 70 70 74 77 85 90 91 94 93 92 99 98 97 96 94 94 96 94 93
29 33 44 62 55 42 44 70 31 39 37 33 33 36 40 45 52 56 56 58 71 46 52 56 59 60 68 68 67 67 66 68 67 74 78 87 86 93 90 96 97 99 98 97 96 97 96 94 92
30 65 32 55 51 56 34 62 56 50 38 32 38 41 46 49 56 64 62 68 77 58 57 66 67 66 70 65 66 68 69 68 71 79 83 84 84 82 91 92 96 98 99 98 98 98 96 95 92
27 26 61 60 82 56 32 28 31 90 44 35 43 49 50 52 61 70 69 78 77 73 78 83 74 71 74 68 72 69 69 71 75 80 86 86 84 84 86 92 93 98 99 98 98 98 98 94 94
32 41 50 61 59 67 70 68 81 79 73 42 44 49 55 59 66 75 75 78 82 80 76 79 82 80 78 72 72 72 70 71 75 79 78 82 88 85 88 89 92 94 98 97 97 98 98 98 98
62 33 44 86 64 49 62 63 84 85 42 39 44 49 56 59 66 74 78 80 82 86 90 80 86 86 82 85 75 76 78 76 74 79 79 80 82 83 87 87 89 90 93 96 95 96 96 98 98

GFSSGP_sfc_rhum_093.txt.gz
RH
74 62 49 34 38 35 35 20 13 10 10 16 14 15 15 14 28 55 56 62 74 82 89 87 93 93 94 93 92 92 93 93 93 94 93 92 92 93 92 92 92 90 87 83 80 79 83 86 91
49 33 38 35 35 38 29 17 14 10 14 16 13 13 13 20 28 39 56 56 67 80 88 91 94 93 93 94 94 92 92 92 93 94 94 93 93 93 92 92 92 90 87 83 80 80 83 89 92
39 29 36 37 37 32 28 15 12 10 11 11 11 12 14 24 29 39 47 56 62 70 78 87 94 94 93 93 94 95 94 94 94 94 94 92 92 91 91 90 92 90 86 82 80 82 90 94 93
35 41 40 36 33 22 16 12 10 9 10 10 11 12 16 23 26 37 44 51 60 63 74 95 95 95 94 94 93 94 95 95 95 95 94 92 90 90 89 90 91 88 80 76 79 90 93 93 93
27 38 45 43 27 19 13 11 9 10 9 12 10 15 19 25 33 35 40 47 62 80 87 91 95 95 95 94 94 95 96 96 96 96 94 93 90 88 88 89 86 82 80 79 80 84 91 94 92
34 37 47 41 30 19 14 11 10 9 9 10 12 12 16 20 36 40 42 64 78 86 88 91 94 95 95 94 94 96 97 96 81 92 94 94 90 88 88 88 85 86 87 84 84 85 89 92 92
47 45 44 36 26 20 16 12 12 10 10 8 12 16 16 34 38 43 45 63 81 85 91 96 97 95 95 95 95 96 94 87 79 93 94 95 93 90 86 85 84 87 86 85 84 84 83 90 92
36 44 48 36 27 24 15 13 12 10 10 12 9 13 15 36 38 43 56 64 73 88 93 95 97 98 98 99 96 96 94 87 80 94 96 96 94 91 87 87 89 87 86 86 86 86 81 86 93
28 43 46 39 29 23 16 15 12 10 10 12 12 12 30 31 35 41 53 75 77 85 90 92 96 97 97 97 96 96 95 94 93 95 96 96 96 94 91 90 91 90 90 91 89 86 90 92 93
28 36 37 26 23 22 16 18 15 14 14 14 15 13 17 26 38 43 45 67 79 83 93 90 95 96 96 86 97 98 97 97 98 97 96 96 96 96 87 90 92 92 92 90 91 94 96 94 93
28 29 23 22 20 19 18 18 15 16 19 18 23 14 14 20 27 44 47 54 67 73 84 86 91 95 94 90 98 99 99 99 98 96 97 95 94 96 96 95 96 95 91 94 93 94 96 95 93
26 20 19 17 15 16 17 18 17 16 20 16 15 16 16 16 21 21 33 31 55 68 78 84 81 89 94 95 95 96 96 97 98 97 95 97 98 97 98 96 98 98 98 96 95 94 92 92 90
22 22 18 15 15 15 16 16 17 15 12 12 11 12 16 19 18 18 21 28 26 62 70 83 79 80 86 95 93 95 94 93 94 95 94 96 96 96 98 98 98 97 98 97 98 95 91 87 87
15 15 16 17 17 15 16 17 16 16 13 11 10 12 13 16 16 17 18 20 21 28 65 79 84 79 81 89 89 96 95 94 97 97 95 93 96 97 97 98 96 96 97 97 97 96 91 92 93
21 25 20 19 18 17 16 18 19 15 14 13 12 12 12 17 14 16 16 19 19 17 55 79 84 82 81 82 92 97 97 96 98 98 95 94 95 96 97 98 98 96 97 98 98 97 96 96 91
32 29 31 21 17 14 16 21 14 12 12 11 11 11 11 11 15 14 17 18 21 20 30 69 76 82 81 87 91 96 96 97 97 98 97 94 94 94 96 98 98 97 98 98 98 97 96 96 97
37 41 32 24 16 16 14 14 12 12 12 15 18 17 17 18 14 16 16 18 17 18 24 67 81 83 81 90 88 92 94 96 95 98 98 94 93 93 96 97 98 97 98 98 97 98 93 97 97
42 35 29 25 18 19 22 21 16 14 12 17 18 15 13 13 18 17 18 17 16 14 24 67 76 78 81 85 91 92 96 98 98 98 97 92 89 92 95 97 97 97 98 98 98 96 97 95 98
24 24 24 23 20 21 21 23 18 16 13 12 12 12 11 14 12 12 17 21 16 15 24 68 76 80 81 83 92 96 98 98 98 96 90 81 92 94 96 97 97 97 97 97 97 96 97 99 98
23 24 27 24 20 20 20 20 20 16 15 14 12 12 12 13 12 12 13 20 24 17 35 68 76 80 76 76 82 89 92 97 96 89 89 91 95 96 97 97 97 97 98 98 97 94 97 96 97
25 28 28 26 21 20 22 24 20 16 14 14 14 13 12 14 14 14 14 16 25 27 56 73 75 76 76 82 82 87 90 96 98 96 96 90 93 95 96 95 96 97 96 97 97 96 94 95 98
31 25 24 24 28 38 26 39 30 25 23 18 15 31 25 50 48 28 19 21 25 30 66 72 74 77 78 77 76 83 83 94 96 94 91 87 92 94 96 96 96 95 96 96 96 94 92 90 95
30 28 28 31 34 46 42 50 36 27 24 17 51 50 55 54 54 56 56 59 40 48 71 74 74 76 77 77 78 86 90 92 92 94 94 95 96 92 95 96 98 97 97 95 94 95 93 92 89
25 30 31 36 39 54 39 45 40 31 24 60 55 60 55 57 56 57 56 58 62 66 68 72 75 76 80 76 80 81 84 86 85 92 95 97 96 96 96 96 97 96 96 96 97 94 94 94 91
37 43 67 72 71 60 43 66 48 55 54 66 66 55 66 60 66 69 69 70 72 76 73 78 74 86 83 78 81 75 74 81 84 90 95 97 97 97 95 94 98 99 95 95 95 95 94 94 96
38 43 80 74 71 55 44 82 55 74 70 71 47 52 57 63 71 74 73 79 84 82 85 73 77 88 84 83 84 75 71 86 81 90 96 97 96 92 93 93 92 98 97 97 96 97 96 95 94
39 53 49 77 62 69 52 40 50 68 74 86 56 59 65 68 75 77 76 79 82 89 92 83 84 85 87 87 79 76 76 79 88 94 94 93 94 93 94 95 98 98 99 98 98 98 98 96 93
52 33 78 88 96 90 49 40 88 86 86 83 64 68 69 71 77 77 77 80 81 87 93 96 94 93 86 85 85 81 79 83 92 94 96 95 88 85 92 94 97 99 99 99 99 99 98 97 95
52 62 55 65 77 88 92 84 87 88 90 85 67 68 71 74 78 77 78 81 81 85 88 92 96 96 94 90 83 80 80 86 92 93 93 95 92 94 91 92 96 98 99 99 99 99 98 98 96
57 83 94 98 78 79 84 75 78 84 82 85 66 66 69 71 75 76 80 81 83 84 87 88 95 93 94 89 87 86 83 82 86 90 89 91 94 89 92 94 95 96 99 98 98 99 99 96 98

GFSSGP_sfc_rhum_096.txt.gz
RH
76 60 50 35 39 39 40 28 20 15 14 14 15 17 15 15 30 48 73 70 79 88 90 92 95 93 93 93 93 93 93 92 92 92 92 92 92 92 92 93 93 90 87 81 80 79 80 83 90
51 40 40 40 44 43 35 27 20 16 13 13 15 15 17 32 45 68 69 75 76 86 92 93 95 94 93 93 93 94 92 92 93 93 92 93 93 92 91 93 94 90 88 82 81 77 85 89 91
41 32 39 42 49 41 32 21 15 14 10 12 11 13 17 36 52 58 62 75 83 88 89 91 95 96 95 93 93 94 94 95 95 94 93 93 92 92 91 93 93 91 86 83 80 82 88 93 92
36 44 46 50 43 33 24 16 16 13 11 10 10 12 23 30 42 55 63 73 79 85 87 96 96 95 95 95 94 94 95 96 95 96 94 93 92 91 91 92 92 89 84 80 81 83 92 93 92
32 48 58 58 43 31 22 17 17 14 14 12 11 12 22 44 45 58 64 61 73 86 94 95 96 96 94 93 94 95 96 96 96 96 95 94 92 92 92 92 89 86 82 82 85 92 93 92 91
35 44 59 54 39 29 23 19 17 14 12 11 13 14 18 42 52 59 62 65 72 90 95 96 95 96 96 95 94 96 97 97 97 96 95 94 93 92 91 91 88 86 85 86 88 93 92 92 91
38 53 58 50 36 29 22 20 18 15 14 11 16 16 27 41 48 54 61 76 83 89 95 98 98 96 96 96 97 98 98 97 90 93 94 95 93 92 91 89 89 88 88 88 88 91 90 90 89
45 54 67 48 39 34 21 20 18 16 15 11 10 17 20 39 49 65 78 86 92 91 94 98 99 99 98 98 97 98 98 92 79 84 92 96 95 92 91 90 89 86 86 85 84 87 87 88 92
36 60 64 56 45 35 26 24 18 16 16 16 11 17 27 37 47 64 83 94 97 94 96 97 98 99 99 99 98 97 93 90 80 80 96 98 98 96 92 92 91 88 90 88 87 87 86 90 90
34 46 50 39 35 32 25 27 21 18 18 19 16 17 35 37 40 54 76 89 96 98 98 97 98 98 99 94 99 99 98 96 95 94 97 98 98 97 92 93 93 93 94 90 89 88 92 94 95
35 36 31 25 24 27 29 26 20 19 22 19 21 18 20 34 42 45 67 75 81 89 95 96 96 96 97 95 99 99 94 95 99 98 98 98 98 98 98 99 98 96 95 95 94 97 98 95 97
30 24 23 21 20 20 21 18 19 20 20 18 18 17 17 19 30 42 52 72 75 90 90 93 91 95 96 97 99 96 95 99 99 99 97 98 99 99 99 98 99 98 97 98 98 99 98 96 92
30 27 23 21 20 19 18 19 18 17 17 15 13 15 17 18 19 21 24 45 67 81 88 92 92 92 93 96 98 99 98 99 98 98 96 97 98 98 98 98 98 98 98 97 98 98 97 95 91
20 19 18 18 20 21 20 21 20 20 16 16 15 16 17 18 16 17 22 22 36 71 83 86 89 89 87 90 95 96 97 97 98 98 97 96 97 98 98 97 98 98 98 98 98 98 97 95 94
29 35 30 25 22 22 19 18 21 18 17 17 16 15 14 19 19 18 16 21 22 32 72 89 86 88 87 87 92 95 95 97 98 97 97 95 96 96 97 96 96 97 98 98 99 99 98 97 95
36 37 43 28 21 19 19 23 16 14 15 13 12 13 12 13 13 12 12 17 20 21 65 85 80 85 90 84 87 94 97 96 97 98 97 95 95 94 97 98 96 96 97 98 98 98 98 96 96
46 49 41 33 22 22 21 23 19 14 16 16 15 14 16 18 16 18 14 13 13 19 55 85 84 90 89 88 90 94 95 94 97 98 98 97 96 95 97 98 98 97 97 96 97 98 96 96 98
50 44 44 38 25 24 25 25 20 20 19 19 18 20 18 15 16 15 19 20 19 17 33 76 85 89 90 94 95 97 94 97 96 98 98 97 96 95 96 98 98 97 97 98 98 97 98 94 95
31 32 32 26 22 25 26 24 19 20 22 21 18 17 16 14 12 16 17 19 21 22 29 78 87 90 94 94 97 96 95 97 98 98 97 97 96 95 96 98 98 98 96 95 96 97 98 99 98
29 30 30 24 21 25 25 23 17 17 21 18 18 17 16 14 13 12 16 17 23 22 24 64 83 90 89 90 84 92 88 95 95 97 96 94 94 94 94 96 98 97 96 96 97 95 98 98 97
30 31 30 32 27 27 26 25 23 19 18 17 17 17 18 20 16 13 13 18 19 28 26 62 79 85 85 84 91 97 98 99 99 98 93 90 92 95 95 95 96 97 97 95 95 96 93 95 98
38 27 27 30 38 42 28 44 30 24 26 24 22 31 67 68 65 59 59 66 77 68 36 48 76 82 80 84 90 94 90 95 96 94 96 92 94 96 97 97 97 96 96 95 94 94 94 91 98
31 30 33 36 44 44 37 52 30 29 28 26 30 65 70 71 68 70 68 67 67 73 77 71 78 81 81 85 87 90 91 94 94 97 96 96 96 96 96 97 98 96 97 95 94 97 97 93 95
26 35 39 42 44 55 38 49 40 36 51 80 72 74 73 77 77 76 71 76 81 84 90 89 81 82 84 80 84 85 91 96 97 95 96 97 98 98 97 96 97 97 97 97 97 95 96 96 94
33 49 70 74 80 55 34 46 40 42 78 79 83 71 75 77 83 83 83 84 81 84 91 94 90 88 86 84 86 86 87 90 94 94 96 97 94 97 93 92 98 98 98 97 96 96 96 94 94
38 38 59 84 80 67 47 69 64 75 69 72 74 79 72 80 78 80 76 78 79 80 86 97 92 88 90 90 90 89 86 84 86 89 94 96 91 91 96 96 97 98 98 97 96 97 97 94 94
52 55 46 64 62 80 66 50 65 71 74 78 79 83 82 77 79 78 74 77 79 87 90 96 94 94 91 90 91 92 86 85 89 94 94 97 97 95 96 94 93 94 95 96 98 98 95 97 93
48 49 74 89 88 79 67 57 83 86 86 84 87 86 77 74 77 76 75 79 81 87 89 92 95 97 97 96 91 88 89 86 88 93 96 95 96 95 96 94 93 94 97 98 98 98 97 98 97
44 70 80 80 75 78 79 81 89 85 86 88 82 73 76 77 78 77 77 77 78 84 88 90 91 97 91 94 96 92 91 89 89 92 95 95 95 91 90 91 92 91 98 98 99 98 99 99 97
42 56 91 99 92 86 91 85 82 90 87 85 78 73 73 76 78 82 79 80 80 83 85 88 89 92 96 91 97 96 94 91 91 94 96 96 94 90 89 92 94 96 96 99 99 99 99 98 99

GFSSGP_sfc_rhum_099.txt.gz
RH
77 58 50 36 36 42 46 30 25 19 13 13 15 19 17 19 31 36 74 74 84 88 93 94 96 96 94 92 92 92 91 90 90 92 93 92 91 92 93 92 92 90 87 81 79 78 80 82 85
51 44 38 41 39 42 31 32 22 20 14 15 13 18 15 28 51 74 74 80 79 87 93 94 95 96 95 94 93 92 91 91 91 91 93 93 92 93 94 94 93 90 87 81 78 79 81 85 87
43 34 38 44 52 35 24 23 23 17 14 14 13 13 15 30 54 66 68 79 85 89 91 93 95 95 95 95 95 94 93 93 92 92 92 92 92 92 94 93 92 90 87 82 77 80 85 92 92
40 44 46 50 46 41 28 24 21 17 15 14 14 14 15 39 59 56 76 82 88 92 92 96 96 95 94 94 95 95 95 95 94 93 92 92 92 91 93 93 91 89 87 84 82 86 91 92 92
37 52 56 66 55 41 26 23 22 19 17 17 14 14 19 44 55 70 80 80 89 96 96 96 97 96 95 94 94 95 96 95 95 94 94 93 92 92 93 93 90 90 88 85 88 91 92 92 91
35 50 68 56 44 34 28 24 22 21 19 15 14 17 18 50 68 70 75 80 84 94 97 96 96 96 96 96 95 96 96 96 96 96 95 94 94 94 93 92 91 89 87 90 93 92 92 92 91
35 56 63 63 43 36 26 23 24 21 19 17 15 18 24 61 66 72 72 79 89 93 97 98 97 96 96 96 96 97 97 97 97 97 96 95 95 95 93 92 90 88 89 92 93 92 92 91 91
48 53 73 53 43 42 28 24 24 21 20 17 15 16 22 50 61 84 93 96 97 97 97 98 97 97 98 97 97 98 98 98 98 97 97 97 95 94 93 92 91 88 88 90 93 92 92 92 92
46 66 78 55 49 40 30 34 24 20 20 20 18 20 33 55 78 92 96 98 98 95 98 99 95 98 98 99 98 99 99 96 92 93 93 97 98 96 94 94 92 90 91 89 91 92 92 93 94
40 65 52 44 39 36 32 38 29 27 25 23 20 18 17 38 65 87 94 96 97 98 99 99 99 99 99 98 99 99 99 97 92 82 87 98 98 98 95 94 92 92 92 91 91 90 90 95 98
40 45 36 31 28 32 31 27 24 26 27 23 23 20 18 19 42 62 85 86 88 88 96 98 98 98 98 98 93 93 94 96 97 88 91 99 99 99 98 99 97 95 94 98 96 95 98 97 98
41 32 28 27 24 26 25 22 22 23 23 20 20 21 20 18 21 37 56 77 90 96 94 96 96 98 97 98 93 89 92 94 95 98 98 99 100 100 99 99 98 96 98 98 98 99 98 97 98
31 28 27 28 27 27 24 26 24 22 19 19 19 18 21 22 18 18 30 47 77 92 93 96 95 96 97 98 96 90 86 93 92 95 99 99 99 99 99 99 99 97 99 98 99 99 98 96 97
25 24 23 22 20 22 23 22 25 22 17 18 18 19 20 21 19 20 20 26 53 74 89 94 96 91 95 96 95 95 90 93 96 97 98 97 98 98 99 99 99 99 98 98 97 98 98 98 97
32 37 35 32 27 26 22 24 24 19 18 19 18 18 18 24 22 20 19 19 23 50 71 94 95 94 96 94 97 98 98 98 98 98 98 97 98 98 97 98 98 99 98 99 99 99 98 98 95
38 42 47 33 28 22 23 27 21 17 18 17 17 17 15 15 17 18 19 19 20 25 60 81 86 94 95 93 97 98 98 98 97 98 98 97 96 96 98 96 96 99 98 98 99 98 98 98 98
49 51 47 38 28 28 26 27 24 18 19 20 20 19 18 17 18 19 18 18 18 20 26 77 88 94 95 94 96 96 96 98 97 97 97 96 96 96 97 96 95 94 98 98 97 99 96 98 98
52 50 59 47 32 28 26 25 22 22 22 22 21 20 19 17 16 14 14 16 20 20 24 54 85 88 92 94 96 98 97 98 98 98 97 96 96 95 98 99 97 96 97 97 98 97 98 97 96
39 39 40 34 26 30 26 24 21 19 24 24 24 22 20 19 16 15 15 16 21 25 29 60 83 92 93 94 96 97 98 97 98 97 96 96 96 96 97 98 98 96 96 93 96 97 98 98 97
33 35 35 29 25 28 28 28 22 22 21 21 19 20 20 19 17 17 19 19 21 19 29 50 79 91 93 91 88 92 91 96 95 97 98 96 97 96 97 98 98 97 96 96 96 97 98 97 96
37 38 37 35 29 31 32 32 28 25 24 22 21 23 28 62 76 75 72 70 74 52 37 49 75 91 92 89 90 99 99 99 99 99 98 98 96 96 94 96 97 97 95 96 96 96 94 97 98
47 36 36 36 41 48 33 48 32 29 31 25 27 42 87 86 78 76 76 80 86 85 83 61 70 89 88 88 89 93 89 94 92 90 91 98 95 95 94 95 96 97 95 95 96 95 94 91 94
34 32 36 37 49 49 39 56 38 27 30 40 86 84 89 83 84 83 82 80 81 80 81 91 62 79 82 88 88 91 90 86 94 93 98 96 96 95 95 95 97 97 96 94 95 96 95 96 96
29 32 40 47 50 60 38 48 38 33 56 89 83 82 81 82 83 81 75 75 78 71 84 90 91 80 82 86 88 89 88 96 98 97 98 97 97 98 97 97 97 97 96 95 93 95 95 96 98
44 50 62 72 78 56 48 59 45 87 85 85 88 87 83 78 84 84 82 79 78 80 80 88 92 90 87 90 91 92 92 94 95 96 95 96 98 99 98 97 99 98 96 95 91 95 96 97 96
58 47 64 72 82 71 54 72 56 81 82 72 72 78 78 82 75 79 77 74 77 82 86 86 94 96 94 91 93 94 95 95 94 94 93 93 93 93 96 97 96 94 94 97 98 98 96 97 96
52 70 60 71 68 76 62 60 86 77 81 79 80 79 83 86 77 78 77 73 78 84 89 92 95 96 96 92 96 96 95 96 94 95 94 93 93 89 90 90 94 98 99 99 99 99 98 98 96
52 53 87 86 94 77 64 67 67 90 84 78 86 86 85 81 76 78 75 76 80 84 89 92 92 96 97 97 95 95 94 94 95 95 96 98 98 97 97 97 97 96 97 97 97 97 97 98 96
50 51 67 86 87 94 80 76 82 95 91 86 88 84 84 81 77 77 76 77 79 83 87 90 91 94 97 97 97 97 98 97 96 96 97 97 97 97 96 97 96 94 96 97 98 98 96 98 97
50 81 88 98 85 88 92 90 82 90 90 93 94 94 74 72 74 76 78 80 81 83 85 89 89 92 93 94 97 95 98 98 97 96 96 96 95 95 91 94 96 95 96 97 98 99 99 98 98

GFSSGP_sfc_rhum_102.txt.gz
RH
74 56 48 35 28 40 43 25 31 19 18 16 18 17 16 21 35 40 74 79 88 92 93 93 92 96 94 92 91 92 91 90 90 93 94 93 91 91 91 91 91 91 86 81 79 80 81 81 85
49 44 38 42 23 32 18 33 25 21 15 17 16 16 20 20 48 69 79 81 85 88 91 93 95 96 94 92 92 92 90 90 90 90 92 92 92 92 91 92 94 90 87 81 79 79 80 86 88
42 37 34 43 45 25 16 23 24 20 17 19 15 14 16 22 47 66 72 85 87 90 92 95 96 96 94 94 93 93 91 91 92 91 90 91 92 92 92 94 94 90 87 83 78 79 86 88 90
42 44 44 43 46 40 23 25 25 21 19 17 17 18 15 24 57 62 82 87 90 96 95 97 97 97 95 94 94 95 94 93 93 92 91 91 92 92 93 94 92 90 87 84 82 86 90 90 93
44 50 50 63 55 40 34 26 26 24 22 20 21 18 20 24 66 80 86 83 91 97 97 97 97 96 95 94 95 96 95 94 94 94 93 92 92 94 94 93 91 90 89 86 88 91 91 92 94
40 54 60 51 39 33 31 27 25 24 23 19 20 21 18 51 70 87 88 91 92 96 97 96 95 96 95 95 96 96 96 95 94 94 94 93 93 94 94 93 93 92 92 91 93 92 92 92 93
33 55 62 66 49 38 31 25 27 25 22 22 20 20 20 51 76 81 85 92 96 97 98 97 96 95 96 96 96 97 96 96 96 95 95 95 95 95 94 93 92 90 90 93 93 92 92 92 92
41 46 69 56 45 40 31 30 28 25 24 20 20 21 22 26 72 92 94 97 98 99 97 92 93 98 98 97 97 97 97 97 97 96 96 96 96 95 93 93 92 90 90 93 92 93 92 92 93
58 65 75 52 47 38 35 40 31 27 26 26 23 21 19 54 84 91 94 97 98 98 99 92 90 89 94 98 98 97 97 98 98 97 97 98 98 97 95 95 94 91 92 93 93 93 93 94 94
50 74 54 45 41 39 37 46 36 32 30 28 26 25 22 60 80 90 94 94 96 97 99 91 89 90 93 94 96 95 93 97 98 98 98 99 99 98 97 96 94 92 92 93 94 95 95 96 99
44 50 43 37 37 37 34 32 29 30 32 28 29 23 22 20 41 76 85 91 94 93 96 98 92 92 95 90 90 90 88 98 98 96 97 99 99 99 99 99 98 98 94 98 97 98 98 97 98
41 36 32 33 30 29 30 26 28 28 28 23 22 23 25 23 23 37 66 73 82 93 94 96 98 98 98 90 86 84 86 94 98 96 89 99 99 99 100 99 99 98 99 97 98 99 98 98 98
36 33 28 28 29 31 30 32 29 28 24 22 22 22 25 25 22 21 30 38 69 82 90 96 97 98 98 95 87 84 82 84 82 84 88 96 98 98 99 99 98 99 99 98 99 99 99 99 99
32 27 26 27 25 25 24 25 28 23 21 20 20 21 22 24 22 21 22 23 34 68 81 93 96 96 97 95 90 86 82 81 84 88 88 96 95 96 99 98 98 99 99 99 99 99 99 99 98
33 41 37 34 32 32 29 32 28 22 21 19 18 18 19 23 22 23 20 20 22 31 58 92 94 93 96 96 97 96 89 83 87 91 91 90 97 97 98 98 98 97 99 99 99 99 99 99 98
41 45 49 35 32 29 26 36 24 20 22 20 19 19 19 19 18 17 22 22 21 24 38 70 85 94 93 93 96 97 93 89 89 93 92 93 95 97 99 98 97 98 98 98 98 98 98 99 98
50 55 51 41 31 32 29 36 26 19 20 22 22 21 20 20 19 19 20 20 20 22 25 40 84 94 95 92 94 94 96 96 98 97 95 95 97 97 97 96 96 98 98 98 97 98 96 98 99
52 56 64 51 34 31 29 28 24 23 25 26 25 23 22 20 19 18 19 19 19 22 24 26 48 89 94 94 94 96 96 95 97 96 97 97 97 97 97 92 95 96 97 97 98 98 97 95 96
43 46 47 41 29 35 30 27 26 25 26 26 24 24 23 22 20 29 58 69 44 26 27 29 37 81 95 93 95 94 93 93 97 95 96 97 96 97 96 96 95 95 96 95 96 97 98 98 96
33 37 39 33 28 32 32 31 27 27 26 24 22 24 27 55 82 72 71 74 83 89 83 50 48 70 94 88 80 90 89 93 92 94 96 96 96 96 96 97 98 98 98 98 97 97 97 98 97
40 42 42 42 38 38 37 36 34 28 28 27 37 52 89 92 88 82 77 80 86 91 90 84 89 73 92 89 89 99 97 99 99 97 96 95 96 96 95 96 97 98 97 97 97 96 96 98 98
51 39 38 43 51 58 40 52 36 33 33 34 84 94 93 86 82 82 81 80 82 83 81 84 86 96 88 92 91 86 89 92 89 88 89 94 96 96 95 96 97 97 97 97 96 96 94 92 98
41 36 39 41 52 59 48 53 44 31 33 90 94 87 89 83 82 83 81 76 74 77 73 79 84 85 85 94 90 88 93 86 87 90 94 97 98 97 97 97 97 98 97 96 96 96 96 95 94
34 41 41 51 53 65 46 48 41 40 79 92 92 90 88 84 80 77 73 73 74 75 82 80 81 83 86 92 92 91 89 89 96 94 95 98 97 98 97 97 97 97 96 96 96 96 96 96 96
42 49 61 65 76 61 53 55 40 83 92 89 90 93 89 84 82 80 77 76 73 76 79 84 87 89 90 90 92 90 90 92 93 92 92 97 98 98 98 96 98 97 96 96 95 96 97 96 96
46 51 64 71 76 72 53 62 56 90 86 80 83 85 83 85 81 78 75 72 71 77 82 85 89 91 91 93 88 89 90 96 95 92 93 94 95 96 96 96 97 98 98 97 96 96 95 94 95
44 72 62 78 74 78 65 59 86 87 85 85 86 84 86 88 77 76 78 76 75 80 85 89 90 89 92 92 86 95 96 96 97 95 95 94 94 97 98 97 98 98 97 97 97 97 96 95 95
41 41 76 88 95 82 64 70 72 90 86 73 86 88 85 77 79 77 75 75 78 82 85 88 90 93 93 96 96 95 95 95 97 96 97 96 97 96 96 97 97 98 99 98 98 99 98 98 98
51 51 61 86 94 97 87 82 88 93 92 91 88 93 95 82 76 78 74 74 78 82 85 86 90 93 95 94 96 97 97 97 97 97 98 96 97 96 94 95 97 98 98 98 99 98 97 99 98
54 82 87 94 84 94 97 82 84 88 88 89 92 91 76 71 71 75 76 78 80 85 85 86 89 91 91 91 95 98 98 98 99 98 98 98 98 98 95 95 95 94 95 96 96 98 98 98 96

GFSSGP_sfc_rhum_105.txt.gz
RH
48 34 28 21 13 19 14 11 18 14 13 12 12 12 11 11 13 26 46 58 66 67 73 80 94 93 92 92 92 91 92 94 93 91 89 88 89 90 90 91 91 89 86 82 81 80 79 82 86
31 29 24 24 12 12 9 17 14 11 11 14 13 12 13 13 18 30 52 61 61 64 69 74 96 94 93 92 92 92 90 92 94 93 91 90 89 89 91 92 93 90 87 83 79 79 82 86 87
31 26 19 20 17 11 9 12 16 14 14 14 13 11 12 14 21 41 50 63 67 65 67 72 96 95 94 93 93 93 92 92 93 94 92 90 89 90 91 93 93 89 86 84 79 81 87 88 89
29 26 27 18 18 19 13 16 18 15 14 13 13 15 12 16 39 50 62 66 68 69 68 90 96 95 94 94 94 94 93 93 92 93 92 91 90 90 92 94 92 89 87 84 83 86 89 90 91
29 25 23 22 22 22 23 20 19 18 18 16 14 16 17 16 42 61 68 66 69 73 74 80 96 96 94 93 94 94 93 93 92 92 93 92 92 92 94 94 93 91 88 86 87 91 89 91 92
24 29 23 20 18 22 21 21 18 18 17 16 16 18 16 18 39 65 73 72 73 75 79 79 94 96 95 94 95 94 93 93 94 94 93 93 94 94 93 94 93 93 91 91 92 92 91 92 93
22 28 25 26 26 26 21 19 19 17 18 17 16 22 16 16 56 69 74 79 81 80 81 83 86 88 98 97 97 96 94 93 94 94 94 94 96 95 93 93 93 92 93 94 93 91 92 93 94
24 24 36 33 24 22 20 21 20 18 19 18 16 20 21 18 62 72 72 79 85 88 84 84 87 89 88 88 97 97 96 95 95 94 95 96 96 95 94 94 93 92 93 94 92 91 92 93 94
34 28 31 27 31 22 26 26 25 22 23 21 19 16 17 17 56 66 67 73 78 88 87 86 89 90 90 90 86 96 96 96 96 93 95 94 74 77 76 82 92 92 92 94 92 93 93 94 94
36 37 27 29 27 23 27 27 25 22 22 22 20 20 19 16 21 49 61 61 70 77 92 87 85 88 89 86 86 84 84 82 80 78 78 73 78 74 72 82 96 94 93 95 94 94 94 92 68
30 27 36 32 30 28 26 26 23 23 24 21 22 18 17 18 19 25 48 63 57 63 72 87 86 87 87 84 82 81 85 87 89 86 82 79 79 82 75 71 79 78 89 73 85 84 73 72 75
24 29 27 26 24 27 26 20 21 21 22 18 17 19 20 19 22 18 20 40 65 67 64 74 86 87 90 80 79 76 79 86 86 81 86 89 91 92 79 70 81 82 75 78 79 81 79 76 76
30 27 26 25 24 24 23 24 24 24 19 17 18 20 20 18 16 16 17 17 25 56 66 76 79 88 87 87 77 75 81 83 83 77 82 85 88 92 88 85 85 82 81 78 80 80 78 77 77
26 23 22 22 22 23 24 23 25 21 17 18 17 17 17 18 15 16 17 17 21 22 48 72 78 87 85 85 81 76 76 77 79 78 75 82 80 91 94 90 91 86 82 79 78 79 80 77 80
25 30 28 27 26 26 24 25 28 19 18 18 15 14 15 20 16 16 17 19 19 18 20 54 68 67 79 82 85 81 71 74 78 78 84 83 84 90 92 92 94 92 86 84 82 82 84 83 84
28 32 30 27 25 23 22 27 20 17 16 15 15 15 17 16 15 14 16 17 16 18 22 27 52 75 83 80 83 84 75 74 72 81 85 87 86 90 94 94 90 92 95 87 87 90 90 88 87
34 28 36 31 25 25 24 27 19 15 14 17 17 17 17 17 15 16 18 23 27 23 23 25 36 60 82 84 82 82 83 78 79 78 83 88 88 89 94 92 91 91 96 95 93 94 90 90 90
32 36 38 37 25 24 23 22 19 17 18 20 18 18 19 18 17 42 55 57 57 58 56 36 32 40 72 82 85 88 84 84 84 85 88 89 87 90 91 91 94 92 96 97 96 96 95 90 90
29 32 28 26 23 27 28 24 21 19 20 21 20 20 20 30 54 56 60 60 63 65 68 67 67 47 49 69 85 89 90 82 89 86 87 87 88 88 89 93 91 93 92 92 96 96 97 98 94
28 29 32 29 26 28 27 27 23 22 22 21 20 33 67 65 59 58 58 60 64 66 68 69 68 68 56 53 64 69 74 81 83 87 86 84 85 89 87 90 92 92 92 93 93 95 97 96 96
34 38 38 36 29 29 31 25 25 22 22 44 68 70 64 64 63 61 62 63 62 64 67 65 66 71 72 69 65 74 83 89 94 94 92 87 85 90 88 88 90 93 92 93 94 94 89 97 98
43 32 31 32 38 34 28 33 25 23 23 60 72 68 67 64 59 60 62 62 62 62 65 65 68 71 69 72 70 73 74 78 77 76 80 89 85 87 88 88 89 92 90 94 94 89 92 91 97
33 33 36 36 37 41 34 34 27 27 25 56 75 73 69 65 64 62 61 60 58 60 63 67 70 72 72 73 75 74 73 68 66 72 80 89 92 87 89 90 89 91 94 94 93 94 94 93 94
30 34 36 41 40 47 33 32 22 25 34 65 76 76 71 68 66 63 61 60 59 58 64 69 74 74 75 76 80 82 75 74 73 76 82 88 90 91 93 92 94 93 94 93 89 93 93 94 94
36 40 39 44 55 40 37 39 27 42 75 74 78 73 71 68 66 66 63 64 65 67 70 74 77 82 78 83 82 76 84 77 76 77 79 87 94 98 91 96 95 95 94 89 87 94 94 95 96
36 42 43 52 51 47 46 48 33 77 70 72 72 70 66 66 63 62 61 62 68 76 78 77 82 85 82 86 90 79 82 88 79 78 76 80 85 89 89 96 92 90 90 88 86 87 90 95 96
40 55 45 57 63 56 38 40 72 67 63 71 74 75 79 72 64 66 63 64 70 82 84 86 86 84 86 91 92 83 86 88 89 83 80 84 86 89 94 94 91 88 90 90 89 95 93 90 95
35 28 48 76 61 43 26 41 44 72 71 75 78 88 78 68 63 65 66 69 72 82 86 87 87 88 87 90 91 94 91 91 89 90 85 85 89 89 96 94 92 91 90 91 93 93 88 95 95
32 35 47 58 74 55 36 37 72 79 82 81 82 80 81 73 66 65 66 70 73 81 85 86 87 89 90 91 92 97 96 94 94 95 93 93 92 94 94 92 94 92 89 86 90 85 98 97 97
42 56 61 58 53 67 66 46 81 77 89 88 85 78 72 71 66 65 67 73 74 79 83 85 87 88 88 87 91 97 98 97 97 96 96 95 93 92 91 90 93 90 90 90 93 94 93 92 89

GFSSGP_sfc_rhum_111.txt.gz
RH
41 16 10 10 12 9 8 6 4 5 6 6 6 6 7 7 8 13 14 30 31 27 50 66 92 92 92 93 93 93 90 88 89 90 91 91 91 92 93 93 91 88 85 83 82 82 81 80 89
14 10 10 10 11 9 7 5 6 5 6 6 6 7 7 9 8 13 17 26 32 28 43 53 93 92 92 93 94 93 90 89 89 90 91 92 91 92 93 93 92 89 87 83 79 78 81 86 89
17 10 12 11 11 10 8 6 6 6 6 6 7 6 7 11 13 16 16 27 36 31 37 47 92 92 92 92 94 94 93 92 91 90 90 92 91 92 92 93 92 90 87 83 78 79 86 88 88
11 10 10 13 12 9 8 7 7 6 6 6 6 7 8 12 14 18 26 30 37 33 34 82 94 93 91 92 93 95 95 95 93 92 91 91 91 91 92 93 92 90 88 86 83 84 88 88 89
11 10 13 12 11 9 7 8 8 8 8 8 6 8 9 10 12 19 29 35 37 35 38 65 94 93 92 91 92 94 95 95 94 93 92 92 91 92 92 93 93 92 90 88 87 89 90 88 88
12 11 14 13 10 8 8 9 9 9 8 8 8 9 9 10 12 22 28 41 40 37 43 60 89 93 93 92 92 93 94 95 95 95 94 92 93 93 92 92 93 92 92 90 90 92 89 88 89
15 13 15 13 12 10 9 9 11 10 9 9 9 14 10 10 12 15 26 46 49 44 50 54 69 78 96 94 94 93 93 94 95 95 95 95 95 94 92 92 93 92 92 92 93 93 89 89 90
11 12 14 13 12 12 9 10 10 11 11 12 11 14 13 12 12 12 16 40 52 54 57 58 65 70 71 72 95 94 93 94 94 95 96 96 96 94 93 94 94 91 92 92 94 92 90 91 92
12 14 16 14 12 11 10 12 9 10 13 11 12 12 11 11 10 11 13 26 48 56 55 59 67 72 68 65 73 93 94 93 94 90 95 92 64 68 69 75 88 92 94 94 94 93 92 93 93
15 16 15 11 10 11 10 10 10 10 12 13 12 11 10 10 10 12 12 14 28 49 57 65 80 82 76 55 65 66 62 60 62 60 64 61 58 53 51 64 92 92 95 95 95 93 94 92 53
13 18 13 10 10 10 11 10 9 10 13 12 13 12 10 10 11 12 13 12 13 31 48 57 72 82 78 67 54 55 54 56 58 60 58 58 52 53 51 53 59 68 86 62 72 73 64 58 51
15 12 11 11 10 10 11 10 12 11 12 10 9 10 10 11 13 12 11 11 12 27 40 53 52 65 71 56 53 50 48 62 51 54 63 58 54 54 56 44 55 66 63 61 56 52 63 63 54
12 11 11 9 8 10 9 10 10 10 8 8 8 10 12 12 11 10 10 10 11 14 30 46 49 56 59 61 50 49 50 54 58 59 55 56 47 54 47 47 42 51 61 58 56 58 59 66 63
12 11 11 11 10 12 12 12 11 11 10 11 11 11 12 13 12 10 10 11 12 12 13 20 39 50 51 56 60 48 50 46 50 58 55 62 49 52 47 48 44 39 49 64 52 54 56 67 67
14 18 16 15 13 13 12 15 15 11 10 10 10 10 11 13 11 11 11 12 13 12 12 16 27 38 50 54 55 52 43 47 45 49 60 57 56 59 68 58 47 42 41 62 70 67 56 59 59
18 18 21 14 12 12 13 20 12 10 11 12 11 10 10 10 10 10 12 14 15 18 23 26 22 25 40 50 49 50 46 43 42 43 48 58 52 55 60 70 62 52 48 47 58 56 61 67 62
21 23 20 16 12 14 16 18 12 11 12 13 11 10 10 11 10 12 18 22 26 26 34 35 39 38 33 38 43 48 52 47 43 44 44 53 55 51 55 66 69 75 69 51 59 64 63 66 59
22 19 16 17 13 13 16 16 13 11 11 13 11 10 10 10 11 20 27 31 32 33 38 40 41 46 48 42 38 36 38 43 45 46 45 54 48 54 57 56 67 71 77 73 58 71 76 63 56
19 19 19 14 12 15 17 14 12 10 10 11 11 11 12 12 16 26 32 35 38 40 41 43 47 48 46 43 36 29 40 40 42 44 51 53 54 56 60 57 71 73 80 75 84 81 87 87 66
18 21 20 15 12 14 15 15 12 11 11 11 11 12 12 17 24 30 32 34 39 39 42 43 42 44 45 44 43 42 37 35 36 43 46 50 56 63 63 67 70 73 80 81 87 88 92 88 79
17 20 20 18 15 14 17 17 13 10 10 9 10 13 22 28 30 32 34 36 38 39 43 41 41 42 45 49 44 44 44 43 44 41 42 46 55 62 70 75 72 72 78 80 86 86 86 86 90
25 17 19 20 20 22 12 17 12 12 12 13 18 25 30 34 33 33 34 36 38 38 43 43 45 45 44 48 49 55 54 51 34 38 37 44 53 62 70 74 80 73 79 82 85 84 81 73 89
24 19 19 19 21 20 17 17 15 11 12 18 26 34 37 38 38 37 35 35 33 37 42 47 48 48 48 52 56 57 60 54 50 44 48 48 53 63 74 78 78 78 78 80 81 85 84 77 76
18 20 20 20 20 29 20 18 15 11 11 18 40 39 41 39 37 36 34 34 34 37 44 49 52 50 53 58 63 69 72 69 63 60 52 48 48 60 75 80 84 81 79 82 79 80 82 76 72
21 28 37 35 36 34 16 16 16 20 31 30 41 39 40 38 38 38 36 36 38 43 47 49 52 58 59 63 65 69 73 76 75 68 61 59 57 68 78 84 88 86 82 80 78 79 87 79 73
27 28 42 71 50 37 18 24 27 41 42 41 38 39 36 37 37 36 37 38 39 45 47 52 58 64 64 67 70 72 76 76 74 70 62 58 57 58 72 87 88 85 83 80 80 77 84 86 80
25 37 24 43 42 40 30 26 43 50 47 49 46 39 38 36 36 38 38 39 42 45 51 61 66 67 70 74 76 83 82 81 82 80 73 63 61 62 75 85 88 88 87 85 83 80 81 84 89
23 26 51 39 47 40 23 23 24 65 67 54 49 43 39 36 36 38 38 42 43 47 50 63 70 73 74 78 84 84 85 85 84 85 84 74 63 63 71 79 88 92 90 89 86 86 82 82 86
30 31 31 31 40 52 47 33 52 72 58 52 42 40 38 37 37 39 40 41 43 49 54 61 71 75 82 88 87 88 86 87 90 92 87 77 72 66 74 83 87 88 91 92 90 85 84 86 87
25 30 29 53 43 30 28 23 46 50 43 43 41 40 36 38 40 40 41 44 47 53 57 65 73 83 91 92 93 88 86 87 90 94 92 77 69 69 70 80 86 87 89 92 88 79 80 84 85

GFSSGP_sfc_rhum_114.txt.gz
RH
46 18 14 13 16 14 13 8 5 5 6 6 6 6 7 7 8 21 26 30 34 54 63 75 92 91 92 93 93 93 90 90 91 92 92 92 92 92 93 92 90 90 87 85 82 81 81 82 86
23 17 11 13 17 15 10 6 6 6 6 6 6 6 7 8 9 14 18 25 33 46 59 65 93 92 92 94 94 94 90 90 91 92 92 92 92 92 93 92 90 88 88 85 82 81 83 86 91
28 17 14 15 15 15 11 7 6 6 6 5 6 6 7 12 15 16 22 30 35 36 52 62 93 93 92 94 94 94 92 92 92 92 92 92 92 92 93 92 91 90 87 85 79 80 86 90 89
15 12 13 17 15 11 9 8 6 6 6 6 6 7 7 12 13 18 23 31 39 38 48 92 94 94 93 94 95 95 94 94 93 93 93 92 91 92 93 92 91 89 87 85 83 85 89 89 90
13 14 17 16 14 10 8 7 8 8 8 8 7 8 9 12 12 20 27 36 40 46 71 77 93 93 93 94 95 95 94 94 93 93 94 93 92 92 93 93 92 91 89 88 88 88 89 87 88
16 14 19 17 13 9 8 8 9 9 9 8 8 9 10 12 13 21 26 44 48 56 69 79 90 93 93 93 94 96 96 95 94 94 94 94 94 94 94 92 93 92 91 91 90 90 91 88 88
17 17 19 16 15 13 10 9 10 10 10 9 9 11 13 11 17 18 25 49 57 56 72 80 81 86 93 94 94 96 96 96 95 94 94 95 95 95 93 92 93 93 92 92 93 94 90 89 89
13 15 18 17 16 15 10 10 10 11 11 11 10 13 15 16 17 21 19 48 59 63 69 81 81 83 86 89 94 94 95 96 96 96 96 96 96 95 93 93 93 92 93 92 93 94 90 90 91
11 19 20 17 15 14 10 11 10 9 11 12 11 12 12 13 12 17 23 30 60 64 68 73 80 81 82 80 84 94 93 94 96 95 97 99 87 88 86 87 88 93 94 94 95 94 93 92 93
15 21 20 14 12 12 10 10 11 10 10 14 12 12 12 11 13 18 16 20 46 64 68 77 85 81 80 65 82 83 78 82 84 82 91 85 83 80 69 79 89 92 94 95 96 95 94 96 79
15 20 16 14 13 12 11 11 10 12 13 11 14 12 11 12 14 18 19 17 18 29 62 81 89 90 88 76 78 74 74 75 77 78 80 81 73 78 72 75 78 89 95 88 94 96 88 80 76
16 14 14 13 12 11 12 10 11 11 13 11 10 11 11 12 14 14 16 14 19 22 57 70 77 85 90 76 74 72 68 74 74 74 79 78 77 76 76 65 76 82 80 84 81 78 80 79 74
17 14 12 11 11 12 11 10 11 11 9 8 8 10 12 13 12 12 13 14 18 30 52 77 77 80 82 83 70 80 68 71 71 72 74 75 71 78 72 71 71 74 74 78 77 75 74 73 74
17 16 15 11 12 12 13 12 13 13 10 10 9 10 12 13 13 13 16 16 24 23 28 56 62 77 75 81 78 74 74 73 72 74 74 74 69 70 70 70 69 72 71 73 75 70 68 78 81
16 19 16 15 15 16 14 17 17 12 11 12 11 11 12 16 13 15 15 20 21 20 27 41 40 47 76 74 77 77 72 65 74 71 77 77 71 74 71 75 70 68 68 75 78 78 75 78 78
20 21 27 18 15 14 15 22 13 11 11 11 11 11 12 11 12 13 16 18 21 28 41 48 43 55 58 58 74 70 67 71 63 69 71 73 70 68 80 76 80 76 69 73 79 82 81 82 85
25 32 28 22 14 14 15 18 13 12 11 13 13 12 12 12 12 14 19 27 30 33 44 48 58 62 66 64 61 62 68 71 63 63 66 71 68 67 72 73 75 80 82 77 77 79 77 82 85
28 23 19 20 14 13 15 16 14 12 12 14 13 13 13 12 11 24 28 35 35 40 46 50 55 61 65 66 67 59 51 60 64 64 60 70 65 65 72 72 80 78 84 85 83 80 84 83 82
22 24 24 19 15 17 17 15 13 12 12 13 13 13 12 13 20 30 37 40 42 46 47 49 55 60 59 59 61 59 59 52 62 58 66 68 66 68 68 71 83 82 80 76 81 85 88 92 87
22 24 23 18 15 17 17 15 12 12 12 12 12 12 13 13 25 32 35 40 46 46 51 50 48 52 54 52 57 60 61 62 58 58 59 60 67 69 69 72 75 81 82 77 82 90 95 89 91
20 22 24 21 15 15 17 18 15 14 13 12 11 11 16 20 33 34 34 40 45 48 54 48 49 51 54 57 53 54 58 60 59 53 48 60 66 72 71 73 73 81 83 81 78 87 88 88 87
25 20 22 21 23 33 19 29 19 14 11 11 12 24 33 34 33 33 35 38 42 48 53 50 52 52 50 58 61 67 66 66 62 61 58 57 59 56 72 76 76 81 83 83 82 84 83 81 88
29 23 30 30 39 40 27 29 22 15 13 13 23 38 39 38 37 37 36 36 36 45 52 56 54 52 54 60 66 69 72 70 68 68 70 67 64 59 64 73 80 81 84 84 82 81 87 80 80
20 22 28 33 34 52 32 28 24 18 18 16 40 39 39 39 38 36 35 36 38 44 53 57 56 55 58 63 67 72 72 70 74 75 75 72 68 65 68 69 81 87 83 87 84 83 87 80 79
25 32 46 74 59 50 24 26 23 56 40 48 47 40 40 38 39 37 37 38 42 48 52 54 58 62 63 66 67 69 70 73 75 77 77 76 74 75 75 73 80 84 84 84 85 86 87 85 82
30 35 73 73 63 49 60 54 50 50 54 48 39 37 36 36 36 37 38 42 44 48 52 56 60 66 66 67 71 71 72 74 76 77 77 77 75 71 69 77 75 87 83 83 85 88 86 88 89
37 44 37 65 65 60 44 50 67 48 48 46 42 39 38 34 34 36 36 42 46 50 56 64 66 67 71 75 76 78 77 76 78 78 78 79 78 73 76 76 81 86 88 86 85 88 89 90 90
25 21 49 83 90 59 34 30 69 67 58 50 48 43 38 34 34 38 40 46 48 52 54 64 70 72 75 78 80 79 81 81 81 82 84 83 81 81 81 78 75 86 88 89 89 89 85 92 92
31 31 32 37 44 76 54 45 65 75 70 66 44 40 37 38 39 40 42 46 49 53 57 64 70 75 80 83 84 86 85 85 86 88 89 88 88 86 86 79 76 84 89 90 93 86 84 84 90
26 32 34 56 48 44 45 43 51 61 50 42 39 38 37 38 40 42 45 49 52 56 60 69 74 82 86 85 85 88 88 86 89 89 89 90 92 91 87 80 75 78 89 91 90 88 86 85 90

GFSSGP_sfc_rhum_117.txt.gz
RH
61 33 35 28 29 32 33 20 16 12 12 11 9 9 10 11 17 58 42 46 64 74 83 85 93 93 94 93 91 91 92 92 93 93 93 92 91 91 92 91 90 90 88 84 83 82 80 84 87
52 31 32 28 33 40 28 15 13 10 10 10 8 9 10 21 20 26 40 43 62 68 81 88 93 93 94 94 94 92 91 92 93 93 93 91 91 91 92 92 92 90 89 86 80 80 82 87 92
42 31 33 32 35 34 27 14 10 9 8 8 10 9 13 26 21 27 43 43 53 67 71 82 93 93 94 94 95 94 92 93 94 94 93 91 91 91 92 92 90 89 90 87 82 82 86 90 91
27 27 24 32 32 24 19 14 9 9 10 8 10 12 16 24 22 30 42 43 47 63 65 91 94 94 94 95 95 94 94 94 95 94 93 92 91 92 92 91 90 90 89 87 85 86 90 91 90
35 29 35 40 28 19 14 12 10 12 12 12 9 15 18 21 27 30 47 53 61 73 82 86 94 94 94 95 95 95 95 94 94 95 95 93 92 93 92 92 91 91 90 89 88 89 89 88 88
29 28 37 38 27 19 16 14 14 13 13 13 14 13 17 22 20 25 53 58 70 82 87 88 92 94 95 96 96 96 96 94 94 95 95 94 94 94 93 93 92 93 92 91 91 91 91 87 87
31 33 39 32 25 20 16 14 15 15 14 16 15 17 23 21 20 19 57 63 68 85 88 93 94 93 95 96 97 97 96 95 95 95 95 96 95 95 94 93 93 93 93 93 93 94 92 89 88
25 27 30 28 25 22 15 14 16 15 18 16 16 19 21 22 19 21 30 69 70 85 92 93 96 98 98 97 97 97 97 96 96 95 96 96 96 96 94 94 94 94 93 93 93 95 92 90 90
18 32 33 28 23 19 15 15 14 14 15 16 18 19 17 17 15 18 21 63 80 75 94 93 94 95 97 96 93 96 96 97 97 97 96 99 98 97 95 94 94 94 94 94 95 96 94 92 92
22 35 27 21 21 20 17 18 15 15 15 18 18 17 16 14 18 20 21 23 82 80 85 92 94 93 94 82 95 97 94 98 98 98 97 99 98 98 88 93 93 94 95 95 96 95 96 96 97
25 26 22 20 18 19 19 16 15 16 20 17 18 18 16 18 17 20 22 20 20 68 83 95 92 93 92 81 94 94 97 98 98 97 98 98 92 94 89 92 88 97 94 98 98 99 99 97 96
27 19 18 18 17 17 17 17 16 16 18 15 14 15 17 16 20 21 20 18 20 33 88 94 94 92 93 87 90 85 87 91 93 92 96 96 98 96 90 89 92 96 96 97 98 99 98 96 89
26 24 20 19 18 17 15 18 17 15 13 13 12 12 15 18 20 19 18 17 17 24 87 94 93 95 89 86 88 93 94 83 83 85 85 89 88 90 92 85 87 89 93 94 96 96 94 93 89
23 21 20 19 19 18 18 17 18 17 14 15 13 14 15 16 15 19 18 20 22 30 55 51 87 93 92 93 93 96 96 87 82 80 80 84 85 86 86 86 88 87 87 89 88 90 87 85 89
23 28 24 23 21 20 17 21 22 17 16 15 15 16 15 19 17 16 18 26 34 51 52 52 56 60 71 90 96 97 96 90 95 94 85 81 80 86 76 87 85 83 81 87 87 89 87 90 89
29 30 36 25 22 20 23 28 21 18 17 17 16 15 17 19 18 19 20 40 52 53 55 59 57 66 72 72 81 92 94 94 95 87 84 85 79 79 88 80 81 85 82 81 85 84 92 85 91
39 49 39 31 23 23 24 25 18 17 17 18 18 23 18 17 18 25 45 48 55 56 59 61 62 65 66 68 80 79 78 88 90 95 88 81 78 79 77 89 87 89 93 88 82 89 88 93 96
49 43 38 33 26 21 22 22 19 18 18 20 20 18 18 20 33 45 49 50 56 57 55 55 60 62 62 66 68 68 70 68 74 83 94 90 81 77 86 77 83 91 93 96 94 86 95 89 92
33 34 35 29 22 24 24 21 19 17 19 19 23 21 19 40 46 49 50 51 54 55 55 56 60 63 61 63 65 64 70 67 70 80 82 78 88 76 75 90 94 93 82 78 94 96 90 96 93
34 35 34 25 20 21 23 22 18 17 16 16 17 18 19 45 47 48 51 54 60 60 60 59 59 61 62 62 63 67 70 78 68 72 76 82 80 79 86 84 86 88 94 93 92 96 98 96 92
32 33 30 28 27 30 31 33 24 18 15 15 16 15 21 42 44 46 49 57 61 64 65 61 63 63 66 66 65 67 68 69 72 68 66 66 68 72 82 80 78 88 91 96 92 92 96 93 97
34 29 30 32 50 60 43 62 38 28 22 19 16 40 41 44 44 44 46 53 58 65 63 62 63 64 58 66 71 77 81 82 76 75 71 71 68 68 73 78 80 85 85 93 96 94 89 95 94
35 39 30 28 42 55 45 62 40 27 25 28 48 51 52 48 48 48 49 52 56 58 65 68 65 63 65 68 70 76 80 77 74 74 76 75 73 71 68 76 81 82 88 89 92 95 94 94 93
36 38 38 38 52 77 50 53 47 36 33 64 62 50 48 45 44 44 48 48 56 60 65 70 68 68 68 70 72 76 78 77 77 76 78 79 78 76 76 76 82 85 81 91 93 93 93 87 82
53 51 74 82 77 61 37 45 39 78 71 66 60 49 48 45 46 47 52 55 58 64 70 64 71 71 70 73 73 70 72 73 75 75 76 77 80 82 82 82 83 83 83 82 89 94 92 90 88
52 46 88 85 82 72 50 66 96 90 82 83 51 41 40 43 43 47 54 58 61 63 70 75 73 73 73 75 76 73 72 75 74 74 74 76 77 76 78 83 83 82 82 82 84 86 91 90 91
48 52 43 72 72 81 63 78 90 89 82 84 84 72 67 60 57 51 55 59 62 65 72 78 77 75 77 79 81 82 80 77 79 78 76 78 77 74 78 83 85 84 80 82 83 84 82 92 93
36 31 69 92 94 83 58 54 96 96 93 84 76 59 46 48 50 51 59 62 63 65 68 73 79 80 81 83 83 80 82 81 79 80 82 80 79 80 82 81 83 85 83 82 87 85 82 86 91
40 44 44 66 78 92 90 73 76 89 87 68 59 47 51 54 55 58 59 61 64 67 70 74 80 85 85 82 84 85 84 84 85 87 86 86 85 85 86 86 87 86 86 81 87 86 79 80 84
39 44 43 74 61 68 74 68 70 75 68 60 48 50 52 53 59 60 64 68 70 72 71 78 84 89 86 81 85 86 85 85 87 88 88 88 89 87 89 90 90 89 86 82 88 90 78 81 87

GFSSGP_sfc_rhum_120.txt.gz
RH
72 41 37 30 29 34 42 25 19 13 15 12 10 10 11 19 29 67 49 65 76 85 89 91 95 94 93 92 93 93 93 92 91 92 90 88 89 91 91 92 93 92 89 85 84 83 81 84 88
59 32 32 33 35 41 33 23 16 12 11 11 11 11 13 29 32 40 48 65 70 80 88 91 95 94 94 92 93 93 93 92 92 92 90 89 89 90 90 91 92 92 90 85 82 80 83 89 91
45 35 32 34 43 38 31 18 11 10 8 10 12 11 18 28 28 39 46 65 72 78 82 86 95 95 95 94 93 94 94 94 94 93 91 90 90 90 91 92 92 92 90 85 80 83 90 92 92
33 29 28 35 39 30 28 20 15 11 10 9 12 13 21 26 33 41 55 65 74 76 77 92 95 95 95 95 94 94 94 95 95 94 92 90 90 91 92 92 92 91 91 89 87 89 91 93 92
38 34 38 46 35 27 20 18 14 12 14 13 12 16 30 32 38 52 60 64 76 78 84 90 95 95 95 95 95 94 94 95 95 95 94 92 91 91 92 92 91 91 93 90 90 92 92 90 90
31 34 41 44 34 26 21 18 17 16 16 16 16 17 31 25 28 58 59 76 81 86 90 89 92 94 96 96 96 96 96 96 95 95 95 94 93 93 91 91 92 93 93 92 92 93 91 88 88
32 35 42 41 33 26 21 16 16 16 19 18 16 24 30 22 21 57 62 82 89 91 92 96 96 94 96 97 97 98 97 96 96 96 96 95 95 94 92 92 92 93 94 93 93 95 94 89 88
28 31 40 35 32 27 20 16 15 16 18 16 17 22 27 22 21 42 71 77 94 94 94 97 98 97 98 98 98 98 98 96 96 96 96 97 96 95 94 94 93 94 95 95 94 95 94 92 91
23 31 39 31 28 23 21 22 16 15 16 17 17 20 20 22 24 22 68 81 86 94 96 97 98 98 97 97 97 98 97 97 97 97 97 99 97 96 96 95 95 94 95 95 95 96 95 94 93
23 39 31 24 23 23 21 26 19 19 18 18 18 16 17 21 22 22 22 36 86 89 98 98 97 97 97 88 97 98 97 98 98 98 98 94 99 98 93 96 96 96 96 96 95 96 96 95 98
31 29 26 21 20 20 22 22 19 19 21 18 20 19 16 18 22 22 22 21 49 85 94 97 97 97 97 91 99 99 100 100 99 99 94 93 98 99 98 99 96 98 97 98 98 98 99 98 99
33 25 24 22 20 23 23 20 20 18 18 16 17 15 17 15 18 19 20 19 20 25 58 96 96 97 97 96 97 96 99 99 99 99 99 97 99 99 99 98 97 98 96 98 98 99 98 98 97
31 29 25 23 22 23 22 23 21 19 16 16 14 15 17 18 16 17 17 18 23 54 81 98 97 97 97 97 98 97 97 94 96 97 97 98 99 98 98 94 96 94 97 97 99 98 98 98 97
28 27 26 24 24 23 22 22 22 20 18 17 17 17 18 18 16 18 18 26 50 48 60 78 82 86 93 97 96 98 98 98 96 89 86 92 88 92 94 94 93 95 96 95 96 97 98 98 97
28 33 29 30 27 26 22 27 25 19 19 19 18 18 19 21 18 17 18 55 61 67 65 69 72 74 80 90 96 97 98 98 98 94 89 86 87 84 85 87 92 89 91 94 95 96 95 97 95
36 37 47 30 28 24 27 34 25 20 20 20 20 20 18 20 19 21 52 58 66 68 69 72 65 74 74 79 89 89 92 98 98 97 97 94 88 86 84 86 86 88 89 92 93 94 96 95 97
48 55 47 38 27 30 32 30 27 19 20 21 22 20 20 21 40 54 60 67 70 69 65 68 68 72 74 75 84 85 86 90 91 95 95 93 90 90 96 96 86 93 89 92 91 93 89 94 94
59 54 62 48 34 28 30 28 22 22 20 21 23 22 21 35 56 58 62 61 63 62 62 62 63 67 70 71 71 72 77 74 85 87 90 91 93 88 90 94 93 97 95 92 94 90 93 91 89
45 45 45 38 31 30 29 27 23 21 23 23 22 25 40 57 55 56 58 62 60 62 62 63 65 69 68 69 72 77 77 74 78 79 81 81 89 91 94 94 91 93 95 95 96 94 97 98 96
40 46 46 36 29 28 30 33 30 26 26 25 20 18 49 58 57 56 62 64 66 66 65 64 64 68 69 69 72 82 76 86 75 80 74 79 76 81 82 90 93 90 92 92 96 90 97 96 97
41 42 41 39 33 39 42 42 40 29 27 24 24 23 45 54 55 58 62 67 67 69 67 66 66 67 71 70 70 70 72 74 78 73 72 72 73 77 82 86 91 93 93 92 93 93 88 96 100
47 33 34 41 43 54 45 62 43 32 30 36 55 56 55 52 54 57 60 65 67 74 69 68 68 69 64 71 74 82 86 86 80 79 73 73 72 73 78 83 85 90 92 95 92 94 93 94 93
49 40 47 46 54 57 45 62 44 34 32 62 65 60 63 61 60 67 70 68 66 68 72 68 68 69 71 72 76 81 83 80 77 76 77 75 75 75 75 82 86 89 89 90 94 97 96 93 91
36 39 42 46 52 77 45 58 54 91 86 70 62 56 58 55 56 60 59 59 64 64 70 71 69 72 73 76 77 81 84 82 81 80 82 80 78 77 78 81 87 88 86 90 92 93 94 93 91
53 70 93 82 76 69 50 59 93 89 85 79 77 71 55 54 62 65 65 62 63 67 77 65 74 75 74 77 77 80 82 82 81 77 78 77 79 80 82 83 85 87 85 86 89 89 94 94 91
64 65 93 89 82 72 50 63 92 86 84 81 81 80 77 69 68 75 71 70 63 68 74 77 78 78 76 80 82 82 82 84 81 77 76 78 78 78 76 82 83 84 86 87 88 87 92 94 93
56 66 55 73 81 88 71 89 93 85 91 93 94 88 89 91 84 74 69 67 67 71 74 80 85 84 82 84 82 81 81 78 78 77 77 79 77 74 76 80 82 82 80 82 86 91 84 93 92
47 47 74 91 94 92 69 68 97 94 90 88 92 90 86 80 77 78 77 76 75 73 78 81 84 88 85 79 79 77 78 76 77 77 79 81 80 80 82 85 85 86 86 81 84 90 86 89 90
44 49 52 74 82 93 93 68 76 86 86 85 77 63 62 65 67 69 71 69 72 75 77 81 85 82 82 80 77 78 78 80 83 85 85 85 85 84 85 84 85 86 86 85 89 87 88 84 90
46 50 51 86 80 77 79 62 79 88 82 63 59 63 68 68 72 73 73 75 77 77 81 85 80 81 87 84 79 79 80 83 84 86 86 86 87 85 86 85 85 85 86 88 89 90 87 82 91

GFSSGP_sfc_rhum_123.txt.gz
RH
75 49 40 30 28 35 41 29 24 15 13 13 12 13 14 26 35 38 55 71 80 85 94 94 95 95 95 94 94 93 91 90 90 90 90 91 91 92 94 94 94 92 89 85 84 82 82 84 88
67 36 32 33 35 38 29 28 22 14 11 11 11 15 24 47 41 48 55 74 80 87 95 96 95 94 94 94 95 94 92 91 90 89 90 90 91 92 94 95 95 93 90 84 81 80 82 89 91
45 35 30 37 46 38 30 24 22 17 13 11 12 13 30 36 40 49 52 75 82 86 90 92 96 95 93 93 94 95 94 93 92 90 89 89 90 91 92 94 95 93 91 84 80 80 90 93 93
36 29 30 36 48 34 28 23 20 18 10 11 13 17 28 36 39 53 60 76 82 88 86 94 96 96 94 93 93 94 95 95 95 93 90 89 89 90 91 92 93 92 90 85 84 90 93 94 92
36 35 39 50 40 32 25 21 21 15 16 15 13 22 38 34 47 67 68 74 82 87 90 95 97 96 95 94 93 94 95 96 95 94 92 91 91 92 92 93 94 94 92 91 92 93 94 93 92
32 36 43 46 39 30 24 22 19 19 18 18 18 26 32 28 37 63 75 79 82 86 93 93 94 96 97 96 96 95 96 96 95 95 93 92 92 93 92 93 93 94 96 94 94 94 94 91 90
34 37 53 46 38 32 25 19 19 18 19 20 20 31 27 24 23 62 73 88 88 92 95 96 96 95 97 97 98 97 96 96 96 96 95 94 94 94 92 92 92 94 95 94 94 95 92 90 90
32 33 53 38 35 32 23 22 19 18 18 16 21 27 29 22 26 56 85 93 95 95 95 97 98 98 98 98 98 98 98 97 96 96 97 96 95 94 93 93 92 94 95 94 94 96 94 92 91
26 32 41 34 31 26 24 25 20 18 18 17 19 23 20 23 26 44 83 89 96 95 96 97 98 98 98 98 98 98 98 98 97 97 97 99 96 96 95 93 94 94 96 95 95 96 96 96 94
25 36 32 27 26 24 24 29 24 21 20 20 18 20 22 20 22 24 40 84 90 96 96 98 98 98 98 94 98 99 99 98 98 98 98 98 98 98 95 96 96 95 96 96 96 96 97 97 98
34 32 29 24 22 27 29 28 25 23 23 19 19 17 18 21 18 19 21 27 48 90 96 98 98 98 98 97 99 100 98 96 96 96 96 88 89 99 98 100 98 98 97 99 98 98 99 99 99
36 29 28 26 24 27 27 25 26 22 21 19 17 19 18 17 19 20 20 19 26 28 37 88 98 98 98 98 99 99 100 100 95 92 92 92 95 93 92 93 99 99 99 98 99 98 98 99 98
35 33 28 27 26 27 26 28 26 23 19 20 19 19 20 20 18 18 20 26 68 84 98 96 99 99 99 98 99 99 99 98 98 99 94 93 92 90 91 94 98 99 99 99 98 96 95 96 98
34 33 32 28 27 27 26 27 29 24 21 21 21 22 22 22 19 20 19 61 68 78 82 74 85 94 98 99 98 99 99 98 98 98 96 97 99 99 99 98 99 99 99 99 98 93 93 94 98
33 39 35 31 29 29 29 32 30 24 24 24 22 20 22 26 24 19 32 68 76 77 75 76 78 80 87 91 94 95 99 99 99 99 97 95 97 97 97 98 99 98 98 98 99 99 98 98 98
40 43 51 34 27 27 35 43 28 24 21 24 21 22 22 22 22 26 67 76 85 78 74 75 66 75 76 84 91 92 94 96 95 98 98 97 96 97 96 98 96 95 99 99 98 98 98 97 98
54 67 51 39 29 32 36 38 29 23 23 22 22 22 22 28 61 74 75 80 78 78 73 72 73 74 76 77 84 86 89 92 94 94 96 91 94 93 94 92 96 98 99 99 98 98 97 97 97
58 57 66 50 35 32 35 34 27 26 26 26 25 24 27 67 76 66 67 67 71 74 69 70 70 73 75 79 78 81 79 80 86 92 89 91 89 88 96 94 94 89 96 98 99 98 98 96 96
52 56 57 50 37 41 39 35 30 28 29 33 33 29 72 71 66 67 67 69 68 68 69 72 73 74 73 77 85 89 86 84 82 89 82 88 84 83 86 96 96 93 96 91 96 95 98 99 99
48 51 52 46 39 40 40 39 38 36 33 34 33 36 71 68 68 65 68 70 72 71 70 71 72 73 72 76 83 84 87 90 83 80 79 84 80 83 81 88 91 96 97 96 90 96 96 99 99
48 53 51 49 40 41 45 45 40 33 33 39 57 48 63 68 70 65 66 71 74 75 74 72 70 69 72 74 74 76 81 79 82 76 76 75 75 80 85 87 90 91 94 95 95 99 98 97 99
54 41 42 50 59 68 46 66 42 39 61 69 69 73 76 75 72 72 76 76 74 74 67 68 68 69 66 72 78 86 90 89 85 82 77 75 74 78 84 87 89 92 92 95 95 93 98 94 93
56 48 50 51 63 61 54 71 53 73 81 75 70 68 71 75 75 77 79 75 73 72 71 69 71 70 71 74 77 82 87 85 82 80 81 80 79 78 76 86 92 93 92 93 95 94 93 96 89
44 53 57 60 55 86 57 56 69 85 79 72 70 64 62 64 64 65 62 64 73 73 72 67 72 71 72 77 79 84 89 89 88 85 85 82 79 79 80 82 88 90 90 92 92 94 94 93 95
55 64 88 94 82 76 54 61 78 87 83 82 86 86 79 77 74 72 72 72 68 72 74 67 75 80 77 81 84 84 86 88 87 84 84 84 80 77 80 82 86 84 81 84 90 92 92 92 95
67 68 93 90 83 74 58 67 83 82 78 79 78 83 85 90 90 90 89 88 85 79 74 76 79 84 82 79 79 76 74 77 78 77 77 79 81 79 75 80 81 81 81 81 79 85 90 94 92
60 80 70 81 79 88 73 84 86 86 87 88 90 86 88 91 90 89 88 88 90 85 86 90 86 82 79 79 76 74 74 73 76 76 76 78 77 76 77 81 84 83 85 86 85 84 86 89 94
51 52 74 92 96 93 76 73 90 95 87 82 88 88 87 85 82 81 77 76 76 78 77 80 82 82 80 80 74 72 73 72 76 78 79 80 79 79 82 84 85 85 85 85 87 88 85 89 92
48 56 62 79 88 94 90 73 79 82 79 82 82 84 84 74 74 73 72 72 71 73 82 78 77 80 81 84 83 74 78 76 78 79 83 83 83 82 83 83 85 84 84 85 88 90 87 87 88
47 52 59 82 77 84 84 66 57 80 81 72 79 72 77 79 82 83 80 78 74 80 76 78 79 85 87 80 85 84 83 83 82 84 84 85 85 83 84 83 83 83 84 86 88 91 88 90 92

GFSSGP_sfc_rhum_126.txt.gz
RH
76 52 40 28 28 33 43 30 28 19 16 15 13 14 21 35 50 43 51 76 82 96 96 95 96 96 95 94 93 91 92 90 91 93 93 93 93 93 93 94 93 90 88 85 84 82 81 80 84
63 39 30 33 34 34 26 29 24 19 16 14 13 21 36 51 46 54 58 80 83 93 97 96 96 96 94 94 94 93 91 90 90 91 92 92 93 93 94 94 94 92 89 83 82 81 82 88 87
43 32 29 38 47 35 29 26 22 21 20 14 13 22 32 39 43 53 61 80 88 93 96 96 95 95 94 94 94 94 93 92 92 91 91 92 92 93 94 95 94 93 90 85 80 80 88 90 91
37 29 32 36 54 36 32 26 24 22 14 12 14 21 34 39 42 56 74 81 88 94 95 96 96 95 94 94 94 94 95 94 93 92 91 91 92 93 94 95 95 93 90 86 84 87 92 93 93
34 35 39 50 50 33 27 25 23 21 23 21 19 25 37 40 41 70 79 79 86 93 94 96 97 96 93 92 93 94 95 95 94 92 92 91 92 92 94 95 95 94 91 88 88 93 93 94 92
33 36 42 48 48 30 27 26 21 21 19 20 21 30 33 26 36 64 80 84 84 91 94 95 95 96 95 94 93 95 96 95 95 94 92 92 92 93 93 94 94 95 94 94 95 95 94 93 91
35 40 50 58 42 31 27 23 22 22 22 19 21 29 28 24 24 47 77 89 90 92 95 97 97 96 97 98 97 96 96 96 95 95 94 93 95 94 93 93 94 95 96 95 95 95 95 92 91
34 34 50 40 35 32 27 23 24 22 22 18 21 24 27 24 26 47 82 93 94 95 95 96 97 98 98 98 99 98 96 96 96 96 96 96 95 94 94 94 94 95 96 94 94 95 93 92 92
28 36 43 38 32 28 26 26 24 22 20 22 20 24 20 23 26 50 82 87 96 95 96 97 97 98 98 98 98 98 98 97 97 97 98 99 98 97 95 94 94 95 97 96 95 96 95 94 93
27 39 36 31 30 30 25 34 26 24 24 24 22 21 19 17 20 22 28 58 88 93 94 97 97 98 98 98 98 99 99 98 99 98 98 99 96 98 96 96 96 95 97 96 96 97 97 97 98
36 34 31 27 26 35 37 30 28 28 28 24 23 20 21 19 20 21 24 24 46 73 95 96 97 97 98 98 99 97 96 94 97 98 99 99 88 94 99 100 99 99 98 99 99 99 99 99 99
40 32 31 30 29 32 31 33 30 25 24 22 20 21 22 22 24 22 21 21 25 50 87 87 97 98 98 99 99 99 98 96 97 97 93 92 93 96 90 88 93 99 99 97 98 98 95 97 99
41 38 33 31 31 30 29 31 30 27 23 23 22 23 25 25 23 22 21 30 34 39 82 94 95 98 98 98 99 99 99 98 94 98 97 98 97 98 94 92 90 92 98 95 95 95 94 93 95
40 39 39 35 33 34 34 32 29 27 25 22 23 23 24 27 24 24 24 34 78 92 93 90 95 97 98 98 98 99 99 99 99 99 98 96 97 96 96 95 94 95 99 98 96 91 91 92 92
39 45 41 39 40 35 35 35 33 27 24 23 22 22 22 27 53 39 30 74 90 88 81 80 79 75 85 91 94 97 98 97 98 98 97 95 97 99 98 98 97 98 99 99 99 97 96 96 91
48 51 59 39 34 33 32 47 29 26 24 22 22 22 23 75 80 79 79 79 78 76 76 73 69 75 78 85 94 92 96 98 98 98 98 96 95 97 98 99 99 99 99 99 99 98 96 97 97
60 75 59 44 34 36 35 46 33 28 26 25 27 26 40 82 76 74 72 73 73 74 72 72 71 73 74 76 86 86 91 93 96 94 96 91 89 87 95 97 95 99 100 99 99 98 98 97 96
66 63 68 58 42 37 44 42 37 31 29 29 30 31 85 83 80 71 71 69 69 69 68 68 67 69 69 73 78 82 79 86 93 90 93 88 88 85 91 95 97 96 97 97 98 98 97 97 94
51 58 60 55 41 48 47 46 41 36 35 35 36 43 87 80 70 69 69 68 67 67 66 66 70 70 71 74 77 88 86 90 92 83 87 85 85 86 90 92 94 95 98 96 91 88 87 92 96
53 59 58 49 43 45 46 46 42 40 47 72 78 81 82 75 72 69 70 70 71 69 68 69 69 70 71 73 75 83 82 90 89 76 80 82 82 87 81 92 94 93 95 96 96 94 90 93 94
53 56 56 55 46 49 53 58 48 63 69 70 78 77 76 80 80 74 69 73 72 73 72 68 69 68 72 73 72 73 77 76 84 77 79 77 78 82 89 91 93 95 95 96 97 97 96 90 96
60 45 47 51 68 82 53 75 59 86 79 78 79 85 85 79 70 70 70 72 75 78 73 70 66 65 65 72 77 83 87 90 85 82 79 79 80 83 85 88 92 94 96 96 97 94 98 96 94
51 50 55 60 71 75 63 76 75 84 87 84 79 74 70 68 67 67 68 67 66 68 68 70 73 72 72 74 80 86 88 86 83 84 84 82 81 82 82 89 93 94 94 94 95 95 95 96 94
49 58 65 65 67 95 70 70 70 92 80 85 82 78 76 71 68 66 66 65 68 67 67 64 71 76 78 78 79 80 81 81 82 80 79 78 78 81 82 85 89 92 86 89 90 94 95 94 96
59 69 93 95 91 86 57 68 53 94 76 81 82 83 79 80 85 89 91 90 87 87 81 73 76 80 77 76 75 74 74 76 76 76 77 78 79 78 78 78 79 78 76 78 82 83 86 91 96
69 70 90 93 87 77 66 72 65 82 81 74 72 77 88 95 92 90 87 87 87 83 79 81 83 82 80 78 76 72 71 74 74 72 72 76 77 77 75 79 81 82 83 85 86 88 88 88 91
66 80 69 85 80 90 80 73 80 78 83 83 81 83 85 83 89 92 83 83 85 82 83 88 84 80 79 80 84 79 73 74 76 74 75 78 76 74 75 79 82 83 84 85 85 88 90 88 89
54 57 79 90 94 87 78 74 77 92 88 85 89 87 76 84 85 84 78 76 76 77 80 78 79 81 80 81 81 79 80 77 75 74 76 79 77 78 80 82 82 82 83 83 85 88 87 91 90
58 70 74 81 82 91 90 69 71 79 83 86 82 87 81 77 85 84 81 80 78 79 74 74 79 82 85 84 78 81 83 80 82 81 81 84 82 81 82 81 82 82 82 83 85 87 87 90 91
50 57 56 84 83 90 88 68 63 82 81 76 78 85 79 86 89 88 85 82 83 75 74 78 81 86 87 83 83 85 85 82 85 85 84 85 86 83 83 82 81 81 82 83 86 87 85 88 90

GFSSGP_sfc_rhum_132.txt.gz
RH
36 18 15 13 14 11 11 12 12 11 11 9 10 9 15 20 25 30 29 36 39 41 46 69 92 89 89 89 89 91 93 92 90 90 90 91 91 90 90 92 90 89 86 85 82 80 75 77 83
17 17 14 11 13 11 12 12 12 11 10 10 12 10 15 23 26 30 27 39 42 42 42 52 96 92 90 90 89 90 92 92 92 91 91 91 91 91 91 91 91 89 87 86 80 80 79 81 84
20 14 12 12 12 11 12 13 12 10 9 8 8 13 16 28 28 30 35 40 44 43 42 54 94 93 91 90 90 89 91 93 94 93 92 91 91 91 92 92 91 90 89 84 79 82 86 85 84
14 12 12 14 14 15 14 13 12 10 10 9 9 13 19 26 29 36 36 38 41 46 45 82 95 94 93 91 90 90 90 92 94 94 94 92 91 91 92 93 92 90 90 84 83 86 91 88 87
12 12 14 14 15 14 13 13 12 12 13 12 10 15 22 22 26 31 35 39 44 46 50 56 95 94 93 92 91 90 90 91 92 94 94 94 93 93 94 94 92 91 90 86 87 90 92 90 89
13 13 15 14 16 14 14 13 13 12 12 11 12 15 15 15 15 21 30 37 47 48 54 53 85 94 93 93 93 93 93 92 92 92 94 94 95 94 94 94 94 93 93 92 92 93 93 90 89
16 16 16 17 17 16 15 14 14 14 12 13 11 14 13 11 12 16 28 38 46 54 58 58 60 70 97 95 95 96 95 93 92 92 93 93 95 95 95 95 95 95 94 94 93 94 92 90 91
13 15 19 17 18 18 16 14 14 14 13 12 10 14 14 12 12 12 15 28 37 48 58 62 64 64 63 65 96 96 96 96 95 94 94 95 96 95 95 95 96 95 96 95 94 94 93 92 93
11 18 17 20 19 18 15 15 13 13 13 13 12 13 13 12 11 12 12 14 20 33 46 58 64 63 67 64 66 92 96 95 96 91 95 90 58 57 62 74 87 95 96 95 95 95 95 95 94
14 17 17 17 16 17 16 15 15 14 14 15 14 13 13 12 13 15 13 14 15 16 26 48 58 61 64 54 61 64 60 59 62 61 60 62 59 53 51 64 90 95 97 97 97 96 96 91 46
16 14 17 17 18 16 16 14 14 16 17 17 18 15 14 15 17 18 16 14 15 16 17 32 52 63 64 54 52 53 55 60 66 68 62 59 57 59 55 52 58 64 86 66 82 75 62 54 46
18 17 17 16 18 18 18 16 17 17 19 14 14 14 17 26 28 29 26 27 27 28 47 53 59 63 71 60 50 57 76 74 81 80 79 81 79 74 62 53 67 63 57 62 66 68 64 56 55
20 19 20 19 20 18 18 19 19 19 16 13 13 18 32 32 31 33 35 38 41 48 55 60 64 70 71 67 77 80 85 86 83 83 85 85 88 87 82 80 70 71 68 72 73 69 66 64 62
24 22 21 20 18 18 22 18 19 18 16 16 14 28 37 40 39 38 41 45 46 46 50 54 56 64 67 83 90 93 92 91 91 92 91 88 90 89 85 85 78 73 67 70 77 84 83 71 68
24 26 19 18 20 20 19 19 21 16 16 16 16 29 40 45 42 46 45 44 43 40 43 50 53 57 62 66 73 85 87 92 94 95 91 88 89 91 85 85 88 85 78 76 79 77 81 81 78
25 26 18 21 20 21 19 15 16 16 17 16 16 32 40 45 45 44 43 41 39 39 42 46 44 51 55 60 59 57 70 69 73 80 80 82 76 78 86 88 88 87 87 89 94 84 78 84 88
29 15 26 22 19 19 18 17 16 15 16 19 19 36 42 46 45 42 39 37 36 37 41 44 50 50 51 50 52 48 54 48 47 50 51 60 60 62 60 66 84 87 87 79 76 85 81 89 94
17 23 24 23 17 19 18 17 15 18 18 23 28 38 42 44 45 40 38 36 34 36 38 40 44 49 45 40 41 38 36 41 42 43 48 56 51 57 56 52 60 63 82 84 76 71 71 74 75
28 27 25 20 19 24 22 21 18 18 19 25 32 40 45 45 40 37 38 37 35 38 39 40 46 50 42 37 37 37 41 42 41 39 50 52 54 58 56 52 55 57 58 74 86 91 90 71 63
33 32 26 19 22 26 23 23 19 30 32 41 40 43 45 44 41 39 39 42 44 45 46 45 45 48 47 39 39 41 42 40 41 40 45 50 55 59 53 60 56 58 57 60 64 75 90 91 86
29 31 25 26 23 23 27 25 27 40 43 48 48 46 45 45 42 40 43 48 49 52 52 48 48 48 51 52 41 40 38 37 38 40 40 47 53 58 62 59 60 61 59 57 63 63 70 89 87
29 23 28 28 32 30 31 24 24 32 38 47 50 49 48 46 41 40 43 47 50 53 53 50 51 49 48 52 49 55 46 45 45 44 43 47 52 55 58 62 63 65 61 63 60 53 62 74 89
28 31 33 36 37 36 30 36 21 30 34 39 46 49 48 44 40 45 50 53 47 47 49 50 49 49 51 51 54 50 54 49 46 47 53 52 51 52 54 62 67 66 65 65 72 72 67 61 61
33 37 35 37 35 37 25 29 15 30 29 28 40 45 46 44 46 53 54 47 43 43 48 49 49 47 50 53 55 59 60 57 54 55 54 51 51 50 55 59 65 69 73 73 70 71 74 75 75
34 40 37 35 42 32 33 34 24 27 30 31 39 41 45 47 54 59 55 48 45 47 49 47 49 52 53 56 56 56 59 60 59 62 58 61 56 56 59 63 66 66 67 72 74 75 74 74 76
36 34 41 44 32 27 34 35 24 30 32 37 37 40 46 53 64 59 54 49 46 49 50 50 51 54 55 58 59 58 60 59 58 62 64 61 62 62 63 63 65 69 71 73 75 77 78 78 81
40 46 29 45 37 44 28 22 44 51 49 52 50 49 51 59 69 57 52 49 47 48 55 59 58 56 60 64 63 62 60 63 63 64 62 62 64 61 64 65 66 68 71 74 75 78 81 81 82
36 29 48 50 58 44 24 24 31 50 50 54 54 52 50 61 67 59 49 50 47 49 50 60 63 63 63 64 63 61 62 62 62 62 66 67 66 65 66 67 64 65 66 67 72 75 76 80 82
37 43 45 44 45 55 44 28 30 27 30 40 42 46 46 56 56 56 48 48 48 49 52 58 64 67 67 66 63 64 64 64 64 65 66 67 67 66 65 65 65 64 63 66 71 74 74 76 78
35 39 39 68 53 67 59 40 30 33 32 34 36 44 43 57 52 53 51 49 49 51 50 54 59 68 72 67 66 68 68 67 69 69 68 71 68 67 66 67 67 66 65 65 67 71 77 80 83